[[{"header":{"parameterUnit":"m.s-1","parameterCategory":1,"la1":31.0,"la2":29.5877,"lo1":-88.7671,"lo2":-86.6584,"dy":0.0162,"dx":0.0185,"nx":115,"ny":88,"refTime":"2023-10-06T12:00:00:Z","depth":0,"parameterNumber":2,"parameterNumberName":"U-component_of_WINDS"},"data":[0.0,0.0,0.0,0.0,0.0,0.0,0.0,0.0,0.0,0.0,0.0,0.0,0.0,0.0,0.0,0.0,0.0,0.0,0.0,0.0,0.0,0.0,0.0,0.0,0.0,0.0,0.0,0.0,0.0,0.0,0.0,0.0,0.0,0.0,0.0,0.0,0.0,0.0,0.0,0.0,0.0,0.0,0.0,0.0,0.0,0.0,0.0,0.0,0.0,0.0,0.0,0.0,0.0,0.0,0.0,0.0,0.0,0.0,0.0,0.0,0.0,0.0,0.0,0.0,0.0,0.0,0.0,0.0,0.0,0.0,0.0,0.0,0.0,0.0,0.0,0.0,0.0,0.0,0.0,0.0,0.0,0.0,0.0,0.0,0.0,0.0,0.0,0.0,0.0,0.0,0.0,0.0,0.0,0.0,0.0,0.0,0.0,0.0,0.0,0.0,0.0,0.0,0.0,0.0,0.0,0.0,0.0,0.0,0.0,0.0,0.0,0.0,0.0,0.0,0.0,0.0,0.0,0.0,0.0,0.0,0.0,0.0,0.0,0.0,0.0,0.0,0.0,0.0,0.0,0.0,0.0,0.0,0.0,0.0,0.0,0.0,0.0,0.0,0.0,0.0,0.0,0.0,0.0,0.0,0.0,0.0,0.0,0.0,0.0,0.0,0.0,0.0,0.0,0.0,0.0,0.0,0.0,0.0,0.0,0.0,0.0,0.0,0.0,0.0,0.0,0.0,0.0,0.0,0.0,0.0,0.0,0.0,0.0,0.0,0.0,0.0,0.0,0.0,0.0,0.0,0.0,0.0,0.0,0.0,0.0,0.0,0.0,0.0,0.0,0.0,0.0,0.0,0.0,0.0,0.0,0.0,0.0,0.0,0.0,0.0,0.0,0.0,0.0,0.0,0.0,0.0,0.0,0.0,0.0,0.0,0.0,0.0,0.0,0.0,0.0,0.0,0.0,0.0,0.0,0.0,0.0,0.0,0.0,0.0,0.0,0.0,0.0,0.0,0.0,0.0,0.0,0.0,0.0,0.0,0.0,0.0,0.0,0.0,0.0,0.0,0.0,0.0,0.0,0.0,0.0,0.0,0.0,0.0,0.0,0.0,0.0,0.0,0.0,0.0,0.0,0.0,0.0,0.0,0.0,0.0,0.0,0.0,0.0,0.0,0.0,0.0,0.0,0.0,0.0,0.0,0.0,0.0,0.0,0.0,0.0,0.0,0.0,0.0,0.0,0.0,0.0,0.0,0.0,0.0,0.0,0.0,0.0,0.0,0.0,0.0,0.0,0.0,0.0,0.0,0.0,0.0,0.0,0.0,0.0,0.0,0.0,0.0,0.0,0.0,0.0,0.0,0.0,0.0,0.0,0.0,0.0,0.0,0.0,0.0,0.0,0.0,0.0,0.0,0.0,0.0,0.0,0.0,0.0,0.0,0.0,0.0,0.0,0.0,0.0,0.0,0.0,0.0,0.0,0.0,0.0,0.0,0.0,0.0,0.0,0.0,0.0,0.0,0.0,0.0,0.0,0.0,0.0,0.0,0.0,0.0,0.0,0.0,0.0,0.0,0.0,0.0,0.0,0.0,0.0,0.0,0.0,0.0,0.0,0.0,0.0,0.0,0.0,0.0,0.0,0.0,0.0,0.0,0.0,0.0,0.0,0.0,0.0,0.0,0.0,0.0,0.0,0.0,0.0,0.0,0.0,0.0,0.0,0.0,0.0,0.0,0.0,0.0,0.0,0.0,0.0,0.0,0.0,0.0,0.0,0.0,0.0,0.0,0.0,0.0,0.0,0.0,0.0,0.0,0.0,0.0,0.0,0.0,0.0,0.0,0.0,0.0,0.0,0.0,0.0,0.0,0.0,0.0,0.0,0.0,0.0,0.0,0.0,0.0,0.0,0.0,0.0,0.0,0.0,0.0,0.0,0.0,0.0,0.0,0.0,0.0,0.0,0.0,0.0,0.0,0.0,0.0,0.0,0.0,0.0,0.0,0.0,0.0,0.0,0.0,0.0,0.0,0.0,0.0,0.0,0.0,0.0,0.0,0.0,0.0,0.0,0.0,0.0,0.0,0.0,0.0,0.0,0.0,0.0,0.0,0.0,0.0,0.0,0.0,0.0,0.0,0.0,0.0,0.0,0.0,0.0,0.0,0.0,0.0,0.0,0.0,0.0,0.0,0.0,0.0,0.0,0.0,0.0,0.0,0.0,0.0,0.0,0.0,0.0,0.0,0.0,0.0,0.0,0.0,0.0,0.0,0.0,0.0,0.0,0.0,0.0,0.0,0.0,0.0,0.0,0.0,0.0,0.0,0.0,0.0,0.0,0.0,0.0,0.0,0.0,0.0,0.0,0.0,0.0,0.0,0.0,0.0,0.0,0.0,0.0,0.0,0.0,0.0,0.0,0.0,0.0,0.0,0.0,0.0,0.0,0.0,0.0,0.0,0.0,0.0,0.0,0.0,0.0,0.0,0.0,0.0,0.0,0.0,0.0,0.0,0.0,0.0,0.0,0.0,0.0,0.0,0.0,0.0,0.0,0.0,0.0,0.0,0.0,0.0,0.0,0.0,0.0,0.0,0.0,0.0,0.0,0.0,0.0,0.0,0.0,0.0,0.0,0.0,0.0,0.0,0.0,0.0,0.0,0.0,0.0,0.0,0.0,0.0,0.0,0.0,0.0,0.0,0.0,0.0,0.0,0.0,0.0,0.0,0.0,0.0,0.0,0.0,0.0,0.0,0.0,0.0,0.0,0.0,0.0,0.0,0.0,0.0,0.0,0.0,0.0,0.0,0.0,0.0,0.0,0.0,0.0,0.0,0.0,0.0,0.0,0.0,0.0,0.0,0.0,0.0,0.0,0.0,0.0,0.0,0.0,0.0,0.0,0.0,0.0,0.0,0.0,0.0,0.0,0.0,0.0,0.0,0.0,0.0,0.0,0.0,0.0,0.0,0.0,0.0,0.0,0.0,0.0,0.0,0.0,0.0,0.0,0.0,0.0,0.0,0.0,0.0,0.0,0.0,0.0,0.0,0.0,0.0,0.0,0.0,0.0,0.0,0.0,0.0,0.0,0.0,0.0,0.0,0.0,0.0,0.0,0.0,0.0,0.0,0.0,0.0,0.0,0.0,0.0,0.0,0.0,0.0,0.0,0.0,0.0,0.0,0.0,0.0,0.0,0.0,0.0,0.0,0.0,0.0,0.0,0.0,0.0,0.0,0.0,0.0,0.0,0.0,0.0,0.0,0.0,0.0,0.0,0.0,0.0,0.0,0.0,0.0,0.0,0.0,0.0,0.0,0.0,0.0,0.0,0.0,0.0,0.0,0.0,0.0,0.0,0.0,0.0,0.0,0.0,0.0,0.0,0.0,0.0,0.0,0.0,0.0,0.0,0.0,0.0,0.0,0.0,0.0,0.0,0.0,0.0,0.0,0.0,0.0,0.0,0.0,0.0,0.0,0.0,0.0,0.0,0.0,0.0,0.0,0.0,0.0,0.0,0.0,0.0,0.0,0.0,0.0,0.0,0.0,0.0,0.0,0.0,0.0,0.0,0.0,0.0,0.0,0.0,0.0,0.0,0.0,0.0,0.0,0.0,0.0,0.0,0.0,0.0,0.0,0.0,0.0,0.0,0.0,0.0,0.0,0.0,0.0,0.0,0.0,0.0,0.0,0.0,0.0,0.0,0.0,0.0,0.0,0.0,0.0,0.0,0.0,0.0,0.0,0.0,0.0,0.0,0.0,0.0,0.0,0.0,0.0,0.0,0.0,0.0,0.0,0.0,0.0,0.0,0.0,0.0,0.0,0.0,0.0,0.0,0.0,0.0,0.0,0.0,0.0,0.0,0.0,0.0,0.0,0.0,0.0,0.0,0.0,0.0,0.0,0.0,0.0,0.0,0.0,0.0,0.0,0.0,0.0,0.0,0.0,0.0,0.0,0.0,0.0,0.0,0.0,0.0,0.0,0.0,0.0,0.0,0.0,0.0,0.0,0.0,0.0,0.0,0.0,0.0,0.0,0.0,0.0,0.0,0.0,0.0,0.0,0.0,0.0,0.0,0.0,0.0,0.0,0.0,0.0,0.0,0.0,0.0,0.0,0.0,0.0,0.0,0.0,0.0,0.0,0.0,0.0,0.0,0.0,0.0,0.0,0.0,0.0,0.0,0.0,0.0,0.0,0.0,0.0,0.0,0.0,0.0,0.0,0.0,0.0,0.0,0.0,0.0,0.0,0.0,0.0,0.0,0.0,0.0,0.0,0.0,0.0,0.0,0.0,0.0,0.0,-3.9488,0.0,0.0,0.0,0.0,0.0,0.0,0.0,0.0,0.0,0.0,0.0,0.0,0.0,0.0,0.0,0.0,0.0,0.0,0.0,0.0,0.0,0.0,0.0,0.0,0.0,0.0,0.0,0.0,0.0,0.0,0.0,0.0,0.0,0.0,0.0,0.0,0.0,0.0,0.0,0.0,0.0,0.0,0.0,0.0,0.0,0.0,0.0,0.0,0.0,0.0,0.0,0.0,0.0,0.0,0.0,0.0,0.0,0.0,0.0,0.0,0.0,0.0,0.0,0.0,0.0,0.0,0.0,0.0,0.0,0.0,0.0,0.0,0.0,0.0,0.0,0.0,0.0,0.0,0.0,0.0,0.0,0.0,0.0,0.0,0.0,0.0,0.0,0.0,0.0,0.0,0.0,0.0,0.0,0.0,0.0,0.0,0.0,0.0,0.0,0.0,0.0,0.0,0.0,0.0,0.0,0.0,0.0,0.0,0.0,0.0,-4.1421,-4.1105,-4.048,-3.9983,-3.9606,0.0,0.0,0.0,0.0,0.0,0.0,0.0,0.0,0.0,0.0,0.0,0.0,0.0,0.0,0.0,0.0,0.0,0.0,0.0,0.0,0.0,0.0,0.0,0.0,0.0,0.0,0.0,0.0,0.0,0.0,0.0,0.0,0.0,0.0,0.0,0.0,0.0,0.0,0.0,0.0,0.0,0.0,0.0,0.0,0.0,0.0,0.0,0.0,0.0,0.0,0.0,0.0,0.0,0.0,0.0,0.0,0.0,0.0,0.0,0.0,0.0,0.0,0.0,0.0,0.0,0.0,0.0,0.0,0.0,0.0,0.0,0.0,0.0,0.0,0.0,0.0,0.0,0.0,0.0,0.0,0.0,0.0,0.0,0.0,0.0,0.0,0.0,0.0,0.0,0.0,0.0,0.0,0.0,0.0,0.0,0.0,0.0,0.0,0.0,0.0,0.0,0.0,0.0,0.0,0.0,0.0,0.0,0.0,0.0,0.0,0.0,0.0,-4.0866,-4.002,-3.9607,0.0,0.0,0.0,0.0,0.0,0.0,0.0,0.0,0.0,0.0,0.0,0.0,0.0,0.0,0.0,0.0,0.0,0.0,0.0,0.0,0.0,0.0,0.0,0.0,0.0,0.0,0.0,0.0,0.0,0.0,0.0,0.0,0.0,0.0,0.0,0.0,0.0,0.0,0.0,0.0,0.0,0.0,0.0,0.0,0.0,0.0,0.0,0.0,0.0,0.0,0.0,0.0,0.0,0.0,0.0,0.0,0.0,0.0,0.0,0.0,0.0,0.0,0.0,0.0,0.0,0.0,0.0,0.0,0.0,0.0,0.0,0.0,0.0,0.0,0.0,0.0,0.0,0.0,0.0,0.0,0.0,0.0,0.0,0.0,0.0,0.0,0.0,0.0,0.0,0.0,0.0,0.0,0.0,0.0,0.0,0.0,0.0,0.0,0.0,0.0,0.0,0.0,0.0,0.0,0.0,0.0,0.0,0.0,0.0,0.0,-4.1681,-4.2415,-4.2025,0.0,-3.9447,0.0,0.0,0.0,0.0,0.0,0.0,0.0,0.0,0.0,0.0,0.0,0.0,0.0,0.0,0.0,0.0,0.0,0.0,0.0,0.0,0.0,0.0,0.0,0.0,0.0,0.0,0.0,0.0,0.0,0.0,0.0,0.0,0.0,0.0,0.0,0.0,0.0,0.0,0.0,0.0,0.0,0.0,0.0,0.0,0.0,0.0,0.0,0.0,0.0,0.0,0.0,0.0,0.0,0.0,0.0,0.0,0.0,0.0,0.0,0.0,0.0,0.0,0.0,0.0,0.0,0.0,0.0,0.0,0.0,0.0,0.0,0.0,0.0,0.0,0.0,0.0,0.0,0.0,0.0,0.0,0.0,0.0,0.0,0.0,0.0,0.0,0.0,0.0,0.0,0.0,0.0,0.0,0.0,0.0,0.0,0.0,0.0,0.0,0.0,0.0,0.0,0.0,0.0,0.0,0.0,0.0,0.0,0.0,0.0,0.0,-4.1341,-4.2181,-4.1185,-3.9826,0.0,0.0,0.0,0.0,0.0,0.0,0.0,0.0,0.0,0.0,0.0,0.0,0.0,0.0,0.0,0.0,0.0,0.0,0.0,0.0,0.0,0.0,0.0,0.0,0.0,0.0,0.0,0.0,0.0,0.0,0.0,0.0,0.0,0.0,0.0,0.0,0.0,0.0,0.0,0.0,0.0,0.0,0.0,0.0,0.0,0.0,0.0,0.0,0.0,0.0,0.0,0.0,0.0,0.0,0.0,0.0,0.0,0.0,0.0,0.0,0.0,0.0,0.0,0.0,0.0,0.0,0.0,0.0,0.0,0.0,0.0,0.0,0.0,0.0,0.0,0.0,0.0,0.0,0.0,0.0,0.0,0.0,0.0,0.0,0.0,0.0,0.0,0.0,0.0,0.0,0.0,0.0,0.0,0.0,0.0,0.0,0.0,0.0,0.0,0.0,0.0,0.0,0.0,0.0,0.0,0.0,0.0,0.0,0.0,0.0,-4.0871,-4.124,-4.2181,-4.0836,-3.9313,-3.7769,0.0,0.0,0.0,0.0,0.0,0.0,0.0,0.0,0.0,0.0,0.0,0.0,0.0,0.0,0.0,0.0,0.0,0.0,0.0,0.0,0.0,0.0,0.0,0.0,0.0,0.0,0.0,0.0,0.0,0.0,0.0,0.0,0.0,0.0,0.0,0.0,0.0,0.0,0.0,0.0,0.0,0.0,0.0,0.0,0.0,0.0,0.0,0.0,0.0,0.0,0.0,0.0,0.0,0.0,0.0,0.0,0.0,0.0,0.0,0.0,0.0,0.0,0.0,0.0,0.0,0.0,0.0,0.0,0.0,0.0,0.0,0.0,0.0,0.0,0.0,0.0,0.0,0.0,0.0,0.0,0.0,0.0,0.0,0.0,0.0,0.0,0.0,0.0,0.0,0.0,0.0,0.0,0.0,0.0,0.0,0.0,0.0,0.0,0.0,0.0,0.0,0.0,0.0,0.0,0.0,0.0,0.0,0.0,-4.2484,-4.1484,-4.1595,-4.3042,-4.1678,-4.0363,0.0,0.0,0.0,0.0,0.0,0.0,0.0,0.0,0.0,0.0,0.0,0.0,0.0,0.0,0.0,0.0,0.0,0.0,0.0,0.0,0.0,0.0,0.0,0.0,0.0,0.0,0.0,0.0,0.0,0.0,0.0,0.0,0.0,0.0,0.0,0.0,0.0,0.0,0.0,0.0,0.0,0.0,0.0,0.0,0.0,0.0,0.0,0.0,0.0,0.0,0.0,0.0,0.0,0.0,0.0,0.0,0.0,0.0,0.0,0.0,0.0,0.0,0.0,0.0,0.0,0.0,0.0,0.0,0.0,0.0,0.0,0.0,0.0,0.0,0.0,0.0,0.0,0.0,0.0,0.0,0.0,0.0,0.0,0.0,0.0,0.0,0.0,0.0,0.0,0.0,0.0,0.0,0.0,0.0,0.0,0.0,0.0,0.0,0.0,0.0,0.0,0.0,0.0,0.0,0.0,0.0,0.0,0.0,0.0,-4.0634,-4.081,-4.1371,-4.2319,-4.0922,-3.9915,0.0,0.0,0.0,0.0,0.0,0.0,0.0,0.0,0.0,0.0,0.0,0.0,0.0,0.0,0.0,0.0,0.0,0.0,0.0,0.0,0.0,0.0,0.0,0.0,0.0,0.0,0.0,0.0,0.0,0.0,0.0,0.0,0.0,0.0,0.0,0.0,0.0,0.0,0.0,0.0,0.0,0.0,0.0,0.0,0.0,0.0,0.0,0.0,0.0,0.0,0.0,0.0,0.0,0.0,0.0,0.0,0.0,0.0,0.0,0.0,0.0,0.0,0.0,0.0,0.0,0.0,0.0,0.0,0.0,0.0,0.0,0.0,0.0,0.0,0.0,0.0,0.0,0.0,0.0,0.0,0.0,0.0,0.0,0.0,0.0,0.0,0.0,0.0,0.0,0.0,0.0,0.0,0.0,0.0,0.0,0.0,0.0,0.0,0.0,0.0,0.0,0.0,0.0,0.0,0.0,0.0,0.0,0.0,0.0,-3.9954,0.0,-4.1371,-4.1561,-4.0371,-3.9399,0.0,0.0,0.0,0.0,0.0,0.0,0.0,0.0,0.0,0.0,0.0,0.0,0.0,0.0,0.0,0.0,0.0,0.0,0.0,0.0,0.0,0.0,0.0,0.0,0.0,0.0,0.0,0.0,0.0,0.0,0.0,0.0,0.0,0.0,0.0,0.0,0.0,0.0,0.0,0.0,0.0,0.0,0.0,0.0,0.0,0.0,0.0,0.0,0.0,0.0,0.0,0.0,0.0,0.0,0.0,0.0,0.0,0.0,0.0,0.0,0.0,0.0,0.0,0.0,0.0,0.0,0.0,0.0,0.0,0.0,0.0,0.0,0.0,0.0,0.0,0.0,0.0,0.0,0.0,0.0,0.0,0.0,0.0,0.0,0.0,0.0,0.0,0.0,0.0,0.0,0.0,0.0,0.0,0.0,0.0,0.0,0.0,0.0,0.0,0.0,0.0,0.0,0.0,0.0,0.0,0.0,0.0,0.0,-3.992,-4.0836,-4.1526,-4.1578,-4.094,-4.0112,-3.8917,0.0,0.0,0.0,0.0,0.0,0.0,0.0,0.0,0.0,0.0,0.0,0.0,0.0,0.0,0.0,0.0,0.0,0.0,0.0,0.0,0.0,0.0,0.0,0.0,0.0,0.0,0.0,0.0,0.0,0.0,0.0,0.0,0.0,0.0,0.0,0.0,0.0,0.0,0.0,0.0,0.0,0.0,0.0,0.0,0.0,0.0,0.0,0.0,0.0,0.0,0.0,0.0,0.0,0.0,0.0,0.0,0.0,0.0,0.0,0.0,0.0,0.0,0.0,0.0,0.0,0.0,0.0,0.0,0.0,0.0,0.0,0.0,0.0,0.0,0.0,0.0,0.0,0.0,0.0,0.0,0.0,0.0,0.0,0.0,0.0,0.0,0.0,0.0,0.0,0.0,0.0,0.0,0.0,0.0,0.0,0.0,0.0,0.0,0.0,0.0,0.0,0.0,0.0,0.0,0.0,0.0,0.0,0.0,0.0,-4.0043,-4.0302,-4.1078,-4.2302,-4.01,-3.9015,0.0,0.0,0.0,0.0,0.0,0.0,0.0,0.0,0.0,0.0,0.0,0.0,0.0,0.0,0.0,0.0,0.0,0.0,0.0,0.0,0.0,0.0,0.0,0.0,0.0,0.0,0.0,0.0,0.0,0.0,0.0,0.0,0.0,0.0,0.0,0.0,0.0,0.0,0.0,0.0,0.0,0.0,0.0,0.0,0.0,0.0,0.0,0.0,0.0,0.0,0.0,0.0,0.0,0.0,0.0,0.0,0.0,0.0,0.0,0.0,0.0,0.0,0.0,0.0,0.0,0.0,0.0,0.0,0.0,0.0,0.0,0.0,0.0,0.0,0.0,0.0,0.0,0.0,0.0,0.0,0.0,0.0,0.0,0.0,0.0,0.0,0.0,0.0,0.0,0.0,0.0,0.0,0.0,0.0,0.0,0.0,0.0,0.0,0.0,0.0,0.0,0.0,0.0,0.0,0.0,0.0,0.0,0.0,0.0,-3.9764,-4.0288,-4.0999,-4.1953,-3.9894,-3.8888,-3.8863,0.0,0.0,0.0,0.0,0.0,0.0,0.0,0.0,0.0,0.0,0.0,0.0,0.0,0.0,0.0,0.0,0.0,0.0,0.0,0.0,0.0,0.0,0.0,0.0,0.0,0.0,0.0,0.0,0.0,0.0,0.0,0.0,0.0,0.0,0.0,0.0,0.0,0.0,0.0,0.0,0.0,0.0,0.0,0.0,0.0,0.0,0.0,0.0,0.0,0.0,0.0,0.0,0.0,0.0,0.0,0.0,0.0,0.0,0.0,0.0,0.0,0.0,0.0,0.0,0.0,0.0,0.0,0.0,0.0,0.0,0.0,0.0,0.0,0.0,0.0,0.0,0.0,0.0,0.0,0.0,0.0,0.0,0.0,0.0,0.0,0.0,0.0,0.0,0.0,0.0,0.0,0.0,0.0,0.0,0.0,0.0,0.0,0.0,0.0,0.0,0.0,0.0,0.0,0.0,0.0,0.0,0.0,0.0,-3.9916,-4.1256,-4.1372,-4.012,-3.9674,-3.8516,0.0,0.0,0.0,0.0,0.0,0.0,0.0,0.0,0.0,0.0,0.0,0.0,0.0,0.0,0.0,0.0,0.0,0.0,0.0,0.0,0.0,0.0,0.0,0.0,0.0,0.0,0.0,0.0,0.0,0.0,0.0,0.0,0.0,0.0,0.0,0.0,0.0,0.0,0.0,0.0,0.0,0.0,0.0,0.0,0.0,0.0,0.0,0.0,0.0,0.0,0.0,0.0,0.0,0.0,0.0,0.0,0.0,0.0,0.0,0.0,0.0,0.0,0.0,0.0,0.0,0.0,0.0,0.0,0.0,0.0,0.0,0.0,0.0,0.0,0.0,0.0,0.0,0.0,0.0,0.0,0.0,0.0,0.0,0.0,0.0,0.0,0.0,0.0,0.0,0.0,0.0,0.0,0.0,0.0,0.0,0.0,0.0,0.0,0.0,0.0,0.0,0.0,0.0,0.0,0.0,0.0,0.0,0.0,0.0,-3.9224,-4.0595,-4.1377,-4.1435,-3.9305,-3.8077,0.0,0.0,0.0,0.0,0.0,0.0,0.0,0.0,0.0,0.0,0.0,0.0,0.0,0.0,0.0,0.0,0.0,0.0,0.0,0.0,0.0,0.0,0.0,0.0,0.0,0.0,0.0,0.0,0.0,0.0,0.0,0.0,0.0,0.0,0.0,0.0,0.0,0.0,0.0,0.0,0.0,0.0,0.0,0.0,0.0,0.0,0.0,0.0,0.0,0.0,0.0,0.0,0.0,0.0,0.0,0.0,0.0,0.0,0.0,0.0,0.0,0.0,0.0,0.0,0.0,0.0,0.0,0.0,0.0,0.0,0.0,0.0,0.0,0.0,0.0,0.0,0.0,0.0,0.0,0.0,0.0,0.0,0.0,0.0,0.0,0.0,0.0,0.0,0.0,0.0,0.0,0.0,0.0,0.0,0.0,0.0,0.0,0.0,0.0,0.0,0.0,0.0,0.0,0.0,0.0,0.0,0.0,0.0,-3.7042,-3.8885,-3.9802,-4.0659,-4.1516,-3.9778,-3.8463,0.0,0.0,0.0,0.0,0.0,0.0,0.0,0.0,0.0,0.0,0.0,0.0,0.0,0.0,0.0,0.0,0.0,0.0,0.0,0.0,0.0,0.0,0.0,0.0,0.0,0.0,0.0,0.0,0.0,0.0,0.0,0.0,0.0,0.0,0.0,0.0,0.0,0.0,0.0,0.0,0.0,0.0,0.0,0.0,0.0,0.0,0.0,0.0,0.0,0.0,0.0,0.0,0.0,0.0,0.0,0.0,0.0,0.0,0.0,0.0,0.0,0.0,0.0,0.0,0.0,0.0,0.0,0.0,0.0,0.0,0.0,0.0,0.0,0.0,0.0,0.0,0.0,0.0,0.0,0.0,0.0,0.0,0.0,0.0,0.0,0.0,0.0,0.0,0.0,0.0,0.0,0.0,0.0,0.0,0.0,0.0,0.0,0.0,0.0,0.0,0.0,0.0,0.0,0.0,0.0,0.0,0.0,0.0,-3.7172,-3.8663,-3.8852,-3.9474,-4.0557,-4.0369,-3.9098,0.0,0.0,0.0,0.0,0.0,0.0,0.0,0.0,0.0,0.0,0.0,0.0,0.0,0.0,0.0,0.0,0.0,0.0,0.0,0.0,0.0,0.0,0.0,0.0,0.0,0.0,0.0,0.0,0.0,0.0,0.0,0.0,0.0,0.0,0.0,0.0,0.0,0.0,0.0,0.0,0.0,0.0,0.0,0.0,0.0,0.0,0.0,0.0,0.0,0.0,0.0,0.0,0.0,0.0,0.0,0.0,0.0,0.0,0.0,0.0,0.0,0.0,0.0,0.0,0.0,0.0,0.0,0.0,0.0,0.0,0.0,0.0,0.0,0.0,0.0,0.0,0.0,0.0,0.0,0.0,0.0,0.0,0.0,0.0,0.0,0.0,0.0,0.0,0.0,0.0,0.0,0.0,0.0,0.0,0.0,0.0,0.0,0.0,0.0,0.0,0.0,0.0,0.0,0.0,0.0,0.0,0.0,0.0,-3.6066,-3.7964,-3.8585,-3.8989,-3.9253,-3.8685,-3.7779,0.0,0.0,0.0,0.0,0.0,0.0,0.0,0.0,0.0,0.0,0.0,0.0,0.0,0.0,0.0,0.0,0.0,0.0,0.0,0.0,0.0,0.0,0.0,0.0,0.0,0.0,0.0,0.0,0.0,0.0,0.0,0.0,0.0,0.0,0.0,0.0,0.0,0.0,0.0,0.0,0.0,0.0,0.0,0.0,0.0,0.0,0.0,0.0,-3.4154,0.0,0.0,0.0,0.0,0.0,0.0,0.0,0.0,0.0,0.0,0.0,0.0,0.0,0.0,0.0,0.0,0.0,0.0,0.0,0.0,0.0,0.0,0.0,0.0,0.0,0.0,0.0,0.0,0.0,0.0,0.0,0.0,0.0,0.0,0.0,0.0,0.0,0.0,0.0,0.0,0.0,0.0,0.0,0.0,0.0,0.0,0.0,0.0,0.0,0.0,0.0,0.0,0.0,0.0,0.0,0.0,0.0,0.0,0.0,-3.5566,-3.7621,-3.7975,-3.833,-3.8592,-3.799,-3.7156,0.0,0.0,0.0,0.0,0.0,0.0,0.0,0.0,0.0,0.0,0.0,0.0,0.0,0.0,0.0,0.0,0.0,0.0,0.0,0.0,0.0,0.0,0.0,0.0,0.0,0.0,0.0,0.0,0.0,0.0,0.0,0.0,0.0,0.0,0.0,0.0,0.0,0.0,0.0,0.0,0.0,0.0,0.0,0.0,0.0,0.0,0.0,0.0,0.0,0.0,0.0,0.0,0.0,0.0,0.0,0.0,0.0,0.0,0.0,0.0,0.0,0.0,0.0,0.0,0.0,0.0,0.0,0.0,0.0,0.0,0.0,0.0,0.0,0.0,0.0,0.0,0.0,0.0,0.0,0.0,0.0,0.0,0.0,0.0,0.0,0.0,0.0,0.0,0.0,0.0,0.0,0.0,0.0,0.0,0.0,0.0,0.0,0.0,0.0,0.0,0.0,0.0,0.0,0.0,0.0,0.0,0.0,-3.458,-3.5399,-3.7261,-3.7446,-3.7723,-3.8185,-3.7754,-3.6815,-3.5383,0.0,0.0,0.0,0.0,0.0,0.0,0.0,0.0,0.0,0.0,0.0,0.0,0.0,0.0,0.0,0.0,0.0,0.0,0.0,0.0,0.0,0.0,0.0,0.0,0.0,0.0,0.0,0.0,0.0,0.0,0.0,0.0,0.0,0.0,0.0,0.0,0.0,0.0,-3.2576,-3.3321,0.0,0.0,0.0,0.0,0.0,0.0,0.0,0.0,-3.5294,0.0,0.0,0.0,0.0,0.0,0.0,0.0,0.0,0.0,0.0,0.0,0.0,0.0,0.0,0.0,0.0,0.0,0.0,0.0,0.0,0.0,0.0,0.0,0.0,0.0,0.0,0.0,0.0,0.0,0.0,0.0,0.0,0.0,0.0,0.0,0.0,0.0,0.0,0.0,0.0,0.0,0.0,0.0,0.0,0.0,0.0,0.0,0.0,0.0,0.0,0.0,0.0,0.0,0.0,0.0,0.0,-3.5276,-3.4752,-3.5183,-3.6615,-3.7215,-3.7277,-3.6861,-3.7261,-3.6521,-3.4574,0.0,0.0,0.0,0.0,0.0,0.0,0.0,0.0,0.0,0.0,0.0,0.0,0.0,0.0,0.0,0.0,0.0,0.0,0.0,0.0,0.0,0.0,0.0,0.0,0.0,0.0,0.0,0.0,0.0,0.0,0.0,0.0,0.0,0.0,0.0,0.0,0.0,0.0,0.0,-3.4188,-3.5013,0.0,0.0,0.0,0.0,0.0,0.0,0.0,0.0,-3.4699,0.0,0.0,0.0,0.0,0.0,0.0,0.0,0.0,0.0,0.0,0.0,0.0,0.0,0.0,0.0,0.0,0.0,0.0,0.0,0.0,0.0,0.0,0.0,0.0,0.0,0.0,0.0,0.0,0.0,0.0,0.0,0.0,0.0,0.0,0.0,0.0,0.0,0.0,0.0,0.0,0.0,0.0,0.0,0.0,0.0,0.0,0.0,0.0,0.0,0.0,0.0,0.0,0.0,0.0,0.0,-3.4306,-3.4445,-3.5122,-3.6445,-3.6815,-3.683,-3.6507,-3.6461,-3.5769,0.0,0.0,0.0,0.0,0.0,0.0,0.0,0.0,0.0,0.0,0.0,0.0,0.0,0.0,0.0,0.0,0.0,0.0,0.0,0.0,0.0,0.0,0.0,0.0,0.0,0.0,0.0,0.0,0.0,0.0,0.0,0.0,0.0,0.0,0.0,0.0,0.0,0.0,0.0,0.0,-3.4728,-3.5404,-3.5848,0.0,0.0,0.0,0.0,0.0,0.0,-3.4571,-3.4591,0.0,0.0,0.0,0.0,0.0,0.0,0.0,0.0,0.0,0.0,0.0,0.0,0.0,0.0,0.0,0.0,0.0,0.0,0.0,0.0,0.0,0.0,0.0,0.0,0.0,0.0,0.0,0.0,0.0,0.0,0.0,0.0,0.0,0.0,0.0,0.0,0.0,0.0,0.0,0.0,0.0,0.0,0.0,0.0,0.0,0.0,0.0,0.0,0.0,0.0,0.0,0.0,0.0,0.0,0.0,-3.3383,-3.4245,-3.526,-3.643,-3.6492,-3.6492,-3.6476,-3.5845,-3.4971,0.0,0.0,0.0,0.0,0.0,0.0,0.0,0.0,0.0,0.0,0.0,0.0,0.0,0.0,0.0,0.0,0.0,0.0,0.0,0.0,0.0,0.0,0.0,0.0,0.0,0.0,0.0,0.0,0.0,0.0,0.0,0.0,0.0,0.0,0.0,0.0,0.0,0.0,0.0,0.0,0.0,-3.5476,-3.5505,-3.5641,0.0,0.0,0.0,0.0,-3.4709,-3.4744,0.0,0.0,0.0,0.0,0.0,0.0,0.0,0.0,0.0,0.0,0.0,0.0,0.0,0.0,0.0,0.0,0.0,0.0,0.0,0.0,0.0,0.0,0.0,0.0,0.0,0.0,0.0,0.0,0.0,0.0,0.0,0.0,0.0,0.0,0.0,0.0,0.0,0.0,0.0,0.0,0.0,0.0,0.0,0.0,0.0,0.0,0.0,0.0,0.0,0.0,0.0,0.0,0.0,0.0,0.0,0.0,-3.3429,-3.4706,-3.5722,-3.6445,-3.6492,-3.6492,-3.6492,-3.5677,-3.4546,0.0,0.0,0.0,0.0,0.0,0.0,0.0,0.0,0.0,0.0,0.0,0.0,0.0,0.0,0.0,0.0,0.0,0.0,0.0,0.0,0.0,0.0,0.0,0.0,0.0,0.0,0.0,0.0,0.0,0.0,0.0,0.0,0.0,0.0,0.0,0.0,0.0,0.0,0.0,0.0,0.0,-3.5339,-3.4787,-3.5309,-3.5228,0.0,0.0,-3.5375,-3.4627,-3.5027,0.0,0.0,0.0,0.0,0.0,0.0,0.0,0.0,0.0,0.0,0.0,0.0,0.0,0.0,0.0,0.0,0.0,0.0,0.0,0.0,0.0,0.0,0.0,0.0,0.0,0.0,0.0,0.0,0.0,0.0,0.0,0.0,0.0,0.0,0.0,0.0,0.0,0.0,0.0,0.0,0.0,0.0,0.0,0.0,0.0,0.0,0.0,0.0,0.0,0.0,0.0,0.0,0.0,0.0,0.0,-3.1782,-3.2829,-3.3798,-3.477,-3.5723,-3.5401,-3.5156,-3.508,-3.4363,-3.3452,0.0,0.0,0.0,0.0,0.0,0.0,0.0,0.0,0.0,0.0,0.0,0.0,0.0,0.0,0.0,0.0,0.0,0.0,0.0,0.0,0.0,0.0,0.0,0.0,0.0,0.0,0.0,0.0,0.0,0.0,0.0,0.0,0.0,0.0,0.0,0.0,0.0,0.0,0.0,0.0,0.0,0.0,-3.5033,-3.5362,0.0,0.0,0.0,-3.5292,-3.4562,0.0,0.0,0.0,0.0,0.0,0.0,0.0,0.0,0.0,0.0,0.0,0.0,0.0,0.0,0.0,0.0,0.0,0.0,0.0,0.0,0.0,0.0,0.0,0.0,0.0,0.0,0.0,0.0,0.0,0.0,0.0,0.0,0.0,0.0,0.0,0.0,0.0,0.0,0.0,0.0,0.0,0.0,0.0,0.0,0.0,0.0,0.0,0.0,0.0,0.0,0.0,0.0,0.0,0.0,0.0,0.0,0.0,-3.2367,-3.3157,-3.4127,-3.5126,-3.4545,-3.4089,-3.397,-3.2989,0.0,0.0,0.0,0.0,0.0,0.0,0.0,0.0,0.0,0.0,0.0,0.0,0.0,0.0,0.0,0.0,0.0,0.0,0.0,0.0,0.0,0.0,0.0,0.0,0.0,0.0,0.0,-2.4728,0.0,0.0,0.0,0.0,0.0,0.0,0.0,0.0,0.0,0.0,0.0,0.0,0.0,0.0,-3.408,-3.4522,-3.4889,-3.4625,0.0,0.0,-3.4951,-3.4252,-3.4751,-3.4787,0.0,0.0,0.0,0.0,0.0,0.0,0.0,0.0,0.0,0.0,0.0,0.0,0.0,0.0,0.0,0.0,0.0,0.0,0.0,0.0,0.0,0.0,0.0,0.0,0.0,0.0,0.0,0.0,0.0,0.0,0.0,0.0,0.0,0.0,0.0,0.0,0.0,0.0,0.0,0.0,0.0,0.0,0.0,0.0,0.0,0.0,0.0,0.0,0.0,0.0,0.0,0.0,0.0,0.0,0.0,-3.2413,-3.3575,-3.4453,-3.5141,-3.4425,-3.3985,-3.3955,-3.2094,-3.0748,0.0,0.0,0.0,0.0,0.0,0.0,0.0,0.0,0.0,0.0,0.0,0.0,0.0,0.0,0.0,0.0,0.0,0.0,0.0,0.0,0.0,0.0,0.0,0.0,0.0,0.0,0.0,0.0,0.0,0.0,0.0,0.0,0.0,0.0,0.0,0.0,0.0,0.0,0.0,0.0,0.0,-3.2522,-3.2408,-3.3518,-3.3879,0.0,0.0,-3.417,-3.3456,-3.3929,-3.3966,-3.2678,0.0,0.0,0.0,0.0,0.0,0.0,0.0,0.0,0.0,0.0,0.0,0.0,0.0,0.0,0.0,0.0,0.0,0.0,0.0,0.0,0.0,0.0,0.0,0.0,0.0,0.0,0.0,0.0,0.0,0.0,0.0,0.0,0.0,0.0,0.0,0.0,0.0,0.0,0.0,0.0,0.0,0.0,0.0,0.0,0.0,0.0,0.0,0.0,0.0,0.0,0.0,0.0,0.0,-3.0428,-3.1525,-3.1995,-3.2542,-3.3048,-3.2407,-3.1736,-3.1221,-3.0438,-2.9571,0.0,0.0,0.0,0.0,0.0,0.0,0.0,0.0,0.0,0.0,0.0,0.0,0.0,0.0,0.0,0.0,0.0,0.0,0.0,0.0,0.0,0.0,0.0,0.0,0.0,0.0,0.0,0.0,-2.4975,-2.5035,-2.5143,0.0,0.0,0.0,0.0,0.0,0.0,0.0,0.0,0.0,0.0,-3.2302,-3.23,-3.3041,0.0,0.0,-3.3419,-3.4023,-3.3371,-3.3552,-3.331,-3.2068,-3.1853,0.0,0.0,0.0,0.0,0.0,0.0,0.0,0.0,0.0,0.0,0.0,0.0,0.0,0.0,0.0,0.0,0.0,0.0,0.0,0.0,0.0,0.0,0.0,0.0,0.0,0.0,0.0,0.0,0.0,0.0,0.0,0.0,0.0,0.0,0.0,0.0,0.0,0.0,0.0,0.0,0.0,0.0,0.0,0.0,0.0,0.0,0.0,0.0,0.0,0.0,0.0,0.0,-2.9474,-3.0436,-3.0587,-3.0935,-3.15,-3.0783,-3.0061,-2.9313,-2.887,-2.8223,0.0,0.0,0.0,0.0,0.0,0.0,0.0,0.0,0.0,0.0,0.0,0.0,0.0,0.0,0.0,0.0,0.0,0.0,0.0,0.0,0.0,0.0,0.0,0.0,0.0,0.0,0.0,0.0,-2.4922,-2.4773,-2.4926,0.0,0.0,0.0,0.0,0.0,0.0,0.0,0.0,0.0,0.0,-3.1791,-3.2068,-3.2514,-3.2636,-3.1765,-3.2654,-3.3166,-3.2444,-3.2382,-3.2023,-3.0982,0.0,0.0,0.0,0.0,0.0,0.0,0.0,0.0,0.0,0.0,0.0,0.0,0.0,0.0,0.0,0.0,0.0,0.0,0.0,0.0,0.0,0.0,0.0,0.0,0.0,0.0,0.0,0.0,0.0,0.0,-3.1173,0.0,0.0,0.0,0.0,0.0,0.0,0.0,0.0,0.0,0.0,0.0,0.0,0.0,0.0,0.0,0.0,0.0,0.0,0.0,0.0,0.0,0.0,-2.9053,-2.9143,-2.9579,-3.0159,-3.0742,-2.9939,-2.9209,-2.8661,-2.752,-2.6617,-2.6044,0.0,0.0,0.0,0.0,0.0,0.0,0.0,0.0,0.0,0.0,0.0,0.0,0.0,0.0,0.0,0.0,0.0,0.0,0.0,0.0,0.0,0.0,0.0,0.0,0.0,0.0,-2.5837,-2.4805,-2.4197,0.0,0.0,0.0,0.0,0.0,0.0,0.0,0.0,0.0,0.0,-3.0405,-3.0635,-3.1178,-3.1847,-3.182,-3.0649,-3.1017,-3.1181,-3.0568,-3.0336,-2.9969,0.0,0.0,0.0,0.0,0.0,0.0,0.0,0.0,0.0,0.0,0.0,0.0,0.0,0.0,0.0,0.0,0.0,0.0,0.0,0.0,0.0,0.0,0.0,0.0,0.0,0.0,0.0,-3.1918,-3.1918,0.0,0.0,0.0,0.0,0.0,0.0,0.0,0.0,0.0,0.0,0.0,-2.8718,-2.9411,0.0,0.0,0.0,0.0,0.0,0.0,0.0,0.0,0.0,0.0,0.0,0.0,-2.8289,-2.8727,-2.8537,-2.8531,-2.8699,-2.8071,-2.7414,-2.6773,-2.6326,-2.5818,-2.5129,0.0,0.0,0.0,0.0,0.0,0.0,0.0,0.0,0.0,0.0,0.0,0.0,0.0,0.0,0.0,0.0,0.0,0.0,0.0,0.0,0.0,0.0,0.0,0.0,0.0,-2.6438,0.0,0.0,0.0,0.0,0.0,0.0,0.0,0.0,0.0,0.0,0.0,-2.7377,-2.8182,-2.9644,-3.0408,-2.9832,-3.0583,-3.0918,0.0,0.0,0.0,0.0,0.0,0.0,0.0,0.0,0.0,0.0,0.0,0.0,0.0,0.0,-2.9627,-2.7131,-2.6373,-2.6046,-2.5863,0.0,0.0,0.0,0.0,0.0,0.0,0.0,0.0,0.0,0.0,0.0,0.0,0.0,0.0,0.0,0.0,-3.2949,0.0,0.0,0.0,0.0,0.0,0.0,0.0,0.0,-2.9182,-2.9312,-2.8897,-2.9621,-2.9627,0.0,-2.9184,-2.8682,0.0,0.0,0.0,0.0,0.0,0.0,0.0,0.0,-2.7537,-2.7369,-2.7346,-2.7234,-2.7001,-2.6653,-2.6174,-2.5537,-2.5328,-2.4992,-2.4541,-2.4085,-2.3891,0.0,0.0,0.0,0.0,0.0,0.0,0.0,0.0,0.0,0.0,0.0,0.0,0.0,0.0,0.0,0.0,0.0,0.0,0.0,0.0,0.0,0.0,0.0,-2.5929,0.0,0.0,0.0,0.0,0.0,0.0,0.0,0.0,0.0,-2.5828,-2.6636,-2.7346,-2.7759,-2.9131,-2.9811,-2.9119,0.0,0.0,0.0,0.0,0.0,0.0,0.0,-2.8705,-2.8571,-2.8571,-2.8492,-2.8199,-2.8844,-2.918,-2.8546,0.0,0.0,-2.7548,-2.7157,-2.7027,-2.7027,-2.7458,-2.7719,-2.734,-2.785,-2.8268,0.0,0.0,0.0,0.0,0.0,0.0,0.0,0.0,-3.3491,-3.3474,0.0,-3.41,0.0,0.0,0.0,0.0,0.0,0.0,0.0,0.0,-2.8711,-2.8622,-2.8592,-2.8682,-2.8323,-2.782,-2.9535,-2.943,-2.7679,-2.7655,0.0,0.0,0.0,0.0,0.0,0.0,-2.6708,-2.5156,-2.6129,-2.6363,-2.5785,-2.5759,-2.5497,-2.5009,-2.4413,-2.4093,-2.4067,-2.3962,-2.3891,-2.3878,-2.3903,0.0,0.0,0.0,0.0,0.0,0.0,0.0,0.0,0.0,0.0,0.0,0.0,0.0,0.0,0.0,0.0,0.0,0.0,0.0,0.0,-2.4975,0.0,0.0,0.0,0.0,0.0,0.0,0.0,0.0,0.0,0.0,-2.6153,-2.6764,-2.764,-2.8745,0.0,0.0,0.0,0.0,-2.9453,-2.8266,-2.8559,-2.8732,-2.8186,-2.7947,-2.7789,-2.7789,0.0,0.0,-2.6883,-2.7249,-2.7497,-2.6857,-2.6739,-2.7189,-2.9404,-2.9223,-2.9065,-2.9065,-2.8634,-2.8386,-2.8291,-2.817,-2.8235,-3.6927,0.0,0.0,0.0,0.0,-3.4184,-3.4489,-3.4979,-3.4979,-3.4675,-3.415,-3.3846,0.0,0.0,0.0,0.0,0.0,0.0,-2.8563,-2.8021,-2.9019,-2.9162,-2.8622,-2.9535,-2.9639,-2.9026,-2.9101,-2.8846,-2.8308,-2.7814,-2.756,-2.756,0.0,0.0,0.0,0.0,-2.6495,-2.5643,-2.5526,-2.5373,-2.5197,-2.4818,-2.4517,-2.436,-2.4099,-2.3878,-2.3747,-2.3641,-2.3535,-2.3522,-2.3403,0.0,0.0,0.0,0.0,0.0,0.0,0.0,0.0,0.0,0.0,0.0,0.0,0.0,0.0,0.0,0.0,0.0,0.0,0.0,-2.4909,-2.4975,-2.4975,0.0,0.0,0.0,0.0,0.0,0.0,0.0,0.0,0.0,-2.5923,-2.6435,-2.7078,0.0,0.0,-2.8447,-2.7971,-2.8473,-2.8578,-2.7761,0.0,0.0,0.0,-2.7723,-2.7789,-2.759,-2.793,-2.8216,-2.849,-2.8673,-2.8443,-2.7352,-2.7359,-2.7573,-2.7234,-2.7256,-2.7416,-2.7828,-2.7777,-2.7583,-2.7596,-2.7231,-2.7076,-3.887,-3.6265,-3.5977,-3.5673,-3.5402,-3.5402,-3.5487,-3.5639,-3.5639,-3.5368,-3.4928,-3.481,-3.3599,-3.1575,-3.0455,0.0,0.0,0.0,-2.8145,-2.8008,-2.8651,-2.8816,-2.8652,-2.9385,-2.9415,-2.8801,-2.8667,-2.8457,-2.8173,-2.7769,-2.756,-2.756,0.0,0.0,-2.6336,-2.6351,-2.5924,-2.5132,-2.5081,-2.4895,-2.4668,-2.4295,-2.4125,-2.4125,-2.3949,-2.3832,-2.376,-2.3522,-2.3301,-2.3086,-2.3157,-2.2905,0.0,0.0,0.0,0.0,0.0,0.0,0.0,0.0,0.0,0.0,0.0,-2.3412,0.0,0.0,0.0,0.0,-2.2911,-2.3545,-2.4543,-2.4635,0.0,0.0,0.0,0.0,0.0,0.0,0.0,-2.3721,-2.4532,-2.4961,-2.4722,-2.5563,-2.653,-2.7378,-2.7553,-2.7562,-2.7509,0.0,-2.7915,-2.7575,-2.7469,-2.7469,-2.7536,-2.759,-2.7656,-2.7523,-2.7811,-2.8033,-2.819,-2.8105,-2.7528,-2.6577,-2.6087,-2.5776,-2.5308,-2.5063,-2.5387,-2.6728,-2.6816,-2.6611,-2.6611,-2.6328,-2.6186,-4.0375,-3.9039,-3.8345,-3.7567,-3.6806,-3.684,-3.6383,-3.5639,-3.569,-3.569,-3.5673,-3.6253,-3.5279,-3.2966,-3.0421,0.0,-2.779,-2.7675,-2.7904,-2.8487,-2.7874,-2.7904,-2.8517,-2.8517,-2.8188,-2.764,-2.8218,-2.8188,-2.7655,-2.7575,-2.756,-2.7524,-2.693,-2.6351,-2.5851,-2.5797,-2.5203,-2.4112,-2.462,-2.4677,-2.4112,-2.4112,-2.4067,-2.4054,-2.3897,-2.3767,-2.3767,-2.3467,-2.3035,-2.2553,-2.2997,-2.271,-2.1574,0.0,0.0,0.0,0.0,0.0,0.0,0.0,0.0,0.0,0.0,0.0,0.0,0.0,0.0,0.0,-2.2626,0.0,-2.4002,-2.4054,0.0,0.0,0.0,-2.3982,-2.3936,-2.3412,-2.3027,-2.3027,0.0,0.0,-2.3071,0.0,-2.5753,-2.7035,-2.6773,-2.662,-2.7323,-2.7469,-2.751,-2.7445,-2.7497,-2.7443,-2.7419,-2.7406,-2.7406,-2.7406,-2.7352,-2.7051,-2.6635,-2.6049,-2.5375,-2.4726,-2.3568,-2.2945,-2.3568,-2.3068,-2.3213,-2.5373,-2.555,-2.5341,-2.5317,-2.5117,-2.4963,-4.0663,-3.98,-3.9631,-3.8481,-3.6857,-3.7398,-3.6874,-3.569,-3.6248,-3.618,-3.556,-3.4685,-3.2863,-3.0339,-2.8835,-2.8008,-2.7625,-2.7625,-2.7664,-2.7799,-2.77,-2.7715,-2.7814,-2.7814,-2.7724,-2.764,-2.7754,-2.7775,-2.7625,-2.756,-2.7357,-2.6893,-2.6336,-2.5946,-2.5797,-2.5425,-2.4835,-2.4125,-2.4229,-2.4171,-2.3949,-2.3949,-2.3891,-2.3747,-2.3218,-2.2885,-2.2885,-2.2293,-2.1889,-2.1763,-2.1876,-2.1625,-2.0957,-2.1046,0.0,0.0,0.0,0.0,0.0,0.0,0.0,0.0,0.0,-2.2317,-2.2115,0.0,-2.1905,0.0,-2.2916,-2.3428,-2.3675,-2.3878,0.0,0.0,-2.3292,-2.316,-2.2665,-2.2408,-2.2347,-2.2347,-2.2896,-2.3186,-2.2995,-2.3221,-2.3716,-2.4595,-2.5672,-2.6496,-2.6701,-2.7188,-2.7366,-2.7013,-2.7236,-2.7366,-2.6961,-2.687,-2.687,-2.6883,-2.6103,-2.5408,-2.5281,-2.4726,-2.402,-2.3368,-2.2954,-2.2571,-2.2207,-2.1687,-2.1542,-2.2093,-2.28,-2.3395,-2.3395,-2.2708,-2.206,-4.0578,-3.9631,-3.9952,-3.8853,-3.6971,-3.7618,-3.7026,-3.5707,-3.6451,-3.618,-3.4931,-3.3226,-3.1355,-2.9521,-2.8544,-2.7925,-2.7625,-2.756,-2.746,-2.7141,-2.7141,-2.7141,-2.7126,-2.7175,-2.7325,-2.756,-2.756,-2.756,-2.756,-2.756,-2.7321,-2.6683,-2.6068,-2.5618,-2.5287,-2.4821,-2.4447,-2.4112,-2.4054,-2.4008,-2.3878,-2.3586,-2.3373,-2.3244,-2.2579,-2.2185,-2.2185,-2.1769,-2.138,-2.1142,-2.1355,-2.1129,-2.0338,-2.058,-2.0401,0.0,0.0,0.0,0.0,0.0,0.0,0.0,0.0,0.0,0.0,0.0,-2.167,-2.2093,-2.2159,-2.2298,-2.2665,-2.2811,-2.275,-2.2494,-2.2421,-2.2347,-2.2113,-2.1803,-2.1565,-2.1678,-2.195,-2.2063,-2.1765,-2.2039,-2.2361,-2.2495,-2.3792,-2.4988,-2.5594,-2.6059,-2.6297,-2.6296,-2.6569,-2.6531,-2.5975,-2.5872,-2.5743,-2.5445,-2.5075,-2.4657,-2.4099,-2.3458,-2.281,-2.2151,-2.1775,-2.1453,-2.0994,-2.074,-2.05,-2.0402,-2.0853,-2.1408,-2.1509,-2.0875,-2.0248,-4.024,-3.9056,-3.9715,-3.8885,-3.7136,-3.7597,-3.6941,-3.5611,-3.6185,-3.5446,-3.3768,-3.1867,-3.043,-2.9422,-2.8709,-2.8046,-2.749,-2.7505,-2.7081,-2.6482,-2.6467,-2.6467,-2.6467,-2.6467,-2.6767,-2.7305,-2.732,-2.732,-2.732,-2.7255,-2.6901,-2.628,-2.5791,-2.5177,-2.446,-2.4163,-2.4054,-2.4054,-2.3949,-2.3832,-2.3832,-2.3212,-2.286,-2.2713,-2.2064,-2.1652,-2.1534,-2.1373,-2.1054,-2.0668,-2.1016,-2.0828,-1.9874,-2.0275,-2.0326,0.0,-1.9798,0.0,0.0,0.0,0.0,0.0,0.0,0.0,0.0,-2.133,-2.1604,-2.1533,-2.0959,-2.0815,-2.1444,-2.1553,-2.1628,-2.169,-2.1553,-2.1542,-2.1729,-2.1198,-2.0828,-2.0944,-2.0944,-2.0752,-2.0303,-2.0994,-2.1384,-2.1041,-2.1767,-2.2889,-2.4017,-2.4541,-2.4924,-2.5407,-2.5456,-2.5192,-2.4809,-2.4618,-2.4375,-2.3896,-2.3916,-2.3974,-2.2895,-2.218,-2.1575,-2.1081,-2.0584,-2.0161,-2.002,-1.9998,-1.9857,-1.9572,-1.9748,-1.9976,-1.9954,-1.9683,-1.9323,-3.9783,-3.9005,-3.914,-3.841,-3.7102,-3.7039,-3.6422,-3.5391,-3.4568,-3.3094,-3.1304,-3.032,-2.9469,-2.8776,-2.8062,-2.7409,-2.6782,-2.6782,-2.6422,-2.5794,-2.5794,-2.5794,-2.5794,-2.5794,-2.5854,-2.5974,-2.5878,-2.5816,-2.583,-2.5316,-2.4791,-2.4221,-2.4109,-2.3817,-2.3236,0.0,0.0,0.0,-2.3688,-2.3569,-2.3522,-2.3361,-2.3022,-2.2438,-2.1838,0.0,-2.0882,-2.0363,-2.0075,-1.9974,-2.0062,0.0,0.0,0.0,0.0,0.0,0.0,0.0,0.0,0.0,0.0,0.0,-1.974,-2.0305,-2.0689,-2.1033,-2.107,-2.0754,-2.0919,-2.102,-2.1175,-2.1325,-2.1262,-2.0741,-2.0719,-2.0602,-2.0172,-2.0064,-2.0118,-2.0118,-2.0194,-2.027,-2.0151,-2.0292,-2.0402,-2.0314,-2.0424,-2.0915,-2.169,-2.3059,-2.3823,-2.3622,-2.3587,-2.3683,-2.3945,-2.3587,-2.3256,-2.3103,-2.2297,-2.1794,-2.1522,-2.0986,-2.0467,-2.0313,-2.0205,-1.9944,-1.9637,-1.955,-1.9508,-1.9378,-1.9432,-1.9367,-1.9058,-1.8951,-1.8805,-3.9106,0.0,-3.8058,-3.7297,0.0,-3.6248,-3.5886,-3.527,-3.4466,-3.2838,-3.0585,-2.9441,-2.8629,-2.8083,-2.7724,-2.7395,-2.7051,-2.6722,-2.6243,-2.56,-2.527,-2.5121,-2.5136,-2.5121,-2.5254,-2.5506,-2.5191,-2.5047,-2.4936,-2.4383,-2.3803,-2.3212,-2.3259,-2.3076,-2.2738,-2.3111,-2.3437,-2.3616,-2.3509,-2.3463,-2.339,-2.3065,-2.2531,-2.192,0.0,0.0,0.0,0.0,0.0,0.0,0.0,0.0,0.0,0.0,0.0,-1.9798,-1.9798,-1.9798,-1.9811,-2.0062,-1.9973,-1.9396,-1.9413,-1.9782,-2.0452,-2.0551,-2.0512,-2.0329,-2.0211,-2.0096,-2.0096,-2.0161,-2.0161,-1.9922,-1.9846,-1.9781,-1.9605,-1.9615,-1.9671,-1.9736,-1.9802,-1.9878,-1.9889,-1.9813,-1.9878,-1.9878,-1.9878,-1.9998,-2.0399,-2.1537,-2.2403,-2.2495,-2.2067,-2.197,-2.2309,-2.2215,-2.1847,-2.1544,-2.1307,-2.0955,-2.0635,-2.0324,-2.002,-1.9813,-1.9911,-1.9868,-1.9163,-1.9304,-1.951,-1.8973,-1.8942,-1.8846,-1.8255,-1.8427,-1.8631,-3.8362,-3.7652,-3.7043,-3.6332,-3.5639,-3.5639,-3.5244,-3.4625,0.0,0.0,0.0,-2.8765,-2.7978,-2.761,-2.7505,-2.7445,-2.735,-2.6587,-2.5944,-2.542,-2.4747,-2.4448,-2.4448,-2.4403,-2.4626,-2.504,-2.4553,-2.4249,-2.4089,-2.3482,-2.2923,-2.2484,-2.2419,-2.2463,-2.2553,-2.2833,-2.3157,-2.3509,-2.3378,-2.333,-2.3318,-2.2757,-2.2196,-2.1644,-2.1104,-2.0539,-1.9974,-1.9849,-1.9798,-1.9798,-1.9798,-1.9798,-1.9798,-1.9798,-1.9798,-1.9798,-1.9798,-1.9798,-1.9811,-2.0238,-2.0279,-1.9746,-1.9351,-1.9423,-1.9935,-1.9951,-1.9911,-1.9911,-1.9396,-1.9131,-1.9131,-1.9131,-1.9142,-1.9274,-1.9142,-1.9198,-1.9473,-1.9407,-1.9407,-1.9539,-1.9615,-1.9615,-1.9615,-1.9615,-1.9615,-1.9615,-1.9605,-1.9615,-1.9671,-2.0346,-2.1076,-2.1423,-2.099,-2.0537,-2.064,-2.0628,-2.0384,-2.0062,-2.0284,-2.0389,-2.004,-1.9825,-1.9683,-1.9302,-1.9585,-1.9389,-1.8657,-1.8938,-1.9188,-1.8283,-1.832,-1.8291,-1.7821,-1.7942,-1.8233,-3.7635,-3.6971,-3.6823,-3.6332,-3.5639,-3.5639,-3.4259,-3.2111,-3.1806,-3.0329,-2.8017,-2.7786,-2.766,-2.753,-2.6991,-2.6722,-2.6647,-2.5465,-2.4852,0.0,-2.4073,-2.3744,-2.3744,-2.3744,-2.3761,-2.3733,-2.312,-2.2723,-2.2536,-2.1578,-2.0996,-2.0923,-2.095,-2.1445,-2.2304,-2.2397,-2.2661,-2.3173,-2.3138,-2.3138,-2.3138,-2.3062,-2.2749,-2.2209,-2.1656,-2.1117,-2.0618,-2.0062,-1.9798,-1.9798,-1.9798,-1.9798,-1.9798,-1.9798,-1.9798,-1.9798,-1.9798,-1.9798,-1.9798,-1.9874,-1.9792,-1.9529,-1.9048,-1.8682,-1.8659,-1.9057,-1.9274,-1.9264,-1.9131,-1.9131,-1.9131,-1.9131,-1.9131,-1.9142,-1.9131,-1.9142,-1.9198,-1.9274,-1.9274,-1.9341,-1.9473,-1.9605,-1.955,-1.955,-1.9539,-1.9605,-1.9539,-1.955,-1.9615,-1.9736,-1.9868,-1.9922,-1.9857,-1.9619,-1.9457,-1.9179,-1.919,-1.9062,-1.8867,-1.8916,-1.9072,-1.8932,-1.8808,-1.8646,-1.8805,-1.8659,-1.8148,-1.8067,-1.811,-1.7868,-1.7765,-1.7726,-1.7853,-1.7758,-1.7391,-3.7466,-3.6755,-3.6332,-3.5943,-3.5543,-3.4869,-3.3416,-3.1566,-3.0911,-2.9539,-2.7705,-2.756,-2.7365,-2.7021,-2.6722,-2.6393,-2.6004,-2.5061,-2.4582,-2.4522,-2.388,-2.3523,-2.3538,-2.348,-2.3407,-2.3231,-2.242,-2.1955,-2.1704,-2.0696,-2.0156,-2.0195,-2.0482,-2.0928,-2.1418,-2.202,-2.2422,-2.2686,-2.2927,-2.3125,-2.3125,-2.3125,-2.2862,-2.2322,-2.1769,-2.123,-2.0743,-2.0112,-1.9949,-2.0263,-1.9962,-1.9936,-2.0238,-1.9974,-1.9798,-1.9798,-1.9798,-1.9798,-1.9798,-1.9441,-1.9153,-1.9019,-1.8722,-1.8575,-1.8788,-1.8951,-1.9131,-1.9131,-1.9131,-1.9131,-1.9131,-1.9131,-1.9131,-1.9131,-1.9131,-1.9131,-1.9131,-1.9142,-1.9208,-1.9208,-1.9274,-1.9341,-1.9341,-1.9341,-1.9341,-1.9341,-1.933,-1.9341,-1.933,-1.9131,-1.9123,-1.9454,-1.9251,-1.8954,-1.885,-1.8617,-1.8489,-1.8509,-1.8339,-1.8286,-1.8477,-1.8369,-1.8237,-1.8023,-1.818,-1.8051,-1.7434,-1.7653,-1.7722,-1.7375,-1.7322,-1.7329,-1.7434,-1.7172,-1.6738,-3.706,-3.6451,-3.5876,-3.5639,-3.5459,-3.384,-3.2557,-3.1518,-3.0355,-2.8958,-2.7705,-2.756,-2.72,-2.6632,-2.6602,-2.6228,-2.557,-2.4926,-2.4582,-2.4507,-2.3851,-2.3509,-2.3509,-2.3363,-2.3187,-2.2828,-2.2002,-2.1465,-2.1126,-2.0245,-1.9798,-1.9849,-2.0263,-2.058,-2.0743,-2.1506,-2.1995,-2.2146,-2.2548,-2.2827,-2.3125,-2.3125,-2.2924,-2.2498,-2.197,-2.1418,-2.0865,-2.03,-2.015,-2.0426,-2.0049,-2.0012,-2.0401,-2.0049,-1.9798,-1.9798,-1.9798,-1.9798,-1.9772,-1.9064,-1.8669,-1.8625,-1.8411,-1.8448,-1.8702,-1.8858,-1.8961,-1.911,-1.9131,-1.9131,-1.9131,-1.9131,-1.9131,-1.9131,-1.9131,-1.9131,-1.9131,-1.9131,-1.9131,-1.9131,-1.9131,-1.9131,-1.9131,-1.9131,-1.9131,-1.9131,-1.9131,-1.9131,-1.9023,-1.8744,-1.8854,-1.9089,-1.8804,-1.8312,-1.8428,-1.806,-1.7829,-1.7909,-1.7793,-1.7772,-1.7825,-1.7896,-1.7694,-1.7424,-1.7594,-1.7531,-1.6916,-1.7143,-1.7368,-1.7019,-1.6888,-1.6881,-1.686,-1.6711,-1.6394,-3.5825,-3.5723,-3.5656,-3.5639,-3.5279,-3.2779,-3.1638,-3.131,-2.9548,-2.825,-2.7625,-2.756,-2.7235,-2.6647,-2.6602,-2.6228,-2.5555,-2.4926,-2.4567,-2.4477,-2.3924,-2.3566,-2.3509,-2.3466,-2.3083,-2.242,-2.1846,-2.1321,-2.0746,-2.0105,-1.9798,-1.9798,-1.9861,-2.015,-2.0614,-2.0832,-2.1079,-2.1556,-2.1619,-2.2121,-2.3062,-2.3125,-2.3053,-2.3002,-2.2523,-2.1983,-2.143,-2.0891,-2.0363,-1.9936,-1.9861,-1.9836,-1.9899,-1.9823,-1.9798,-1.9798,-1.9798,-1.9798,-1.9759,-1.8762,-1.8382,-1.8692,-1.8295,-1.7974,-1.7958,-1.8257,-1.863,-1.9027,-1.9131,-1.9131,-1.9131,-1.9131,-1.9131,-1.9131,-1.9131,-1.9131,-1.911,-1.9131,-1.9131,-1.9131,-1.9044,-1.9131,-1.9131,-1.9131,-1.9131,-1.9131,-1.9131,-1.9131,-1.9121,-1.8889,-1.8806,-1.8903,-1.835,-1.7678,-1.7428,-1.716,-1.7158,-1.7137,-1.6836,-1.6836,-1.7051,-1.6974,-1.6743,-1.6901,-1.6853,-1.692,-1.68,-1.681,-1.6738,-1.6743,-1.6566,-1.6467,-1.6446,-1.6415,-1.6374,-3.6045,-3.5639,-3.5639,-3.5324,-3.4617,-3.2734,-3.1472,-3.0656,-2.9091,-2.8076,-2.755,-2.7156,-2.6841,-2.6602,-2.6602,-2.6033,-2.4985,-2.4701,-2.4358,-2.3955,-2.357,-2.3378,-2.326,-2.3157,-2.2963,-2.2586,-2.1846,-2.1321,-2.0979,-2.0194,-1.9798,-1.9798,-1.9798,-1.9924,-2.0162,-2.0489,-2.0844,-2.1058,-2.133,-2.1719,-2.2146,-2.2472,-2.2811,-2.2977,-2.2598,-2.2221,-2.1945,-2.1443,-2.1041,-2.079,-2.0489,-2.0366,-2.03,-1.9999,-1.9798,-1.9798,-1.9798,-1.9793,-1.9797,-1.8995,-1.8726,-1.9141,-1.8542,-1.826,-1.8539,-1.8692,-1.8878,-1.9023,-1.9131,-1.9131,-1.9131,-1.9131,-1.9131,-1.9131,-1.9131,-1.8971,-1.8682,-1.8975,-1.8982,-1.8733,-1.8909,-1.9131,-1.9131,-1.9131,-1.9131,-1.9131,-1.9131,-1.911,-1.9044,-1.864,-1.8309,-1.8164,-1.7512,-1.7202,-1.7253,-1.6943,-1.6736,-1.6622,-1.6519,-1.6508,-1.655,-1.6587,-1.6477,-1.6467,-1.6534,-1.6591,-1.6566,-1.6545,-1.6477,-1.6477,-1.6477,-1.6374,-1.6374,-1.6374,-1.6374,-3.5537,-3.5013,-3.4793,-3.4496,-3.395,-3.2302,-3.1092,-3.0148,-2.8668,-2.7753,-2.728,-2.6602,-2.6318,-2.6318,-2.6318,-2.5585,-2.4477,-2.4507,-2.4194,-2.3569,-2.3363,-2.3231,-2.3082,-2.2992,-2.2783,-2.2402,-2.1752,-2.1224,-2.093,-2.0232,-1.9798,-1.9798,-1.9798,-1.9798,-1.9836,-2.0238,-2.0426,-2.0464,-2.084,-2.1104,-2.1292,-2.1656,-2.2121,-2.2598,-2.2297,-2.202,-2.1857,-2.1468,-2.1179,-2.1016,-2.0639,-2.0426,-2.0467,-2.0024,-1.9798,-1.9798,-1.9656,-1.9568,-1.9595,-1.8811,-1.8496,-1.8736,-1.8184,-1.7968,-1.8268,-1.8433,-1.8506,-1.8475,-1.863,-1.8733,-1.9121,-1.9131,-1.9131,-1.9131,-1.8982,-1.8764,-1.8705,-1.8806,-1.8796,-1.863,-1.8899,-1.9131,-1.9131,-1.9131,-1.9131,-1.9131,-1.8951,-1.8878,-1.8796,-1.8247,-1.7709,-1.7647,-1.7057,-1.6829,-1.7222,-1.686,-1.6415,-1.6374,-1.6374,-1.6374,-1.6374,-1.6374,-1.6374,-1.642,-1.642,-1.6431,-1.6431,-1.6431,-1.6431,-1.6374,-1.6374,-1.6374,-1.6374,-1.6374,-1.6374,-3.3525,-3.344,-3.2747,-3.2832,-3.3177,-3.1077,-3.0214,-2.9925,-2.814,-2.7067,-2.6591,-2.5944,-2.5659,-2.5644,-2.56,-2.4911,-2.3909,-2.4298,-2.4164,-2.351,-2.3378,-2.3246,-2.3097,-2.3097,-2.254,-2.1718,-2.1513,-2.0881,-1.9991,-1.985,-1.9798,-1.9798,-1.9798,-1.9798,-1.9811,-1.9861,-1.9849,-1.9924,-1.9962,-2.0175,-2.068,-2.0781,-2.1029,-2.1493,-2.1556,-2.1343,-2.0891,-2.0806,-2.0501,-1.9924,-1.9949,-1.9886,-1.9861,-1.9823,-1.9798,-1.9695,-1.9291,-1.9064,-1.8899,-1.7988,-1.7376,-1.7364,-1.7064,-1.6581,-1.6891,-1.7142,-1.7327,-1.7152,-1.7637,-1.8195,-1.8827,-1.8899,-1.8951,-1.894,-1.8716,-1.863,-1.893,-1.8651,-1.8651,-1.8837,-1.8909,-1.8909,-1.9058,-1.9131,-1.8971,-1.8889,-1.8661,-1.8413,-1.835,-1.7988,-1.7719,-1.7533,-1.7193,-1.6811,-1.656,-1.6467,-1.6405,-1.6374,-1.6374,-1.6374,-1.6374,-1.6374,-1.6374,-1.6374,-1.6374,-1.6374,-1.6374,-1.6374,-1.6374,-1.6374,-1.6374,-1.6374,-1.6374,-1.6374,-1.6374,-3.3389,-3.3322,-3.2529,-3.2042,-3.1558,-2.9987,-2.8855,-2.8107,-2.7084,-2.6336,-2.5886,-2.527,-2.494,-2.4956,-2.4522,-2.4313,-2.4253,-2.4417,-2.4074,-2.3422,-2.3246,-2.3068,-2.2992,-2.2978,-2.2615,-2.1969,-2.1575,-2.0832,-1.9901,-1.9798,-1.9798,-1.9798,-1.9798,-1.9798,-1.9798,-1.9798,-1.9798,-1.9798,-1.9798,-1.9899,-2.01,-2.0112,-2.0213,-2.0426,-2.1129,-2.1405,-2.1204,-2.1192,-2.0941,-2.0429,-2.0351,-2.0188,-1.9706,-1.9565,-1.9344,-1.9004,-1.8804,-1.8677,-1.8585,-1.7831,-1.7513,-1.7804,-1.7332,-1.693,-1.7012,-1.7195,-1.7298,-1.7379,-1.7533,-1.7936,-1.8092,-1.8216,-1.8226,-1.8226,-1.8319,-1.8299,-1.833,-1.8537,-1.8692,-1.834,-1.8216,-1.8206,-1.8288,-1.8226,-1.8216,-1.8206,-1.8071,-1.8009,-1.7905,-1.7585,-1.7255,-1.7172,-1.6922,-1.657,-1.6446,-1.6384,-1.6374,-1.6374,-1.6374,-1.6374,-1.6374,-1.6374,-1.6374,-1.6374,-1.6374,-1.6374,-1.6374,-1.6374,-1.6374,-1.6374,-1.6374,-1.6374,-1.6374,-1.6374,-1.6374,-3.1985,-3.1918,-3.1365,-3.0757,-3.0078,-2.8993,-2.7969,-2.6972,-2.6233,-2.5712,-2.5212,-2.4537,-2.4298,-2.4223,-2.3804,-2.379,-2.4194,-2.4134,-2.3807,-2.326,-2.3112,-2.2992,-2.2888,-2.2737,-2.2417,-2.1888,-2.1224,-2.0497,-1.9901,-1.9798,-1.9798,-1.9798,-1.9798,-1.9798,-1.9798,-1.9798,-1.9798,-1.9798,-1.9798,-1.9798,-1.9759,-1.9759,-1.9708,-1.9756,-2.0457,-2.0844,-2.0886,-2.0844,-2.064,-2.0357,-2.0282,-1.9949,-1.934,-1.8963,-1.8643,-1.8298,-1.8178,-1.8121,-1.7979,-1.7532,-1.736,-1.756,-1.7264,-1.6982,-1.6972,-1.7032,-1.7042,-1.7103,-1.7164,-1.7164,-1.7224,-1.7234,-1.7409,-1.7647,-1.7864,-1.7916,-1.7781,-1.8133,-1.8143,-1.7822,-1.774,-1.775,-1.7905,-1.7957,-1.7988,-1.7936,-1.7947,-1.7905,-1.7719,-1.7296,-1.6987,-1.6956,-1.6694,-1.6467,-1.6374,-1.6374,-1.6374,-1.6374,-1.6374,-1.6374,-1.6374,-1.6374,-1.6374,-1.6374,-1.6374,-1.6374,-1.6374,-1.6374,-1.6363,-1.6363,-1.6374,-1.6374,-1.6374,-1.6374,-1.6306,-2.9146,-2.9194,-2.9008,-2.8999,-2.8728,-2.8163,-2.7575,-2.672,-2.5851,-2.5129,-2.4582,-2.3924,-2.3714,-2.364,-2.364,-2.3596,-2.354,-2.3423,-2.3319,-2.3127,-2.2992,-2.2888,-2.2888,-2.2463,-2.1921,-2.1369,-2.0346,-1.985,-1.9798,-1.9798,-1.9798,-1.9798,-1.9798,-1.9798,-1.9798,-1.9811,-1.9798,-1.9747,-1.9747,-1.9759,-1.9604,-1.9604,-1.9565,-1.9473,-1.9519,-1.9608,-1.9651,-1.9571,-1.9596,-1.9494,-1.947,-1.9105,-1.8536,-1.8027,-1.7644,-1.7578,-1.7578,-1.7368,-1.7022,-1.6941,-1.6633,-1.643,-1.6321,-1.6345,-1.6239,-1.6199,-1.6314,-1.6413,-1.6382,-1.6206,-1.6294,-1.644,-1.6798,-1.742,-1.7307,-1.7347,-1.7522,-1.7265,-1.7172,-1.7503,-1.7564,-1.7874,-1.8175,-1.8081,-1.7978,-1.7999,-1.803,-1.7905,-1.7543,-1.7171,-1.6987,-1.6863,-1.6653,-1.6394,-1.6374,-1.6374,-1.6374,-1.6374,-1.6374,-1.6374,-1.6374,-1.6374,-1.6374,-1.6374,-1.6374,-1.6374,-1.6066,-1.6066,-1.6009,-1.6019,-1.6134,-1.6134,-1.5951,-1.5836,-1.6066,-2.9011,-2.8907,-2.8328,-2.8053,-2.7824,-2.7158,-2.6352,-2.5591,-2.5152,-2.4636,-2.3951,-2.3699,-2.3566,-2.3538,-2.3538,-2.3422,-2.3216,-2.3157,-2.3171,-2.3082,-2.2933,-2.2888,-2.2797,-2.2417,-2.1746,-2.0845,-2.0144,-1.9798,-1.9798,-1.9798,-1.9798,-1.9798,-1.9798,-1.9759,-1.9656,-1.9656,-1.9617,-1.9565,-1.9604,-1.9656,-1.9617,-1.9617,-1.9565,-1.9512,-1.9368,-1.9275,-1.9328,-1.938,-1.9473,-1.9512,-1.9016,-1.8483,-1.782,-1.7479,-1.7135,-1.6754,-1.6698,-1.6472,-1.5979,-1.5931,-1.5931,-1.5836,-1.5914,-1.5904,-1.5961,-1.6056,-1.6114,-1.6239,-1.6249,-1.6306,-1.6316,-1.6374,-1.6471,-1.6581,-1.6814,-1.7007,-1.7142,-1.7069,-1.7049,-1.7111,-1.6995,-1.6901,-1.6995,-1.7067,-1.716,-1.715,-1.7129,-1.7046,-1.686,-1.676,-1.6601,-1.655,-1.6394,-1.6374,-1.6374,-1.6374,-1.6316,-1.6202,-1.6192,-1.6077,-1.6077,-1.6134,-1.6192,-1.6192,-1.6249,-1.6134,-1.5836,-1.5652,-1.5594,-1.5478,-1.542,-1.5362,-1.5186,-1.5303,-1.5536,-2.8129,-2.8076,-2.7516,-2.7209,-2.7016,-2.6178,-2.5481,-2.4902,-2.4542,-2.4131,-2.3638,-2.3595,-2.3566,-2.3538,-2.3494,-2.3378,-2.3201,-2.3127,-2.3082,-2.3023,-2.2933,-2.2888,-2.2797,-2.2217,-2.1334,-2.0446,-1.9952,-1.9798,-1.9798,-1.9759,-1.9708,-1.9708,-1.9708,-1.9656,-1.9617,-1.9617,-1.9565,-1.9512,-1.9565,-1.9565,-1.946,-1.9473,-1.9408,-1.9356,-1.921,-1.9182,-1.9182,-1.921,-1.9303,-1.9239,-1.8697,-1.8038,-1.7379,-1.7034,-1.6585,-1.614,-1.5968,-1.5806,-1.5536,-1.5594,-1.5546,-1.5672,-1.574,-1.5798,-1.5856,-1.5904,-1.5941,-1.6066,-1.6077,-1.6144,-1.6144,-1.6202,-1.6134,-1.5951,-1.6369,-1.6601,-1.6611,-1.6622,-1.6553,-1.6512,-1.6407,-1.6304,-1.6396,-1.6496,-1.6437,-1.6506,-1.665,-1.6639,-1.6578,-1.6478,-1.6485,-1.6413,-1.6331,-1.6368,-1.6374,-1.6316,-1.6202,-1.6077,-1.5961,-1.5662,-1.5488,-1.542,-1.542,-1.5536,-1.5546,-1.5536,-1.5294,-1.5118,-1.5001,-1.4883,-1.4706,-1.4824,-1.4824,-1.4883,-1.5001,-2.6657,-2.6623,-2.6572,-2.6484,-2.6203,-2.5406,-2.4965,-2.4744,-2.409,-2.3724,-2.3595,-2.361,-2.3551,-2.3566,-2.3451,-2.3334,-2.329,-2.3112,-2.2992,-2.2933,-2.2888,-2.2843,-2.2555,-2.1766,-2.0845,-2.0003,-1.9798,-1.9798,-1.9747,-1.9656,-1.9565,-1.9565,-1.9512,-1.9473,-1.9525,-1.9565,-1.9565,-1.9512,-1.9512,-1.942,-1.9223,-1.9223,-1.917,-1.9052,-1.9052,-1.9064,-1.9117,-1.9105,-1.8987,-1.8827,-1.8255,-1.7699,-1.709,-1.6528,-1.5979,-1.5517,-1.541,-1.5536,-1.5604,-1.5614,-1.5672,-1.5682,-1.5798,-1.5856,-1.574,-1.5798,-1.5846,-1.5914,-1.5846,-1.5798,-1.5798,-1.5856,-1.5846,-1.5798,-1.6012,-1.608,-1.5924,-1.5944,-1.6052,-1.5974,-1.5944,-1.6045,-1.6406,-1.6446,-1.6466,-1.6517,-1.6789,-1.6708,-1.6576,-1.6404,-1.6556,-1.6345,-1.6004,-1.5828,-1.5642,-1.5594,-1.542,-1.5118,-1.5177,-1.5128,-1.501,-1.4951,-1.4883,-1.4951,-1.4951,-1.4883,-1.4697,-1.4519,-1.4282,-1.4112,-1.4112,-1.435,-1.435,-1.4231,-1.4222,-2.6657,-2.6572,-2.6173,-2.5941,-2.5775,-2.5176,-2.4759,-2.4451,-2.4245,-2.3909,-2.3653,-2.3538,-2.3494,-2.3348,-2.3246,-2.3127,-2.3023,-2.2978,-2.2947,-2.2888,-2.2888,-2.2449,-2.1813,-2.114,-2.0497,-1.985,-1.972,-1.9656,-1.9656,-1.9512,-1.946,-1.942,-1.942,-1.9368,-1.9328,-1.9328,-1.9263,-1.921,-1.9263,-1.9275,-1.9223,-1.9182,-1.917,-1.917,-1.9064,-1.9052,-1.9052,-1.904,-1.8548,-1.7754,-1.7534,-1.6912,-1.614,-1.5853,-1.569,-1.5468,-1.542,-1.542,-1.5478,-1.5478,-1.5546,-1.5672,-1.573,-1.5788,-1.5856,-1.5856,-1.5856,-1.5914,-1.5856,-1.5866,-1.5856,-1.5856,-1.5856,-1.573,-1.5846,-1.5904,-1.5914,-1.5914,-1.5914,-1.5914,-1.5914,-1.5936,-1.6006,-1.6115,-1.6115,-1.6145,-1.6167,-1.6257,-1.6029,-1.5851,-1.5812,-1.5468,-1.5177,-1.5001,-1.4864,-1.4756,-1.4519,-1.4103,-1.4163,-1.446,-1.4588,-1.4765,-1.4647,-1.4588,-1.4529,-1.441,-1.4043,-1.3743,-1.3571,-1.3329,-1.345,-1.3571,-1.3268,-1.3086,-1.3208,-2.664,-2.6572,-2.6225,-2.603,-2.5868,-2.5368,-2.4902,-2.4558,-2.4385,-2.4036,-2.3653,-2.3538,-2.3451,-2.3378,-2.3157,-2.3037,-2.2992,-2.2947,-2.2888,-2.2812,-2.2449,-2.1955,-2.1417,-2.1028,-2.0547,-1.985,-1.972,-1.9708,-1.9656,-1.9512,-1.942,-1.9368,-1.9316,-1.921,-1.9223,-1.9182,-1.917,-1.9105,-1.9182,-1.917,-1.9117,-1.9105,-1.9117,-1.9117,-1.9052,-1.8987,-1.8987,-1.8987,-1.8548,-1.7875,-1.7765,-1.7424,-1.6301,-1.613,-1.5911,-1.5526,-1.542,-1.542,-1.542,-1.542,-1.5478,-1.5546,-1.5604,-1.5604,-1.5662,-1.572,-1.5672,-1.5662,-1.5672,-1.5672,-1.5672,-1.5672,-1.5662,-1.5604,-1.5662,-1.5662,-1.5672,-1.5672,-1.5662,-1.5662,-1.5672,-1.5662,-1.572,-1.572,-1.572,-1.5624,-1.542,-1.5381,-1.5293,-1.5069,-1.4874,-1.456,-1.4373,-1.4255,-1.4204,-1.4154,-1.4094,-1.3683,-1.3381,-1.3683,-1.3863,-1.4172,-1.3992,-1.3872,-1.3932,-1.3872,-1.339,-1.3025,-1.2789,-1.2666,-1.2728,-1.2728,-1.2544,-1.249,-1.2482,-2.6657,-2.6572,-2.6485,-2.6364,-2.6137,-2.5615,-2.5059,-2.4784,-2.4369,-2.3952,-2.361,-2.3494,-2.3422,-2.3466,-2.3157,-2.3082,-2.3037,-2.2933,-2.2888,-2.2646,-2.2156,-2.1561,-2.1417,-2.1077,-2.0534,-1.985,-1.9747,-1.9708,-1.9604,-1.9408,-1.9368,-1.9251,-1.9105,-1.9117,-1.9117,-1.917,-1.917,-1.917,-1.917,-1.9117,-1.9052,-1.904,-1.9052,-1.8999,-1.8827,-1.8709,-1.8709,-1.8655,-1.8363,-1.7875,-1.8483,-1.7929,-1.7034,-1.6912,-1.6472,-1.5642,-1.542,-1.542,-1.542,-1.542,-1.542,-1.542,-1.542,-1.542,-1.5478,-1.5478,-1.5478,-1.5478,-1.542,-1.542,-1.5478,-1.541,-1.5478,-1.542,-1.541,-1.541,-1.542,-1.542,-1.542,-1.542,-1.542,-1.542,-1.542,-1.542,-1.542,-1.5478,-1.5186,-1.4893,-1.4656,-1.441,-1.4094,-1.3657,-1.3597,-1.3597,-1.3597,-1.3606,-1.3554,-1.3381,-1.3025,-1.2964,-1.2911,-1.3094,-1.2972,-1.2972,-1.3094,-1.2972,-1.2666,-1.2305,-1.2189,-1.2189,-1.2367,-1.2243,-1.212,-1.212,-1.2182,-2.6657,-2.6572,-2.6154,-2.5921,-2.5684,-2.4958,-2.4517,-2.441,-2.3979,-2.3739,-2.3538,-2.3407,-2.329,-2.3216,-2.3023,-2.2933,-2.2947,-2.2888,-2.2888,-2.2783,-2.231,-2.1766,-2.1272,-2.0633,-2.0003,-1.9656,-1.9565,-1.942,-1.9316,-1.9251,-1.9105,-1.9093,-1.904,-1.9052,-1.9052,-1.9052,-1.904,-1.9052,-1.9052,-1.9052,-1.9052,-1.8987,-1.8987,-1.8881,-1.8548,-1.8038,-1.7655,-1.7589,-1.7313,-1.6978,-1.7202,-1.7146,-1.6255,-1.5968,-1.5748,-1.5526,-1.542,-1.542,-1.542,-1.542,-1.542,-1.542,-1.542,-1.542,-1.542,-1.542,-1.542,-1.542,-1.542,-1.542,-1.542,-1.542,-1.542,-1.542,-1.542,-1.542,-1.542,-1.542,-1.542,-1.542,-1.542,-1.542,-1.542,-1.5362,-1.5362,-1.5294,-1.4942,-1.4529,-1.4103,-1.3683,-1.3312,-1.2879,-1.2818,-1.2818,-1.2765,-1.2765,-1.2834,-1.2834,-1.2597,-1.2359,-1.2305,-1.2305,-1.2359,-1.2367,-1.2305,-1.212,-1.212,-1.212,-1.2058,-1.1996,-1.1934,-1.1934,-1.1872,-1.1872,-1.1879,-2.6691,-2.6572,-2.626,-2.5957,-2.5647,-2.5098,-2.4655,-2.4302,-2.4036,-2.3797,-2.3523,-2.3348,-2.329,-2.3201,-2.2978,-2.2888,-2.2843,-2.2646,-2.2402,-2.2109,-2.1623,-2.114,-2.0683,-2.0105,-1.9656,-1.9656,-1.9617,-1.9525,-1.9368,-1.9263,-1.9158,-1.9117,-1.9052,-1.8987,-1.8987,-1.8987,-1.8987,-1.8987,-1.8987,-1.8987,-1.8987,-1.8987,-1.8762,-1.8441,-1.7995,-1.7589,-1.7611,-1.7313,-1.7079,-1.681,-1.6754,-1.6539,-1.5968,-1.5806,-1.569,-1.5468,-1.542,-1.542,-1.542,-1.542,-1.542,-1.541,-1.542,-1.542,-1.542,-1.542,-1.542,-1.542,-1.542,-1.542,-1.542,-1.542,-1.542,-1.542,-1.5371,-1.5313,-1.5303,-1.5362,-1.542,-1.542,-1.542,-1.542,-1.542,-1.5118,-1.4874,-1.4697,-1.3837,-1.3425,-1.313,-1.2704,-1.2466,-1.2158,-1.2097,-1.2035,-1.1926,-1.1926,-1.1988,-1.205,-1.1988,-1.1926,-1.1934,-1.1934,-1.1926,-1.1996,-1.2065,-1.1996,-1.1926,-1.1926,-1.1872,-1.1809,-1.1747,-1.1747,-1.1747,-1.1747,-1.1747,-2.664,-2.6589,-2.652,-2.6206,-2.5795,-2.5481,-2.4981,-2.4451,-2.4219,-2.3882,-2.3551,-2.3363,-2.3231,-2.3142,-2.2978,-2.2888,-2.2783,-2.2555,-2.2263,-2.1921,-2.1286,-2.0795,-2.0295,-1.9901,-1.9604,-1.9759,-1.9656,-1.9565,-1.946,-1.9408,-1.921,-1.917,-1.9052,-1.8987,-1.8987,-1.8987,-1.8987,-1.8987,-1.8987,-1.8934,-1.8934,-1.8934,-1.8721,-1.8278,-1.76,-1.7435,-1.739,-1.7101,-1.6765,-1.6866,-1.6368,-1.614,-1.614,-1.614,-1.5968,-1.541,-1.542,-1.5362,-1.5362,-1.5352,-1.541,-1.5352,-1.541,-1.5352,-1.5352,-1.5362,-1.5362,-1.5362,-1.5303,-1.5362,-1.5362,-1.5362,-1.5362,-1.5362,-1.5264,-1.5215,-1.5264,-1.5303,-1.5362,-1.5303,-1.5059,-1.4932,-1.4815,-1.4579,-1.4332,-1.3974,-1.3061,-1.2389,-1.2212,-1.1973,-1.1856,-1.1802,-1.1794,-1.1794,-1.1685,-1.1622,-1.1622,-1.1685,-1.1622,-1.1622,-1.1622,-1.1685,-1.1747,-1.1872,-1.1879,-1.1809,-1.174,-1.1747,-1.1685,-1.1622,-1.1622,-1.1622,-1.1622,-1.1622,-1.16,-2.664,-2.6623,-2.652,-2.6364,-2.6066,-2.5368,-2.4902,-2.4664,-2.3952,-2.3538,-2.3363,-2.3187,-2.3068,-2.2978,-2.2933,-2.2888,-2.2843,-2.2646,-2.2555,-2.2263,-2.1527,-2.0881,-2.0584,-1.9862,-1.9565,-1.9473,-1.9368,-1.9263,-1.9198,-1.904,-1.9105,-1.9052,-1.9052,-1.8987,-1.8987,-1.8987,-1.8987,-1.8987,-1.8987,-1.8934,-1.8827,-1.8774,-1.8827,-1.8441,-1.7589,-1.7157,-1.6899,-1.6171,-1.5488,-1.5362,-1.5254,-1.5254,-1.5362,-1.5526,-1.5517,-1.541,-1.542,-1.5362,-1.5303,-1.5362,-1.5303,-1.5313,-1.5362,-1.5303,-1.5303,-1.5303,-1.5303,-1.5205,-1.5205,-1.5274,-1.5264,-1.5254,-1.5264,-1.5205,-1.5205,-1.5196,-1.5245,-1.5186,-1.5079,-1.4893,-1.4588,-1.4332,-1.4273,-1.3974,-1.3485,-1.3183,-1.2634,-1.2151,-1.2027,-1.1794,-1.1622,-1.1622,-1.1622,-1.1622,-1.1622,-1.1622,-1.1622,-1.1622,-1.1622,-1.1622,-1.1622,-1.1622,-1.1685,-1.1747,-1.1747,-1.1685,-1.1622,-1.1622,-1.1622,-1.1622,-1.1622,-1.1608,-1.1465,-1.1385,-1.1399,-2.664,-2.6572,-2.652,-2.6272,-2.5798,-2.5169,-2.4623,-2.4214,-2.3739,-2.3494,-2.3363,-2.3246,-2.3112,-2.3037,-2.2933,-2.2888,-2.2797,-2.2296,-2.2142,-2.1908,-2.1028,-2.0484,-2.0497,-1.972,-1.9473,-1.9316,-1.921,-1.9117,-1.9117,-1.9117,-1.9064,-1.8999,-1.8987,-1.8987,-1.8987,-1.8987,-1.8987,-1.8987,-1.8999,-1.8946,-1.8721,-1.8602,-1.8333,-1.7941,-1.7324,-1.6775,-1.6492,-1.5941,-1.5488,-1.543,-1.5264,-1.5156,-1.5147,-1.5254,-1.5362,-1.5303,-1.5362,-1.5362,-1.5303,-1.5362,-1.5352,-1.5303,-1.5352,-1.5352,-1.5303,-1.5362,-1.5254,-1.5147,-1.5039,-1.5098,-1.5098,-1.5098,-1.5098,-1.5098,-1.5029,-1.501,-1.4951,-1.4597,-1.4419,-1.4359,-1.4103,-1.3974,-1.3914,-1.3485,-1.2757,-1.2336,-1.2035,-1.1911,-1.1779,-1.1608,-1.1435,-1.1435,-1.1435,-1.1435,-1.1435,-1.1435,-1.1498,-1.1498,-1.156,-1.156,-1.156,-1.156,-1.156,-1.1622,-1.1622,-1.156,-1.1622,-1.1622,-1.1622,-1.1524,-1.1414,-1.1319,-1.126,-1.1216,-1.1187,-2.664,-2.6589,-2.652,-2.6145,-2.5615,-2.5217,-2.4592,-2.3876,-2.3709,-2.3566,-2.3451,-2.329,-2.3157,-2.3037,-2.2947,-2.2888,-2.2843,-2.2049,-2.1894,-2.1657,-2.0733,-2.0093,-1.9914,-1.9525,-1.9223,-1.921,-1.9146,-1.9052,-1.9117,-1.9117,-1.9105,-1.9052,-1.8987,-1.8987,-1.8987,-1.8987,-1.8987,-1.8987,-1.8987,-1.8999,-1.8721,-1.817,-1.7611,-1.739,-1.6729,-1.6332,-1.614,-1.5642,-1.543,-1.5371,-1.5205,-1.5039,-1.5088,-1.5196,-1.5196,-1.5147,-1.5254,-1.5303,-1.5235,-1.5303,-1.5245,-1.5186,-1.5294,-1.5294,-1.5177,-1.5128,-1.5137,-1.5147,-1.5029,-1.4961,-1.497,-1.4911,-1.4961,-1.4902,-1.4834,-1.4715,-1.4588,-1.435,-1.3863,-1.3743,-1.3614,-1.3304,-1.3,-1.2634,-1.1849,-1.1779,-1.1476,-1.1483,-1.1358,-1.1365,-1.1192,-1.1192,-1.1192,-1.1192,-1.1247,-1.131,-1.131,-1.1373,-1.138,-1.1373,-1.1435,-1.1428,-1.1498,-1.1498,-1.1498,-1.1498,-1.156,-1.1524,-1.1356,-1.1261,-1.1088,-1.095,-1.0804,-1.0777,-1.0726,-2.6607,-2.652,-2.6485,-2.6362,-2.6056,-2.5572,-2.5026,-2.4371,-2.396,-2.3638,-2.3319,-2.3068,-2.2978,-2.2947,-2.2933,-2.2888,-2.2797,-2.2601,-2.2356,-2.2109,-2.1175,-2.0597,-2.0597,-1.9668,-1.921,-1.9105,-1.904,-1.8987,-1.9052,-1.9052,-1.904,-1.8987,-1.8987,-1.8987,-1.8987,-1.8987,-1.8987,-1.8987,-1.8987,-1.8881,-1.856,-1.8018,-1.7623,-1.7335,-1.6832,-1.6322,-1.5901,-1.541,-1.501,-1.4803,-1.4684,-1.4565,-1.4616,-1.4725,-1.4775,-1.4834,-1.4961,-1.5079,-1.4951,-1.502,-1.502,-1.4961,-1.502,-1.4961,-1.4902,-1.4784,-1.4852,-1.5029,-1.4843,-1.4784,-1.4775,-1.4715,-1.4775,-1.4715,-1.4725,-1.4725,-1.4666,-1.3743,-1.3312,-1.2757,-1.2504,-1.2081,-1.1725,-1.1358,-1.0933,-1.0989,-1.0989,-1.0989,-1.0933,-1.087,-1.094,-1.087,-1.087,-1.087,-1.0933,-1.0989,-1.0926,-1.0996,-1.1247,-1.1185,-1.1115,-1.117,-1.1303,-1.1303,-1.1365,-1.126,-1.121,-1.1167,-1.1069,-1.0948,-1.077,-1.0519,-1.0342,-1.0308,-1.0236,-2.6674,-2.6589,-2.6537,-2.6445,-2.6294,-2.5524,-2.4918,-2.4482,-2.3925,-2.3494,-2.3201,-2.3082,-2.2992,-2.2888,-2.2888,-2.2888,-2.2797,-2.2402,-2.2016,-2.1779,-2.0944,-2.0194,-1.9901,-1.946,-1.9052,-1.9105,-1.904,-1.8987,-1.8987,-1.8987,-1.8987,-1.8987,-1.8987,-1.8987,-1.8987,-1.8987,-1.8893,-1.8786,-1.8625,-1.8452,-1.8236,-1.792,-1.7645,-1.7579,-1.7123,-1.6616,-1.6104,-1.569,-1.5235,-1.4961,-1.4725,-1.4606,-1.4666,-1.4784,-1.4843,-1.4715,-1.4834,-1.4902,-1.4902,-1.4911,-1.4902,-1.4902,-1.4911,-1.497,-1.4843,-1.4725,-1.4606,-1.4784,-1.4675,-1.4556,-1.4547,-1.4547,-1.4547,-1.4547,-1.4428,-1.4172,-1.3992,-1.3312,-1.2581,-1.1958,-1.1399,-1.1101,-1.0863,-1.0737,-1.0555,-1.0555,-1.0555,-1.0491,-1.0428,-1.0364,-1.0428,-1.0555,-1.0555,-1.0491,-1.0548,-1.0541,-1.0281,-1.0415,-1.1115,-1.1052,-1.0793,-1.0787,-1.0919,-1.1045,-1.117,-1.1107,-1.0877,-1.0986,-1.1055,-1.0742,-1.0398,-1.0082,-0.9826,-0.957,-0.9521,-2.6708,-2.6691,-2.6572,-2.641,-2.6126,-2.5371,-2.4735,-2.4239,-2.3827,-2.3422,-2.3171,-2.3037,-2.2992,-2.2933,-2.2888,-2.2888,-2.2857,-2.2095,-2.1766,-2.1237,-2.0497,-2.0003,-1.9798,-1.9448,-1.9052,-1.9182,-1.9052,-1.8987,-1.8987,-1.8987,-1.8987,-1.8987,-1.8987,-1.8934,-1.8881,-1.8827,-1.8721,-1.8464,-1.8193,-1.803,-1.792,-1.77,-1.7423,-1.7256,-1.7032,-1.6694,-1.6124,-1.571,-1.5245,-1.501,-1.4725,-1.4606,-1.4666,-1.4734,-1.4675,-1.4538,-1.4478,-1.4478,-1.4547,-1.4666,-1.4862,-1.4862,-1.4852,-1.4793,-1.4675,-1.4597,-1.4469,-1.4359,-1.4249,-1.4198,-1.4267,-1.4189,-1.4061,-1.4001,-1.3941,-1.3511,-1.307,-1.2451,-1.1958,-1.1461,-1.0843,-1.0358,-1.0238,-1.0174,-1.018,-1.018,-1.0117,-0.9989,-1.0047,-1.0047,-1.0238,-1.0428,-1.0428,-1.0428,-1.0358,-1.0288,-0.9901,-0.9767,-1.0471,-1.0598,-1.0218,-1.0218,-1.0345,-1.0534,-1.0634,-1.0299,-0.9716,-1.0411,-1.1005,-1.0356,-0.9765,-0.9532,-0.924,-0.8998,-0.8937,-2.6708,-2.6708,-2.6572,-2.6101,-2.5475,-2.5449,-2.4705,-2.3705,-2.3803,-2.3566,-2.3082,-2.2992,-2.2933,-2.2888,-2.2888,-2.2888,-2.2843,-2.2797,-2.2449,-2.2063,-2.1527,-2.0646,-2.0156,-1.95,-1.8987,-1.9052,-1.8987,-1.8987,-1.8987,-1.8934,-1.8987,-1.8987,-1.8934,-1.8827,-1.8721,-1.8614,-1.8398,-1.8139,-1.7865,-1.7711,-1.7601,-1.7368,-1.6909,-1.6275,-1.5989,-1.5594,-1.4743,-1.4852,-1.4852,-1.4734,-1.4556,-1.4437,-1.4437,-1.4437,-1.4309,-1.4181,-1.4061,-1.4061,-1.4061,-1.4249,-1.4497,-1.4515,-1.4506,-1.4378,-1.4189,-1.413,-1.3941,-1.3752,-1.3692,-1.3631,-1.3571,-1.3511,-1.3321,-1.3199,-1.307,-1.2757,-1.2258,-1.1703,-1.1212,-1.0843,-1.0345,-0.9849,-0.9606,-0.9606,-0.9926,-0.9989,-0.9926,-0.9862,-1.0053,-1.011,-1.0301,-1.0428,-1.0428,-1.0364,-1.0364,-1.0034,-0.9384,-0.925,-0.9633,-0.9576,-0.939,-0.9454,-0.957,-0.9376,-0.9265,-0.8924,-0.8772,-0.9277,-0.9616,-0.9429,-0.9121,-0.8743,-0.8519,-0.8284,-0.8427,-2.6674,-2.664,-2.6554,-2.6295,-2.5947,-2.5635,-2.483,-2.3892,-2.3857,-2.3551,-2.2992,-2.2933,-2.2888,-2.2888,-2.2888,-2.2706,-2.2417,-2.2002,-2.1718,-2.1077,-2.0346,-1.9901,-1.9552,-1.9448,-1.8987,-1.8987,-1.8987,-1.8987,-1.8987,-1.8881,-1.8774,-1.8774,-1.8774,-1.8721,-1.856,-1.8236,-1.8018,-1.7865,-1.7601,-1.7379,-1.7032,-1.692,-1.657,-1.5989,-1.5874,-1.5758,-1.542,-1.5069,-1.4951,-1.4784,-1.4428,-1.4249,-1.413,-1.401,-1.3881,-1.3692,-1.37,-1.37,-1.37,-1.3881,-1.389,-1.3881,-1.389,-1.383,-1.37,-1.3692,-1.3631,-1.3442,-1.3199,-1.3078,-1.3078,-1.2818,-1.2504,-1.2381,-1.2135,-1.1826,-1.1329,-1.0773,-1.0465,-1.0028,-0.9716,-0.9338,-0.9151,-0.9092,-0.9414,-0.974,-0.974,-0.967,-0.9728,-0.9722,-0.9779,-0.9716,-0.9646,-0.9384,-0.932,-0.9058,-0.8737,-0.8737,-0.8801,-0.8544,-0.8415,-0.8603,-0.8645,-0.826,-0.7933,-0.7814,-0.7783,-0.8075,-0.8132,-0.7987,-0.7917,-0.7783,-0.7663,-0.7574,-0.7664,-2.632,-2.6253,-2.5933,-2.5878,-2.5895,-2.5313,-2.4563,-2.383,-2.3492,-2.3287,-2.2859,-2.2728,-2.2743,-2.2756,-2.2552,-2.2472,-2.2114,-2.167,-2.114,-2.0597,-2.0042,-1.9448,-1.9239,-1.9146,-1.8987,-1.8987,-1.8987,-1.8987,-1.8987,-1.8827,-1.8774,-1.8774,-1.8614,-1.856,-1.8344,-1.7963,-1.7645,-1.7545,-1.739,-1.7166,-1.6864,-1.6864,-1.6513,-1.6046,-1.5874,-1.5526,-1.5177,-1.4765,-1.4647,-1.441,-1.4172,-1.3881,-1.3761,-1.3631,-1.345,-1.339,-1.339,-1.3459,-1.3519,-1.37,-1.358,-1.3631,-1.3571,-1.3519,-1.339,-1.3268,-1.3086,-1.3155,-1.2781,-1.2528,-1.2589,-1.2397,-1.1834,-1.1648,-1.1205,-1.0829,-1.0268,-0.9709,-0.9524,-0.928,-0.9022,-0.8829,-0.8694,-0.8571,-0.863,-0.8888,-0.8947,-0.8882,-0.8877,-0.8807,-0.8742,-0.8672,-0.8608,-0.828,-0.7957,-0.7957,-0.8016,-0.8016,-0.7952,-0.7562,-0.7497,-0.7603,-0.7347,-0.6749,-0.655,-0.6614,-0.6575,-0.637,-0.6506,-0.6636,-0.6708,-0.6839,-0.6903,-0.6794,-0.6691,-2.5578,-2.5411,-2.4659,-2.4623,-2.491,-2.4258,-2.377,-2.3415,-2.2742,-2.2585,-2.27,-2.2308,-2.2307,-2.2431,-2.2186,-2.196,-2.182,-2.154,-2.1164,-2.0656,-1.9711,-1.975,-1.9531,-1.9132,-1.8819,-1.8963,-1.8987,-1.8987,-1.8987,-1.8827,-1.8827,-1.8774,-1.8506,-1.8356,-1.8084,-1.781,-1.7545,-1.7334,-1.7334,-1.7222,-1.711,-1.7043,-1.6513,-1.5874,-1.5584,-1.5118,-1.4469,-1.4231,-1.4052,-1.3863,-1.3692,-1.3511,-1.3519,-1.3459,-1.3277,-1.3042,-1.3042,-1.2928,-1.2752,-1.3467,-1.358,-1.339,-1.3268,-1.3208,-1.2981,-1.2674,-1.2421,-1.2474,-1.205,-1.1981,-1.205,-1.1919,-1.1156,-1.0654,-1.0212,-0.9894,-0.9332,-0.9081,-0.8958,-0.87,-0.8576,-0.8382,-0.8182,-0.8047,-0.7912,-0.7972,-0.8032,-0.8027,-0.7892,-0.7822,-0.7627,-0.7627,-0.7562,-0.7302,-0.7107,-0.7172,-0.7233,-0.7233,-0.7037,-0.6588,-0.6339,-0.6342,-0.5962,-0.5329,-0.5236,-0.5355,-0.493,-0.4472,-0.4829,-0.5242,-0.5817,-0.6005,-0.6091,-0.5977,-0.5764,-2.4847,-2.4816,-2.4357,-2.4016,-2.3759,-2.367,-2.3812,-2.3902,-2.2812,-2.2149,-2.2193,-2.1873,-2.2073,-2.2298,-2.2073,-2.1573,-2.1033,-2.0597,-2.0245,-1.9287,-1.8745,-1.8314,-1.8275,-1.8517,-1.847,-1.8578,-1.8734,-1.8915,-1.8987,-1.8626,-1.8417,-1.8344,-1.819,-1.7986,-1.7822,-1.7601,-1.739,-1.7334,-1.7278,-1.7166,-1.6864,-1.657,-1.6046,-1.5225,-1.4942,-1.4469,-1.3761,-1.37,-1.3571,-1.339,-1.3277,-1.3164,-1.3164,-1.3094,-1.2858,-1.2744,-1.2744,-1.2621,-1.256,-1.292,-1.3111,-1.292,-1.2789,-1.2728,-1.249,-1.2305,-1.1988,-1.1531,-1.1156,-1.0905,-1.0351,-0.9907,-0.9332,-0.9274,-0.9022,-0.8958,-0.8705,-0.8641,-0.8511,-0.8172,-0.7912,-0.7055,-0.6531,-0.6593,-0.6593,-0.6388,-0.6318,-0.6576,-0.651,-0.6506,-0.6441,-0.651,-0.6449,-0.6322,-0.6256,-0.6059,-0.5866,-0.5734,-0.5675,-0.5481,-0.5291,-0.5186,-0.4998,-0.4697,-0.4391,-0.41,-0.3929,-0.3761,-0.3602,-0.3901,-0.4556,-0.4886,-0.4835,-0.4728,-0.4622,-2.4073,-2.4025,-2.3603,-2.321,-2.2873,-2.2905,-2.3074,-2.3029,-2.23,-2.2004,-2.1917,-2.1614,-2.167,-2.191,-2.1487,-2.1133,-2.0248,-1.9728,-1.9381,-1.8354,-1.7858,-1.7787,-1.78,-1.7786,-1.8049,-1.8181,-1.8326,-1.8454,-1.8756,-1.8078,-1.7734,-1.7588,-1.7696,-1.7587,-1.75,-1.739,-1.7434,-1.7334,-1.7278,-1.7211,-1.6931,-1.6581,-1.5989,-1.5235,-1.4715,-1.4172,-1.3571,-1.3338,-1.3277,-1.3164,-1.3042,-1.2867,-1.2805,-1.2674,-1.249,-1.249,-1.2428,-1.2375,-1.2367,-1.2035,-1.2097,-1.1973,-1.2112,-1.2243,-1.205,-1.174,-1.1351,-1.0899,-1.0262,-0.9824,-0.9326,-0.8689,-0.8436,-0.8441,-0.8247,-0.8182,-0.7992,-0.7922,-0.7862,-0.7521,-0.7125,-0.6071,-0.5077,-0.5011,-0.5074,-0.4806,-0.4538,-0.48,-0.5061,-0.5061,-0.5061,-0.513,-0.5134,-0.4942,-0.4746,-0.4553,-0.4422,-0.4295,-0.4295,-0.4425,-0.4186,-0.4094,-0.4053,-0.3988,-0.3572,-0.3335,-0.3328,-0.318,-0.2974,-0.3016,-0.3408,-0.3574,-0.3522,-0.3633,-0.3633,-2.327,-2.3066,-2.2333,-2.2181,-2.2264,-2.1963,-2.1312,-2.0557,-2.1491,-2.1859,-2.183,-2.1135,-2.1097,-2.1182,-2.0133,-1.9739,-1.9727,-1.9189,-1.8799,-1.8474,-1.7675,-1.7634,-1.7446,-1.7424,-1.7544,-1.7687,-1.7843,-1.7894,-1.8342,-1.7583,-1.7016,-1.6814,-1.7115,-1.7075,-1.7044,-1.7092,-1.7236,-1.729,-1.7211,-1.7088,-1.6864,-1.6807,-1.5989,-1.5225,-1.4706,-1.4052,-1.3398,-1.2981,-1.2867,-1.2744,-1.2621,-1.2621,-1.256,-1.2428,-1.2367,-1.2243,-1.2182,-1.1988,-1.1794,-1.1337,-1.0947,-1.0954,-1.1406,-1.1794,-1.1608,-1.0843,-1.0395,-1.0009,-0.95,-0.9366,-0.9046,-0.8667,-0.8285,-0.8032,-0.7717,-0.7456,-0.7138,-0.7073,-0.7077,-0.6811,-0.6544,-0.5745,-0.4674,-0.4276,-0.388,-0.3403,-0.3199,-0.3263,-0.3462,-0.3482,-0.3549,-0.3618,-0.3553,-0.3489,-0.336,-0.3556,-0.3627,-0.3761,-0.3556,-0.354,-0.3314,-0.3026,-0.2973,-0.2897,-0.2659,-0.2372,-0.1921,-0.1973,-0.2188,-0.2238,-0.1955,-0.2687,-0.274,-0.2912,-0.2968,-2.2603,-2.2512,-2.2157,-2.191,-2.1678,-2.1047,-2.034,-1.9773,-2.0371,-2.064,-2.0611,-2.0112,-2.0287,-2.0527,-1.9958,-1.9469,-1.8976,-1.8451,-1.7896,-1.7454,-1.7085,-1.6614,-1.6529,-1.6737,-1.6824,-1.6943,-1.7073,-1.7164,-1.7171,-1.6685,-1.6147,-1.5748,-1.6262,-1.6288,-1.6295,-1.6321,-1.6688,-1.698,-1.6978,-1.6754,-1.6415,-1.613,-1.5303,-1.4582,-1.4094,-1.3442,-1.2981,-1.2744,-1.2691,-1.2621,-1.2621,-1.256,-1.2367,-1.2305,-1.2305,-1.212,-1.1663,-1.1212,-1.0892,-1.0319,-0.9869,-0.9685,-0.9818,-1.0009,-0.9939,-0.9685,-0.918,-0.8924,-0.8603,-0.8339,-0.8021,-0.7707,-0.7447,-0.7256,-0.6999,-0.6872,-0.6548,-0.6412,-0.6412,-0.6013,-0.5749,-0.4815,-0.3813,-0.328,-0.2746,-0.2203,-0.1931,-0.1999,-0.2062,-0.2136,-0.2284,-0.2418,-0.2487,-0.2487,-0.282,-0.3084,-0.3157,-0.3226,-0.2797,-0.2366,-0.1984,-0.1802,-0.188,-0.1707,-0.1251,-0.0673,-0.0056,-0.0335,-0.0838,-0.0335,-0.0112,-0.1174,-0.1959,-0.1958,-0.2071,-2.2209,-2.2163,-2.1998,-2.1705,-2.1166,-2.0514,-1.9859,-1.9553,-2.0029,-2.0191,-2.0049,-1.9824,-1.9888,-2.0074,-1.9559,-1.9017,-1.8687,-1.8175,-1.7721,-1.7408,-1.6491,-1.6467,-1.6404,-1.6251,-1.6392,-1.6432,-1.6492,-1.6573,-1.6428,-1.6182,-1.5703,-1.4967,-1.5382,-1.5483,-1.5447,-1.5436,-1.5597,-1.5939,-1.61,-1.594,-1.5531,-1.5158,-1.4468,-1.3688,-1.3279,-1.3017,-1.2613,-1.2613,-1.256,-1.249,-1.2498,-1.2236,-1.1787,-1.1469,-1.1094,-1.0836,-1.0451,-1.0129,-0.9818,-0.9302,-0.886,-0.8479,-0.8156,-0.8021,-0.8275,-0.8275,-0.8091,-0.7967,-0.7507,-0.712,-0.6802,-0.6486,-0.6482,-0.6412,-0.6346,-0.6284,-0.6148,-0.5947,-0.5613,-0.5147,-0.448,-0.3485,-0.2751,-0.2284,-0.1882,-0.161,-0.1407,-0.1272,-0.1329,-0.1386,-0.1533,-0.1744,-0.1746,-0.1747,-0.2008,-0.1788,-0.1448,-0.124,-0.1157,-0.0761,-0.0499,-0.0427,-0.0414,-0.0116,0.0226,0.0728,0.1059,0.0949,0.0725,0.1227,0.1394,0.0612,-0.0167,-0.0446,-0.0614,-2.2152,-2.2027,-2.1957,-2.1554,-2.0893,-2.033,-1.9844,-1.9626,-2.0124,-2.023,-2.0011,-1.9922,-1.9814,-1.9612,-1.8941,-1.8571,-1.83,-1.7963,-1.7689,-1.7747,-1.6947,-1.6565,-1.6318,-1.6193,-1.6047,-1.6154,-1.6089,-1.5881,-1.6098,-1.5775,-1.5121,-1.446,-1.5039,-1.5177,-1.4904,-1.4696,-1.477,-1.4824,-1.4912,-1.4782,-1.4554,-1.441,-1.424,-1.3334,-1.3195,-1.3235,-1.2757,-1.2528,-1.249,-1.2367,-1.2104,-1.1725,-1.0892,-1.0192,-0.9691,-0.9436,-0.9308,-0.9052,-0.8731,-0.8215,-0.7832,-0.7386,-0.6868,-0.6736,-0.6924,-0.7186,-0.719,-0.7125,-0.6732,-0.6539,-0.6284,-0.6156,-0.6152,-0.609,-0.6098,-0.5899,-0.5631,-0.5292,-0.4683,-0.435,-0.3951,-0.3021,-0.2218,-0.1748,-0.1067,-0.0938,-0.0662,-0.0462,-0.0196,-0.0194,-0.0457,-0.0661,-0.0596,-0.0395,0.0065,0.0322,0.0897,0.1078,0.0936,0.1165,0.1632,0.1479,0.1155,0.1647,0.2073,0.1788,0.1893,0.2004,0.2171,0.2282,0.2391,0.2168,0.1722,0.1335,0.078,-2.2282,-2.2123,-2.1974,-2.1631,-2.1198,-2.0812,-2.0326,-1.9884,-1.9752,-1.9612,-1.931,-1.9055,-1.8967,-1.8899,-1.8472,-1.8163,-1.8043,-1.7868,-1.7419,-1.7199,-1.6723,-1.6466,-1.6132,-1.5925,-1.5721,-1.5439,-1.5302,-1.52,-1.5074,-1.4836,-1.4616,-1.4204,-1.458,-1.4573,-1.4541,-1.4348,-1.4004,-1.3815,-1.3479,-1.3503,-1.3441,-1.3274,-1.3055,-1.263,-1.2582,-1.2639,-1.2369,-1.231,-1.232,-1.2236,-1.16,-1.0829,-0.9939,-0.9366,-0.9111,-0.8982,-0.8463,-0.8066,-0.7707,-0.7256,-0.6868,-0.6539,-0.6152,-0.6086,-0.6086,-0.6214,-0.628,-0.6214,-0.6152,-0.5958,-0.5892,-0.5826,-0.5896,-0.5903,-0.5704,-0.5439,-0.5109,-0.4431,-0.3689,-0.3489,-0.3288,-0.2551,-0.1681,-0.1072,-0.0465,0.0065,0.0444,0.0877,0.1496,0.1672,0.1256,0.1081,0.0902,0.1155,0.1714,0.2195,0.2615,0.2973,0.2936,0.3301,0.3645,0.329,0.2832,0.3495,0.3913,0.3345,0.3174,0.3677,0.3788,0.3616,0.3558,0.339,0.3503,0.3226,0.2449,-2.231,-2.2242,-2.2003,-2.1708,-2.1341,-2.0909,-2.0413,-1.9894,-1.9479,-1.925,-1.9116,-1.8889,-1.8774,-1.8697,-1.8361,-1.8123,-1.8043,-1.7774,-1.7666,-1.7282,-1.6667,-1.6367,-1.6076,-1.5691,-1.539,-1.5108,-1.4971,-1.4754,-1.4408,-1.4384,-1.4323,-1.415,-1.4219,-1.4201,-1.4229,-1.3661,-1.3215,-1.2921,-1.2272,-1.2086,-1.2307,-1.2247,-1.2101,-1.1815,-1.1881,-1.2016,-1.2137,-1.2103,-1.2128,-1.1732,-1.0899,-1.0013,-0.9029,-0.817,-0.7802,-0.7574,-0.7251,-0.6897,-0.6702,-0.6412,-0.6086,-0.5888,-0.569,-0.569,-0.5491,-0.562,-0.5697,-0.5697,-0.5767,-0.5638,-0.5509,-0.5442,-0.5579,-0.5652,-0.4697,-0.3954,-0.3422,-0.2753,-0.2217,-0.1814,-0.1343,-0.0335,0.0268,0.0268,0.0928,0.1689,0.2015,0.2348,0.2993,0.3282,0.2965,0.2751,0.2535,0.281,0.3423,0.3801,0.4105,0.4449,0.4608,0.4387,0.4172,0.4406,0.4577,0.4636,0.4636,0.4463,0.446,0.4736,0.4794,0.4567,0.4625,0.4736,0.4849,0.4791,0.4116,-2.2282,-2.2237,-2.2003,-2.1757,-2.1422,-2.0794,-2.0196,-1.9713,-1.9244,-1.9049,-1.9011,-1.8974,-1.9026,-1.8889,-1.8634,-1.8517,-1.8282,-1.7949,-1.7842,-1.7365,-1.6782,-1.6281,-1.5844,-1.5501,-1.5187,-1.4971,-1.4789,-1.4697,-1.4512,-1.4466,-1.4373,-1.4326,-1.4168,-1.3999,-1.3501,-1.2957,-1.257,-1.2178,-1.1662,-1.1083,-1.1116,-1.1241,-1.1233,-1.1288,-1.1396,-1.1674,-1.1763,-1.182,-1.1828,-1.1226,-1.0262,-0.9087,-0.8122,-0.7213,-0.6759,-0.6546,-0.6383,-0.6071,-0.592,-0.5954,-0.5756,-0.5624,-0.5425,-0.5296,-0.5096,-0.4827,-0.49,-0.4764,-0.4834,-0.4903,-0.4773,-0.457,-0.464,-0.4506,-0.3355,-0.2412,-0.1746,-0.1278,-0.0875,-0.0404,0.047,0.1475,0.2011,0.2009,0.2443,0.3174,0.3619,0.4004,0.4354,0.4451,0.4339,0.4238,0.4139,0.4542,0.4879,0.49,0.4977,0.4944,0.4908,0.4752,0.4739,0.4963,0.5018,0.4853,0.4853,0.4959,0.5066,0.5171,0.5289,0.5403,0.5399,0.5449,0.5395,0.5391,0.5391,-2.2248,-2.2044,-2.194,-2.1741,-2.1422,-2.0794,-2.0196,-1.9662,-1.9118,-1.886,-1.886,-1.8683,-1.862,-1.8581,-1.8202,-1.8043,-1.8123,-1.7922,-1.7323,-1.6723,-1.6527,-1.6051,-1.5546,-1.5232,-1.4971,-1.4789,-1.4558,-1.4419,-1.4419,-1.4373,-1.4233,-1.3962,-1.4067,-1.3921,-1.3635,-1.3104,-1.2676,-1.2077,-1.1514,-1.1082,-1.0725,-1.0867,-1.088,-1.0966,-1.1104,-1.1195,-1.1226,-1.1241,-1.1465,-1.1023,-0.9857,-0.8329,-0.726,-0.6535,-0.6213,-0.5971,-0.581,-0.5759,-0.5668,-0.5557,-0.5491,-0.5369,-0.5173,-0.4903,-0.4431,-0.3616,-0.3351,-0.2681,-0.2815,-0.3149,-0.3015,-0.241,-0.2275,-0.1945,-0.1141,-0.0672,-0.0135,-0.0067,0.0135,0.074,0.1479,0.2755,0.4175,0.4148,0.4295,0.4785,0.4643,0.4992,0.5052,0.5289,0.553,0.553,0.5478,0.5374,0.5334,0.528,0.533,0.5294,0.5389,0.5411,0.5508,0.5626,0.5572,0.5458,0.5458,0.5626,0.5673,0.5773,0.5882,0.5996,0.605,0.6046,0.5991,0.5937,0.5828]},{"header":{"parameterUnit":"m.s-1","parameterCategory":1,"la1":31.0,"la2":29.5877,"lo1":-88.7671,"lo2":-86.6584,"dy":0.0162,"dx":0.0185,"nx":115,"ny":88,"refTime":"2023-10-06T12:00:00:Z","depth":0,"parameterNumber":3,"parameterNumberName":"V-component_of_WINDS"},"data":[0.0,0.0,0.0,0.0,0.0,0.0,0.0,0.0,0.0,0.0,0.0,0.0,0.0,0.0,0.0,0.0,0.0,0.0,0.0,0.0,0.0,0.0,0.0,0.0,0.0,0.0,0.0,0.0,0.0,0.0,0.0,0.0,0.0,0.0,0.0,0.0,0.0,0.0,0.0,0.0,0.0,0.0,0.0,0.0,0.0,0.0,0.0,0.0,0.0,0.0,0.0,0.0,0.0,0.0,0.0,0.0,0.0,0.0,0.0,0.0,0.0,0.0,0.0,0.0,0.0,0.0,0.0,0.0,0.0,0.0,0.0,0.0,0.0,0.0,0.0,0.0,0.0,0.0,0.0,0.0,0.0,0.0,0.0,0.0,0.0,0.0,0.0,0.0,0.0,0.0,0.0,0.0,0.0,0.0,0.0,0.0,0.0,0.0,0.0,0.0,0.0,0.0,0.0,0.0,0.0,0.0,0.0,0.0,0.0,0.0,0.0,0.0,0.0,0.0,0.0,0.0,0.0,0.0,0.0,0.0,0.0,0.0,0.0,0.0,0.0,0.0,0.0,0.0,0.0,0.0,0.0,0.0,0.0,0.0,0.0,0.0,0.0,0.0,0.0,0.0,0.0,0.0,0.0,0.0,0.0,0.0,0.0,0.0,0.0,0.0,0.0,0.0,0.0,0.0,0.0,0.0,0.0,0.0,0.0,0.0,0.0,0.0,0.0,0.0,0.0,0.0,0.0,0.0,0.0,0.0,0.0,0.0,0.0,0.0,0.0,0.0,0.0,0.0,0.0,0.0,0.0,0.0,0.0,0.0,0.0,0.0,0.0,0.0,0.0,0.0,0.0,0.0,0.0,0.0,0.0,0.0,0.0,0.0,0.0,0.0,0.0,0.0,0.0,0.0,0.0,0.0,0.0,0.0,0.0,0.0,0.0,0.0,0.0,0.0,0.0,0.0,0.0,0.0,0.0,0.0,0.0,0.0,0.0,0.0,0.0,0.0,0.0,0.0,0.0,0.0,0.0,0.0,0.0,0.0,0.0,0.0,0.0,0.0,0.0,0.0,0.0,0.0,0.0,0.0,0.0,0.0,0.0,0.0,0.0,0.0,0.0,0.0,0.0,0.0,0.0,0.0,0.0,0.0,0.0,0.0,0.0,0.0,0.0,0.0,0.0,0.0,0.0,0.0,0.0,0.0,0.0,0.0,0.0,0.0,0.0,0.0,0.0,0.0,0.0,0.0,0.0,0.0,0.0,0.0,0.0,0.0,0.0,0.0,0.0,0.0,0.0,0.0,0.0,0.0,0.0,0.0,0.0,0.0,0.0,0.0,0.0,0.0,0.0,0.0,0.0,0.0,0.0,0.0,0.0,0.0,0.0,0.0,0.0,0.0,0.0,0.0,0.0,0.0,0.0,0.0,0.0,0.0,0.0,0.0,0.0,0.0,0.0,0.0,0.0,0.0,0.0,0.0,0.0,0.0,0.0,0.0,0.0,0.0,0.0,0.0,0.0,0.0,0.0,0.0,0.0,0.0,0.0,0.0,0.0,0.0,0.0,0.0,0.0,0.0,0.0,0.0,0.0,0.0,0.0,0.0,0.0,0.0,0.0,0.0,0.0,0.0,0.0,0.0,0.0,0.0,0.0,0.0,0.0,0.0,0.0,0.0,0.0,0.0,0.0,0.0,0.0,0.0,0.0,0.0,0.0,0.0,0.0,0.0,0.0,0.0,0.0,0.0,0.0,0.0,0.0,0.0,0.0,0.0,0.0,0.0,0.0,0.0,0.0,0.0,0.0,0.0,0.0,0.0,0.0,0.0,0.0,0.0,0.0,0.0,0.0,0.0,0.0,0.0,0.0,0.0,0.0,0.0,0.0,0.0,0.0,0.0,0.0,0.0,0.0,0.0,0.0,0.0,0.0,0.0,0.0,0.0,0.0,0.0,0.0,0.0,0.0,0.0,0.0,0.0,0.0,0.0,0.0,0.0,0.0,0.0,0.0,0.0,0.0,0.0,0.0,0.0,0.0,0.0,0.0,0.0,0.0,0.0,0.0,0.0,0.0,0.0,0.0,0.0,0.0,0.0,0.0,0.0,0.0,0.0,0.0,0.0,0.0,0.0,0.0,0.0,0.0,0.0,0.0,0.0,0.0,0.0,0.0,0.0,0.0,0.0,0.0,0.0,0.0,0.0,0.0,0.0,0.0,0.0,0.0,0.0,0.0,0.0,0.0,0.0,0.0,0.0,0.0,0.0,0.0,0.0,0.0,0.0,0.0,0.0,0.0,0.0,0.0,0.0,0.0,0.0,0.0,0.0,0.0,0.0,0.0,0.0,0.0,0.0,0.0,0.0,0.0,0.0,0.0,0.0,0.0,0.0,0.0,0.0,0.0,0.0,0.0,0.0,0.0,0.0,0.0,0.0,0.0,0.0,0.0,0.0,0.0,0.0,0.0,0.0,0.0,0.0,0.0,0.0,0.0,0.0,0.0,0.0,0.0,0.0,0.0,0.0,0.0,0.0,0.0,0.0,0.0,0.0,0.0,0.0,0.0,0.0,0.0,0.0,0.0,0.0,0.0,0.0,0.0,0.0,0.0,0.0,0.0,0.0,0.0,0.0,0.0,0.0,0.0,0.0,0.0,0.0,0.0,0.0,0.0,0.0,0.0,0.0,0.0,0.0,0.0,0.0,0.0,0.0,0.0,0.0,0.0,0.0,0.0,0.0,0.0,0.0,0.0,0.0,0.0,0.0,0.0,0.0,0.0,0.0,0.0,0.0,0.0,0.0,0.0,0.0,0.0,0.0,0.0,0.0,0.0,0.0,0.0,0.0,0.0,0.0,0.0,0.0,0.0,0.0,0.0,0.0,0.0,0.0,0.0,0.0,0.0,0.0,0.0,0.0,0.0,0.0,0.0,0.0,0.0,0.0,0.0,0.0,0.0,0.0,0.0,0.0,0.0,0.0,0.0,0.0,0.0,0.0,0.0,0.0,0.0,0.0,0.0,0.0,0.0,0.0,0.0,0.0,0.0,0.0,0.0,0.0,0.0,0.0,0.0,0.0,0.0,0.0,0.0,0.0,0.0,0.0,0.0,0.0,0.0,0.0,0.0,0.0,0.0,0.0,0.0,0.0,0.0,0.0,0.0,0.0,0.0,0.0,0.0,0.0,0.0,0.0,0.0,0.0,0.0,0.0,0.0,0.0,0.0,0.0,0.0,0.0,0.0,0.0,0.0,0.0,0.0,0.0,0.0,0.0,0.0,0.0,0.0,0.0,0.0,0.0,0.0,0.0,0.0,0.0,0.0,0.0,0.0,0.0,0.0,0.0,0.0,0.0,0.0,0.0,0.0,0.0,0.0,0.0,0.0,0.0,0.0,0.0,0.0,0.0,0.0,0.0,0.0,0.0,0.0,0.0,0.0,0.0,0.0,0.0,0.0,0.0,0.0,0.0,0.0,0.0,0.0,0.0,0.0,0.0,0.0,0.0,0.0,0.0,0.0,0.0,0.0,0.0,0.0,0.0,0.0,0.0,0.0,0.0,0.0,0.0,0.0,0.0,0.0,0.0,0.0,0.0,0.0,0.0,0.0,0.0,0.0,0.0,0.0,0.0,0.0,0.0,0.0,0.0,0.0,0.0,0.0,0.0,0.0,0.0,0.0,0.0,0.0,0.0,0.0,0.0,0.0,0.0,0.0,0.0,0.0,0.0,0.0,0.0,0.0,0.0,0.0,0.0,0.0,0.0,0.0,0.0,0.0,0.0,0.0,0.0,0.0,0.0,0.0,0.0,0.0,0.0,0.0,0.0,0.0,0.0,0.0,0.0,0.0,0.0,0.0,0.0,0.0,0.0,0.0,0.0,0.0,0.0,0.0,0.0,0.0,0.0,0.0,0.0,0.0,0.0,0.0,0.0,0.0,0.0,0.0,0.0,0.0,0.0,0.0,0.0,0.0,0.0,0.0,0.0,0.0,0.0,0.0,0.0,0.0,0.0,0.0,0.0,0.0,0.0,0.0,0.0,0.0,0.0,0.0,0.0,0.0,0.0,0.0,0.0,0.0,0.0,0.0,0.0,0.0,0.0,0.0,0.0,0.0,0.0,0.0,0.0,0.0,0.0,0.0,0.0,0.0,0.0,0.0,0.0,0.0,0.0,0.0,0.0,0.0,0.0,0.0,0.0,0.0,0.0,0.0,0.0,0.0,0.0,0.0,0.0,0.0,0.0,0.0,0.0,0.0,0.0,0.0,0.0,0.0,0.0,0.0,0.0,0.0,0.0,0.0,0.0,-1.5555,0.0,0.0,0.0,0.0,0.0,0.0,0.0,0.0,0.0,0.0,0.0,0.0,0.0,0.0,0.0,0.0,0.0,0.0,0.0,0.0,0.0,0.0,0.0,0.0,0.0,0.0,0.0,0.0,0.0,0.0,0.0,0.0,0.0,0.0,0.0,0.0,0.0,0.0,0.0,0.0,0.0,0.0,0.0,0.0,0.0,0.0,0.0,0.0,0.0,0.0,0.0,0.0,0.0,0.0,0.0,0.0,0.0,0.0,0.0,0.0,0.0,0.0,0.0,0.0,0.0,0.0,0.0,0.0,0.0,0.0,0.0,0.0,0.0,0.0,0.0,0.0,0.0,0.0,0.0,0.0,0.0,0.0,0.0,0.0,0.0,0.0,0.0,0.0,0.0,0.0,0.0,0.0,0.0,0.0,0.0,0.0,0.0,0.0,0.0,0.0,0.0,0.0,0.0,0.0,0.0,0.0,0.0,0.0,0.0,0.0,-1.8659,-1.8409,-1.7601,-1.7075,-1.6914,0.0,0.0,0.0,0.0,0.0,0.0,0.0,0.0,0.0,0.0,0.0,0.0,0.0,0.0,0.0,0.0,0.0,0.0,0.0,0.0,0.0,0.0,0.0,0.0,0.0,0.0,0.0,0.0,0.0,0.0,0.0,0.0,0.0,0.0,0.0,0.0,0.0,0.0,0.0,0.0,0.0,0.0,0.0,0.0,0.0,0.0,0.0,0.0,0.0,0.0,0.0,0.0,0.0,0.0,0.0,0.0,0.0,0.0,0.0,0.0,0.0,0.0,0.0,0.0,0.0,0.0,0.0,0.0,0.0,0.0,0.0,0.0,0.0,0.0,0.0,0.0,0.0,0.0,0.0,0.0,0.0,0.0,0.0,0.0,0.0,0.0,0.0,0.0,0.0,0.0,0.0,0.0,0.0,0.0,0.0,0.0,0.0,0.0,0.0,0.0,0.0,0.0,0.0,0.0,0.0,0.0,0.0,0.0,0.0,0.0,0.0,0.0,-1.884,-1.8344,-1.8259,0.0,0.0,0.0,0.0,0.0,0.0,0.0,0.0,0.0,0.0,0.0,0.0,0.0,0.0,0.0,0.0,0.0,0.0,0.0,0.0,0.0,0.0,0.0,0.0,0.0,0.0,0.0,0.0,0.0,0.0,0.0,0.0,0.0,0.0,0.0,0.0,0.0,0.0,0.0,0.0,0.0,0.0,0.0,0.0,0.0,0.0,0.0,0.0,0.0,0.0,0.0,0.0,0.0,0.0,0.0,0.0,0.0,0.0,0.0,0.0,0.0,0.0,0.0,0.0,0.0,0.0,0.0,0.0,0.0,0.0,0.0,0.0,0.0,0.0,0.0,0.0,0.0,0.0,0.0,0.0,0.0,0.0,0.0,0.0,0.0,0.0,0.0,0.0,0.0,0.0,0.0,0.0,0.0,0.0,0.0,0.0,0.0,0.0,0.0,0.0,0.0,0.0,0.0,0.0,0.0,0.0,0.0,0.0,0.0,0.0,-2.0668,-2.1032,-1.982,0.0,-1.8921,0.0,0.0,0.0,0.0,0.0,0.0,0.0,0.0,0.0,0.0,0.0,0.0,0.0,0.0,0.0,0.0,0.0,0.0,0.0,0.0,0.0,0.0,0.0,0.0,0.0,0.0,0.0,0.0,0.0,0.0,0.0,0.0,0.0,0.0,0.0,0.0,0.0,0.0,0.0,0.0,0.0,0.0,0.0,0.0,0.0,0.0,0.0,0.0,0.0,0.0,0.0,0.0,0.0,0.0,0.0,0.0,0.0,0.0,0.0,0.0,0.0,0.0,0.0,0.0,0.0,0.0,0.0,0.0,0.0,0.0,0.0,0.0,0.0,0.0,0.0,0.0,0.0,0.0,0.0,0.0,0.0,0.0,0.0,0.0,0.0,0.0,0.0,0.0,0.0,0.0,0.0,0.0,0.0,0.0,0.0,0.0,0.0,0.0,0.0,0.0,0.0,0.0,0.0,0.0,0.0,0.0,0.0,0.0,0.0,0.0,-2.1635,-2.1841,-2.0872,-2.0183,0.0,0.0,0.0,0.0,0.0,0.0,0.0,0.0,0.0,0.0,0.0,0.0,0.0,0.0,0.0,0.0,0.0,0.0,0.0,0.0,0.0,0.0,0.0,0.0,0.0,0.0,0.0,0.0,0.0,0.0,0.0,0.0,0.0,0.0,0.0,0.0,0.0,0.0,0.0,0.0,0.0,0.0,0.0,0.0,0.0,0.0,0.0,0.0,0.0,0.0,0.0,0.0,0.0,0.0,0.0,0.0,0.0,0.0,0.0,0.0,0.0,0.0,0.0,0.0,0.0,0.0,0.0,0.0,0.0,0.0,0.0,0.0,0.0,0.0,0.0,0.0,0.0,0.0,0.0,0.0,0.0,0.0,0.0,0.0,0.0,0.0,0.0,0.0,0.0,0.0,0.0,0.0,0.0,0.0,0.0,0.0,0.0,0.0,0.0,0.0,0.0,0.0,0.0,0.0,0.0,0.0,0.0,0.0,0.0,0.0,-2.2307,-2.2159,-2.2428,-2.1713,-2.1124,-2.0936,0.0,0.0,0.0,0.0,0.0,0.0,0.0,0.0,0.0,0.0,0.0,0.0,0.0,0.0,0.0,0.0,0.0,0.0,0.0,0.0,0.0,0.0,0.0,0.0,0.0,0.0,0.0,0.0,0.0,0.0,0.0,0.0,0.0,0.0,0.0,0.0,0.0,0.0,0.0,0.0,0.0,0.0,0.0,0.0,0.0,0.0,0.0,0.0,0.0,0.0,0.0,0.0,0.0,0.0,0.0,0.0,0.0,0.0,0.0,0.0,0.0,0.0,0.0,0.0,0.0,0.0,0.0,0.0,0.0,0.0,0.0,0.0,0.0,0.0,0.0,0.0,0.0,0.0,0.0,0.0,0.0,0.0,0.0,0.0,0.0,0.0,0.0,0.0,0.0,0.0,0.0,0.0,0.0,0.0,0.0,0.0,0.0,0.0,0.0,0.0,0.0,0.0,0.0,0.0,0.0,0.0,0.0,0.0,-2.3549,-2.2407,-2.2116,-2.2765,-2.2044,-2.1688,0.0,0.0,0.0,0.0,0.0,0.0,0.0,0.0,0.0,0.0,0.0,0.0,0.0,0.0,0.0,0.0,0.0,0.0,0.0,0.0,0.0,0.0,0.0,0.0,0.0,0.0,0.0,0.0,0.0,0.0,0.0,0.0,0.0,0.0,0.0,0.0,0.0,0.0,0.0,0.0,0.0,0.0,0.0,0.0,0.0,0.0,0.0,0.0,0.0,0.0,0.0,0.0,0.0,0.0,0.0,0.0,0.0,0.0,0.0,0.0,0.0,0.0,0.0,0.0,0.0,0.0,0.0,0.0,0.0,0.0,0.0,0.0,0.0,0.0,0.0,0.0,0.0,0.0,0.0,0.0,0.0,0.0,0.0,0.0,0.0,0.0,0.0,0.0,0.0,0.0,0.0,0.0,0.0,0.0,0.0,0.0,0.0,0.0,0.0,0.0,0.0,0.0,0.0,0.0,0.0,0.0,0.0,0.0,0.0,-2.2293,-2.1928,-2.1997,-2.2502,-2.1759,-2.1447,0.0,0.0,0.0,0.0,0.0,0.0,0.0,0.0,0.0,0.0,0.0,0.0,0.0,0.0,0.0,0.0,0.0,0.0,0.0,0.0,0.0,0.0,0.0,0.0,0.0,0.0,0.0,0.0,0.0,0.0,0.0,0.0,0.0,0.0,0.0,0.0,0.0,0.0,0.0,0.0,0.0,0.0,0.0,0.0,0.0,0.0,0.0,0.0,0.0,0.0,0.0,0.0,0.0,0.0,0.0,0.0,0.0,0.0,0.0,0.0,0.0,0.0,0.0,0.0,0.0,0.0,0.0,0.0,0.0,0.0,0.0,0.0,0.0,0.0,0.0,0.0,0.0,0.0,0.0,0.0,0.0,0.0,0.0,0.0,0.0,0.0,0.0,0.0,0.0,0.0,0.0,0.0,0.0,0.0,0.0,0.0,0.0,0.0,0.0,0.0,0.0,0.0,0.0,0.0,0.0,0.0,0.0,0.0,0.0,-2.1581,0.0,-2.1997,-2.2098,-2.1465,-2.117,0.0,0.0,0.0,0.0,0.0,0.0,0.0,0.0,0.0,0.0,0.0,0.0,0.0,0.0,0.0,0.0,0.0,0.0,0.0,0.0,0.0,0.0,0.0,0.0,0.0,0.0,0.0,0.0,0.0,0.0,0.0,0.0,0.0,0.0,0.0,0.0,0.0,0.0,0.0,0.0,0.0,0.0,0.0,0.0,0.0,0.0,0.0,0.0,0.0,0.0,0.0,0.0,0.0,0.0,0.0,0.0,0.0,0.0,0.0,0.0,0.0,0.0,0.0,0.0,0.0,0.0,0.0,0.0,0.0,0.0,0.0,0.0,0.0,0.0,0.0,0.0,0.0,0.0,0.0,0.0,0.0,0.0,0.0,0.0,0.0,0.0,0.0,0.0,0.0,0.0,0.0,0.0,0.0,0.0,0.0,0.0,0.0,0.0,0.0,0.0,0.0,0.0,0.0,0.0,0.0,0.0,0.0,0.0,-2.1562,-2.1713,-2.208,-2.2107,-2.1768,-2.1328,-2.0911,0.0,0.0,0.0,0.0,0.0,0.0,0.0,0.0,0.0,0.0,0.0,0.0,0.0,0.0,0.0,0.0,0.0,0.0,0.0,0.0,0.0,0.0,0.0,0.0,0.0,0.0,0.0,0.0,0.0,0.0,0.0,0.0,0.0,0.0,0.0,0.0,0.0,0.0,0.0,0.0,0.0,0.0,0.0,0.0,0.0,0.0,0.0,0.0,0.0,0.0,0.0,0.0,0.0,0.0,0.0,0.0,0.0,0.0,0.0,0.0,0.0,0.0,0.0,0.0,0.0,0.0,0.0,0.0,0.0,0.0,0.0,0.0,0.0,0.0,0.0,0.0,0.0,0.0,0.0,0.0,0.0,0.0,0.0,0.0,0.0,0.0,0.0,0.0,0.0,0.0,0.0,0.0,0.0,0.0,0.0,0.0,0.0,0.0,0.0,0.0,0.0,0.0,0.0,0.0,0.0,0.0,0.0,0.0,0.0,-2.1291,-2.1429,-2.1841,-2.2492,-2.1434,-2.1183,0.0,0.0,0.0,0.0,0.0,0.0,0.0,0.0,0.0,0.0,0.0,0.0,0.0,0.0,0.0,0.0,0.0,0.0,0.0,0.0,0.0,0.0,0.0,0.0,0.0,0.0,0.0,0.0,0.0,0.0,0.0,0.0,0.0,0.0,0.0,0.0,0.0,0.0,0.0,0.0,0.0,0.0,0.0,0.0,0.0,0.0,0.0,0.0,0.0,0.0,0.0,0.0,0.0,0.0,0.0,0.0,0.0,0.0,0.0,0.0,0.0,0.0,0.0,0.0,0.0,0.0,0.0,0.0,0.0,0.0,0.0,0.0,0.0,0.0,0.0,0.0,0.0,0.0,0.0,0.0,0.0,0.0,0.0,0.0,0.0,0.0,0.0,0.0,0.0,0.0,0.0,0.0,0.0,0.0,0.0,0.0,0.0,0.0,0.0,0.0,0.0,0.0,0.0,0.0,0.0,0.0,0.0,0.0,0.0,-2.2727,-2.1989,-2.203,-2.3016,-2.1774,-2.1334,-2.21,0.0,0.0,0.0,0.0,0.0,0.0,0.0,0.0,0.0,0.0,0.0,0.0,0.0,0.0,0.0,0.0,0.0,0.0,0.0,0.0,0.0,0.0,0.0,0.0,0.0,0.0,0.0,0.0,0.0,0.0,0.0,0.0,0.0,0.0,0.0,0.0,0.0,0.0,0.0,0.0,0.0,0.0,0.0,0.0,0.0,0.0,0.0,0.0,0.0,0.0,0.0,0.0,0.0,0.0,0.0,0.0,0.0,0.0,0.0,0.0,0.0,0.0,0.0,0.0,0.0,0.0,0.0,0.0,0.0,0.0,0.0,0.0,0.0,0.0,0.0,0.0,0.0,0.0,0.0,0.0,0.0,0.0,0.0,0.0,0.0,0.0,0.0,0.0,0.0,0.0,0.0,0.0,0.0,0.0,0.0,0.0,0.0,0.0,0.0,0.0,0.0,0.0,0.0,0.0,0.0,0.0,0.0,0.0,-2.5675,-2.358,-2.2815,-2.3515,-2.2332,-2.1681,0.0,0.0,0.0,0.0,0.0,0.0,0.0,0.0,0.0,0.0,0.0,0.0,0.0,0.0,0.0,0.0,0.0,0.0,0.0,0.0,0.0,0.0,0.0,0.0,0.0,0.0,0.0,0.0,0.0,0.0,0.0,0.0,0.0,0.0,0.0,0.0,0.0,0.0,0.0,0.0,0.0,0.0,0.0,0.0,0.0,0.0,0.0,0.0,0.0,0.0,0.0,0.0,0.0,0.0,0.0,0.0,0.0,0.0,0.0,0.0,0.0,0.0,0.0,0.0,0.0,0.0,0.0,0.0,0.0,0.0,0.0,0.0,0.0,0.0,0.0,0.0,0.0,0.0,0.0,0.0,0.0,0.0,0.0,0.0,0.0,0.0,0.0,0.0,0.0,0.0,0.0,0.0,0.0,0.0,0.0,0.0,0.0,0.0,0.0,0.0,0.0,0.0,0.0,0.0,0.0,0.0,0.0,0.0,0.0,-2.6582,-2.5737,-2.548,-2.6017,-2.456,-2.3909,0.0,0.0,0.0,0.0,0.0,0.0,0.0,0.0,0.0,0.0,0.0,0.0,0.0,0.0,0.0,0.0,0.0,0.0,0.0,0.0,0.0,0.0,0.0,0.0,0.0,0.0,0.0,0.0,0.0,0.0,0.0,0.0,0.0,0.0,0.0,0.0,0.0,0.0,0.0,0.0,0.0,0.0,0.0,0.0,0.0,0.0,0.0,0.0,0.0,0.0,0.0,0.0,0.0,0.0,0.0,0.0,0.0,0.0,0.0,0.0,0.0,0.0,0.0,0.0,0.0,0.0,0.0,0.0,0.0,0.0,0.0,0.0,0.0,0.0,0.0,0.0,0.0,0.0,0.0,0.0,0.0,0.0,0.0,0.0,0.0,0.0,0.0,0.0,0.0,0.0,0.0,0.0,0.0,0.0,0.0,0.0,0.0,0.0,0.0,0.0,0.0,0.0,0.0,0.0,0.0,0.0,0.0,0.0,-2.63,-2.8122,-2.7741,-2.7944,-2.88,-2.6704,-2.5579,0.0,0.0,0.0,0.0,0.0,0.0,0.0,0.0,0.0,0.0,0.0,0.0,0.0,0.0,0.0,0.0,0.0,0.0,0.0,0.0,0.0,0.0,0.0,0.0,0.0,0.0,0.0,0.0,0.0,0.0,0.0,0.0,0.0,0.0,0.0,0.0,0.0,0.0,0.0,0.0,0.0,0.0,0.0,0.0,0.0,0.0,0.0,0.0,0.0,0.0,0.0,0.0,0.0,0.0,0.0,0.0,0.0,0.0,0.0,0.0,0.0,0.0,0.0,0.0,0.0,0.0,0.0,0.0,0.0,0.0,0.0,0.0,0.0,0.0,0.0,0.0,0.0,0.0,0.0,0.0,0.0,0.0,0.0,0.0,0.0,0.0,0.0,0.0,0.0,0.0,0.0,0.0,0.0,0.0,0.0,0.0,0.0,0.0,0.0,0.0,0.0,0.0,0.0,0.0,0.0,0.0,0.0,0.0,-2.7256,-2.9533,-2.9543,-3.0016,-3.098,-2.853,-2.6871,0.0,0.0,0.0,0.0,0.0,0.0,0.0,0.0,0.0,0.0,0.0,0.0,0.0,0.0,0.0,0.0,0.0,0.0,0.0,0.0,0.0,0.0,0.0,0.0,0.0,0.0,0.0,0.0,0.0,0.0,0.0,0.0,0.0,0.0,0.0,0.0,0.0,0.0,0.0,0.0,0.0,0.0,0.0,0.0,0.0,0.0,0.0,0.0,0.0,0.0,0.0,0.0,0.0,0.0,0.0,0.0,0.0,0.0,0.0,0.0,0.0,0.0,0.0,0.0,0.0,0.0,0.0,0.0,0.0,0.0,0.0,0.0,0.0,0.0,0.0,0.0,0.0,0.0,0.0,0.0,0.0,0.0,0.0,0.0,0.0,0.0,0.0,0.0,0.0,0.0,0.0,0.0,0.0,0.0,0.0,0.0,0.0,0.0,0.0,0.0,0.0,0.0,0.0,0.0,0.0,0.0,0.0,0.0,-2.7301,-2.9,-2.9474,-2.9782,-2.9984,-2.9019,-2.8339,0.0,0.0,0.0,0.0,0.0,0.0,0.0,0.0,0.0,0.0,0.0,0.0,0.0,0.0,0.0,0.0,0.0,0.0,0.0,0.0,0.0,0.0,0.0,0.0,0.0,0.0,0.0,0.0,0.0,0.0,0.0,0.0,0.0,0.0,0.0,0.0,0.0,0.0,0.0,0.0,0.0,0.0,0.0,0.0,0.0,0.0,0.0,0.0,-2.2499,0.0,0.0,0.0,0.0,0.0,0.0,0.0,0.0,0.0,0.0,0.0,0.0,0.0,0.0,0.0,0.0,0.0,0.0,0.0,0.0,0.0,0.0,0.0,0.0,0.0,0.0,0.0,0.0,0.0,0.0,0.0,0.0,0.0,0.0,0.0,0.0,0.0,0.0,0.0,0.0,0.0,0.0,0.0,0.0,0.0,0.0,0.0,0.0,0.0,0.0,0.0,0.0,0.0,0.0,0.0,0.0,0.0,0.0,0.0,-2.7538,-2.8998,-2.9403,-2.9678,-2.9881,-2.9415,-2.8769,0.0,0.0,0.0,0.0,0.0,0.0,0.0,0.0,0.0,0.0,0.0,0.0,0.0,0.0,0.0,0.0,0.0,0.0,0.0,0.0,0.0,0.0,0.0,0.0,0.0,0.0,0.0,0.0,0.0,0.0,0.0,0.0,0.0,0.0,0.0,0.0,0.0,0.0,0.0,0.0,0.0,0.0,0.0,0.0,0.0,0.0,0.0,0.0,0.0,0.0,0.0,0.0,0.0,0.0,0.0,0.0,0.0,0.0,0.0,0.0,0.0,0.0,0.0,0.0,0.0,0.0,0.0,0.0,0.0,0.0,0.0,0.0,0.0,0.0,0.0,0.0,0.0,0.0,0.0,0.0,0.0,0.0,0.0,0.0,0.0,0.0,0.0,0.0,0.0,0.0,0.0,0.0,0.0,0.0,0.0,0.0,0.0,0.0,0.0,0.0,0.0,0.0,0.0,0.0,0.0,0.0,0.0,-2.6896,-2.7657,-2.9112,-2.9256,-2.9472,-2.9833,-2.9496,-2.8763,-2.7645,0.0,0.0,0.0,0.0,0.0,0.0,0.0,0.0,0.0,0.0,0.0,0.0,0.0,0.0,0.0,0.0,0.0,0.0,0.0,0.0,0.0,0.0,0.0,0.0,0.0,0.0,0.0,0.0,0.0,0.0,0.0,0.0,0.0,0.0,0.0,0.0,0.0,0.0,-2.5337,-2.5683,0.0,0.0,0.0,0.0,0.0,0.0,0.0,0.0,-2.4713,0.0,0.0,0.0,0.0,0.0,0.0,0.0,0.0,0.0,0.0,0.0,0.0,0.0,0.0,0.0,0.0,0.0,0.0,0.0,0.0,0.0,0.0,0.0,0.0,0.0,0.0,0.0,0.0,0.0,0.0,0.0,0.0,0.0,0.0,0.0,0.0,0.0,0.0,0.0,0.0,0.0,0.0,0.0,0.0,0.0,0.0,0.0,0.0,0.0,0.0,0.0,0.0,0.0,0.0,0.0,0.0,-2.756,-2.7152,-2.7488,-2.8607,-2.9076,-2.9124,-2.8799,-2.9112,-2.8662,-2.7378,0.0,0.0,0.0,0.0,0.0,0.0,0.0,0.0,0.0,0.0,0.0,0.0,0.0,0.0,0.0,0.0,0.0,0.0,0.0,0.0,0.0,0.0,0.0,0.0,0.0,0.0,0.0,0.0,0.0,0.0,0.0,0.0,0.0,0.0,0.0,0.0,0.0,0.0,0.0,-2.5997,-2.6265,0.0,0.0,0.0,0.0,0.0,0.0,0.0,0.0,-2.521,0.0,0.0,0.0,0.0,0.0,0.0,0.0,0.0,0.0,0.0,0.0,0.0,0.0,0.0,0.0,0.0,0.0,0.0,0.0,0.0,0.0,0.0,0.0,0.0,0.0,0.0,0.0,0.0,0.0,0.0,0.0,0.0,0.0,0.0,0.0,0.0,0.0,0.0,0.0,0.0,0.0,0.0,0.0,0.0,0.0,0.0,0.0,0.0,0.0,0.0,0.0,0.0,0.0,0.0,0.0,-2.6803,-2.6911,-2.744,-2.8474,-2.8763,-2.8775,-2.8522,-2.8486,-2.8071,0.0,0.0,0.0,0.0,0.0,0.0,0.0,0.0,0.0,0.0,0.0,0.0,0.0,0.0,0.0,0.0,0.0,0.0,0.0,0.0,0.0,0.0,0.0,0.0,0.0,0.0,0.0,0.0,0.0,0.0,0.0,0.0,0.0,0.0,0.0,0.0,0.0,0.0,0.0,0.0,-2.6769,-2.7044,-2.7136,0.0,0.0,0.0,0.0,0.0,0.0,-2.617,-2.5948,0.0,0.0,0.0,0.0,0.0,0.0,0.0,0.0,0.0,0.0,0.0,0.0,0.0,0.0,0.0,0.0,0.0,0.0,0.0,0.0,0.0,0.0,0.0,0.0,0.0,0.0,0.0,0.0,0.0,0.0,0.0,0.0,0.0,0.0,0.0,0.0,0.0,0.0,0.0,0.0,0.0,0.0,0.0,0.0,0.0,0.0,0.0,0.0,0.0,0.0,0.0,0.0,0.0,0.0,0.0,-2.6081,-2.6755,-2.7548,-2.8462,-2.851,-2.851,-2.8498,-2.8005,-2.7569,0.0,0.0,0.0,0.0,0.0,0.0,0.0,0.0,0.0,0.0,0.0,0.0,0.0,0.0,0.0,0.0,0.0,0.0,0.0,0.0,0.0,0.0,0.0,0.0,0.0,0.0,0.0,0.0,0.0,0.0,0.0,0.0,0.0,0.0,0.0,0.0,0.0,0.0,0.0,0.0,0.0,-2.7717,-2.7615,-2.7472,0.0,0.0,0.0,0.0,-2.6633,-2.678,0.0,0.0,0.0,0.0,0.0,0.0,0.0,0.0,0.0,0.0,0.0,0.0,0.0,0.0,0.0,0.0,0.0,0.0,0.0,0.0,0.0,0.0,0.0,0.0,0.0,0.0,0.0,0.0,0.0,0.0,0.0,0.0,0.0,0.0,0.0,0.0,0.0,0.0,0.0,0.0,0.0,0.0,0.0,0.0,0.0,0.0,0.0,0.0,0.0,0.0,0.0,0.0,0.0,0.0,0.0,0.0,-2.6117,-2.7115,-2.7909,-2.8474,-2.851,-2.851,-2.851,-2.8125,-2.7602,0.0,0.0,0.0,0.0,0.0,0.0,0.0,0.0,0.0,0.0,0.0,0.0,0.0,0.0,0.0,0.0,0.0,0.0,0.0,0.0,0.0,0.0,0.0,0.0,0.0,0.0,0.0,0.0,0.0,0.0,0.0,0.0,0.0,0.0,0.0,0.0,0.0,0.0,0.0,0.0,0.0,-2.7859,-2.8422,-2.7835,-2.7399,0.0,0.0,-2.7145,-2.6932,-2.7244,0.0,0.0,0.0,0.0,0.0,0.0,0.0,0.0,0.0,0.0,0.0,0.0,0.0,0.0,0.0,0.0,0.0,0.0,0.0,0.0,0.0,0.0,0.0,0.0,0.0,0.0,0.0,0.0,0.0,0.0,0.0,0.0,0.0,0.0,0.0,0.0,0.0,0.0,0.0,0.0,0.0,0.0,0.0,0.0,0.0,0.0,0.0,0.0,0.0,0.0,0.0,0.0,0.0,0.0,0.0,-2.4831,-2.5648,-2.6406,-2.7288,-2.8161,-2.7908,-2.7839,-2.7904,-2.7456,-2.6968,0.0,0.0,0.0,0.0,0.0,0.0,0.0,0.0,0.0,0.0,0.0,0.0,0.0,0.0,0.0,0.0,0.0,0.0,0.0,0.0,0.0,0.0,0.0,0.0,0.0,0.0,0.0,0.0,0.0,0.0,0.0,0.0,0.0,0.0,0.0,0.0,0.0,0.0,0.0,0.0,0.0,0.0,-2.9137,-2.8892,0.0,0.0,0.0,-2.7698,-2.7987,0.0,0.0,0.0,0.0,0.0,0.0,0.0,0.0,0.0,0.0,0.0,0.0,0.0,0.0,0.0,0.0,0.0,0.0,0.0,0.0,0.0,0.0,0.0,0.0,0.0,0.0,0.0,0.0,0.0,0.0,0.0,0.0,0.0,0.0,0.0,0.0,0.0,0.0,0.0,0.0,0.0,0.0,0.0,0.0,0.0,0.0,0.0,0.0,0.0,0.0,0.0,0.0,0.0,0.0,0.0,0.0,0.0,-2.5288,-2.6022,-2.6904,-2.794,-2.7478,-2.736,-2.7508,-2.7073,0.0,0.0,0.0,0.0,0.0,0.0,0.0,0.0,0.0,0.0,0.0,0.0,0.0,0.0,0.0,0.0,0.0,0.0,0.0,0.0,0.0,0.0,0.0,0.0,0.0,0.0,0.0,-2.6985,0.0,0.0,0.0,0.0,0.0,0.0,0.0,0.0,0.0,0.0,0.0,0.0,0.0,0.0,-2.9236,-3.001,-3.0063,-3.0099,0.0,0.0,-2.8684,-2.9125,-2.8774,-2.8422,0.0,0.0,0.0,0.0,0.0,0.0,0.0,0.0,0.0,0.0,0.0,0.0,0.0,0.0,0.0,0.0,0.0,0.0,0.0,0.0,0.0,0.0,0.0,0.0,0.0,0.0,0.0,0.0,0.0,0.0,0.0,0.0,0.0,0.0,0.0,0.0,0.0,0.0,0.0,0.0,0.0,0.0,0.0,0.0,0.0,0.0,0.0,0.0,0.0,0.0,0.0,0.0,0.0,0.0,0.0,-2.5324,-2.6469,-2.7405,-2.7952,-2.7629,-2.752,-2.7496,-2.717,-2.6729,0.0,0.0,0.0,0.0,0.0,0.0,0.0,0.0,0.0,0.0,0.0,0.0,0.0,0.0,0.0,0.0,0.0,0.0,0.0,0.0,0.0,0.0,0.0,0.0,0.0,0.0,0.0,0.0,0.0,0.0,0.0,0.0,0.0,0.0,0.0,0.0,0.0,0.0,0.0,0.0,0.0,-2.9671,-3.1023,-3.0983,-3.0908,0.0,0.0,-3.0498,-3.0124,-3.0416,-3.0316,-2.9295,0.0,0.0,0.0,0.0,0.0,0.0,0.0,0.0,0.0,0.0,0.0,0.0,0.0,0.0,0.0,0.0,0.0,0.0,0.0,0.0,0.0,0.0,0.0,0.0,0.0,0.0,0.0,0.0,0.0,0.0,0.0,0.0,0.0,0.0,0.0,0.0,0.0,0.0,0.0,0.0,0.0,0.0,0.0,0.0,0.0,0.0,0.0,0.0,0.0,0.0,0.0,0.0,0.0,-2.5083,-2.5188,-2.6375,-2.7306,-2.7978,-2.7556,-2.7588,-2.8111,-2.8014,-2.7455,0.0,0.0,0.0,0.0,0.0,0.0,0.0,0.0,0.0,0.0,0.0,0.0,0.0,0.0,0.0,0.0,0.0,0.0,0.0,0.0,0.0,0.0,0.0,0.0,0.0,0.0,0.0,0.0,-2.7737,-2.7683,-2.7559,0.0,0.0,0.0,0.0,0.0,0.0,0.0,0.0,0.0,0.0,-3.0653,-3.1192,-3.1492,0.0,0.0,-3.1575,-3.104,-3.1256,-3.0745,-3.0256,-2.9904,-2.9188,0.0,0.0,0.0,0.0,0.0,0.0,0.0,0.0,0.0,0.0,0.0,0.0,0.0,0.0,0.0,0.0,0.0,0.0,0.0,0.0,0.0,0.0,0.0,0.0,0.0,0.0,0.0,0.0,0.0,0.0,0.0,0.0,0.0,0.0,0.0,0.0,0.0,0.0,0.0,0.0,0.0,0.0,0.0,0.0,0.0,0.0,0.0,0.0,0.0,0.0,0.0,0.0,-2.5396,-2.5652,-2.6706,-2.7611,-2.8239,-2.7839,-2.7788,-2.8184,-2.8247,-2.7735,0.0,0.0,0.0,0.0,0.0,0.0,0.0,0.0,0.0,0.0,0.0,0.0,0.0,0.0,0.0,0.0,0.0,0.0,0.0,0.0,0.0,0.0,0.0,0.0,0.0,0.0,0.0,0.0,-2.7679,-2.7393,-2.7201,0.0,0.0,0.0,0.0,0.0,0.0,0.0,0.0,0.0,0.0,-3.1378,-3.1513,-3.2091,-3.2494,-3.2751,-3.1949,-3.1473,-3.1883,-3.1135,-3.0521,-3.0446,0.0,0.0,0.0,0.0,0.0,0.0,0.0,0.0,0.0,0.0,0.0,0.0,0.0,0.0,0.0,0.0,0.0,0.0,0.0,0.0,0.0,0.0,0.0,0.0,0.0,0.0,0.0,0.0,0.0,0.0,-1.7998,0.0,0.0,0.0,0.0,0.0,0.0,0.0,0.0,0.0,0.0,0.0,0.0,0.0,0.0,0.0,0.0,0.0,0.0,0.0,0.0,0.0,0.0,-2.5818,-2.694,-2.7704,-2.8371,-2.8919,-2.866,-2.8207,-2.7678,-2.764,-2.7323,-2.6735,0.0,0.0,0.0,0.0,0.0,0.0,0.0,0.0,0.0,0.0,0.0,0.0,0.0,0.0,0.0,0.0,0.0,0.0,0.0,0.0,0.0,0.0,0.0,0.0,0.0,0.0,-2.8695,-2.7549,-2.6756,0.0,0.0,0.0,0.0,0.0,0.0,0.0,0.0,0.0,0.0,-3.1485,-3.1724,-3.2286,-3.2835,-3.2807,-3.1738,-3.1979,-3.2148,-3.1654,-3.1551,-3.1443,0.0,0.0,0.0,0.0,0.0,0.0,0.0,0.0,0.0,0.0,0.0,0.0,0.0,0.0,0.0,0.0,0.0,0.0,0.0,0.0,0.0,0.0,0.0,0.0,0.0,0.0,0.0,-1.8428,-1.8428,0.0,0.0,0.0,0.0,0.0,0.0,0.0,0.0,0.0,0.0,0.0,-2.3255,-2.4137,0.0,0.0,0.0,0.0,0.0,0.0,0.0,0.0,0.0,0.0,0.0,0.0,-2.5471,-2.6209,-2.6845,-2.7672,-2.8699,-2.8194,-2.8019,-2.8337,-2.8355,-2.8052,-2.7544,0.0,0.0,0.0,0.0,0.0,0.0,0.0,0.0,0.0,0.0,0.0,0.0,0.0,0.0,0.0,0.0,0.0,0.0,0.0,0.0,0.0,0.0,0.0,0.0,0.0,-2.9363,0.0,0.0,0.0,0.0,0.0,0.0,0.0,0.0,0.0,0.0,0.0,-2.8976,-2.9827,-3.1375,-3.2184,-3.1574,-3.2369,-3.2723,0.0,0.0,0.0,0.0,0.0,0.0,0.0,0.0,0.0,0.0,0.0,0.0,0.0,0.0,-3.2904,-3.0132,-2.929,-2.8927,-2.8724,0.0,0.0,0.0,0.0,0.0,0.0,0.0,0.0,0.0,0.0,0.0,0.0,0.0,0.0,0.0,0.0,-1.9023,0.0,0.0,0.0,0.0,0.0,0.0,0.0,0.0,-2.3737,-2.3949,-2.3715,-2.4526,-2.4641,0.0,-2.438,-2.4067,0.0,0.0,0.0,0.0,0.0,0.0,0.0,0.0,-2.5455,-2.643,-2.6873,-2.7593,-2.8578,-2.8209,-2.8068,-2.8361,-2.8129,-2.7879,-2.7496,-2.7223,-2.7003,0.0,0.0,0.0,0.0,0.0,0.0,0.0,0.0,0.0,0.0,0.0,0.0,0.0,0.0,0.0,0.0,0.0,0.0,0.0,0.0,0.0,0.0,0.0,-2.8797,0.0,0.0,0.0,0.0,0.0,0.0,0.0,0.0,0.0,-2.7456,-2.8439,-2.9326,-2.9768,-3.124,-3.1968,-3.109,0.0,0.0,0.0,0.0,0.0,0.0,0.0,-3.0649,-3.0773,-3.0773,-3.0688,-3.0506,-3.1478,-3.2124,-3.1565,0.0,0.0,-3.0729,-3.0161,-3.0016,-3.0016,-3.0495,-3.0785,-3.0364,-3.093,-3.1395,0.0,0.0,0.0,0.0,0.0,0.0,0.0,0.0,-1.9336,-1.9326,0.0,-1.9687,0.0,0.0,0.0,0.0,0.0,0.0,0.0,0.0,-2.3879,-2.4017,-2.3991,-2.4067,-2.3766,-2.324,-2.4782,-2.4695,-2.3226,-2.3103,0.0,0.0,0.0,0.0,0.0,0.0,-2.5904,-2.7573,-2.7655,-2.8025,-2.8637,-2.8608,-2.8318,-2.7654,-2.7113,-2.6875,-2.6846,-2.6966,-2.7003,-2.6989,-2.7018,0.0,0.0,0.0,0.0,0.0,0.0,0.0,0.0,0.0,0.0,0.0,0.0,0.0,0.0,0.0,0.0,0.0,0.0,0.0,0.0,-2.7737,0.0,0.0,0.0,0.0,0.0,0.0,0.0,0.0,0.0,0.0,-2.8168,-2.8827,-2.964,-3.0825,0.0,0.0,0.0,0.0,-3.1447,-3.0311,-3.0625,-3.0811,-3.0225,-3.0233,-3.0326,-3.0326,0.0,0.0,-2.9856,-3.0263,-3.0539,-2.9827,-3.0895,-3.1976,-3.3235,-3.2742,-3.228,-3.228,-3.1801,-3.1526,-3.1558,-3.1562,-3.1635,-2.0999,0.0,0.0,0.0,0.0,-1.9736,-1.9912,-2.0195,-2.0195,-2.0019,-1.9717,-1.9541,0.0,0.0,0.0,0.0,0.0,0.0,-2.2416,-2.3304,-2.4028,-2.4254,-2.4017,-2.4782,-2.487,-2.4356,-2.4418,-2.4205,-2.3753,-2.3339,-2.3125,-2.3125,0.0,0.0,0.0,0.0,-2.5253,-2.6905,-2.6665,-2.6972,-2.7984,-2.7563,-2.7229,-2.7055,-2.7001,-2.6989,-2.7078,-2.7196,-2.7314,-2.7299,-2.7401,0.0,0.0,0.0,0.0,0.0,0.0,0.0,0.0,0.0,0.0,0.0,0.0,0.0,0.0,0.0,0.0,0.0,0.0,0.0,-2.7665,-2.7737,-2.7737,0.0,0.0,0.0,0.0,0.0,0.0,0.0,0.0,0.0,-2.8539,-2.9103,-2.9811,0.0,0.0,-3.118,-3.0794,-3.1209,-3.1325,-3.0563,0.0,0.0,0.0,-3.0387,-3.0326,-3.0507,-3.0884,-3.1337,-3.1642,-3.1845,-3.1868,-3.1604,-3.2318,-3.3006,-3.3185,-3.2482,-3.1678,-3.1316,-3.1674,-3.2153,-3.2168,-3.2452,-3.2556,-2.2441,-2.0937,-2.0771,-2.0596,-2.0439,-2.0439,-2.0488,-2.0576,-2.0576,-2.042,-2.0166,-2.0098,-1.9693,-1.916,-1.9589,0.0,0.0,0.0,-2.269,-2.3502,-2.3829,-2.3966,-2.4042,-2.4657,-2.4682,-2.4167,-2.4054,-2.3879,-2.364,-2.3301,-2.3125,-2.3125,0.0,0.0,-2.4452,-2.4465,-2.5254,-2.6716,-2.62,-2.6349,-2.7277,-2.6982,-2.6794,-2.6794,-2.6951,-2.7055,-2.7093,-2.7299,-2.7282,-2.703,-2.7354,-2.7056,0.0,0.0,0.0,0.0,0.0,0.0,0.0,0.0,0.0,0.0,0.0,-2.6696,0.0,0.0,0.0,0.0,-2.5783,-2.6265,-2.7258,-2.736,0.0,0.0,0.0,0.0,0.0,0.0,0.0,-2.7049,-2.7974,-2.8714,-2.8946,-2.9537,-3.0119,-3.054,-3.1143,-3.1291,-3.0686,0.0,-3.1003,-3.0626,-3.0642,-3.0642,-3.0582,-3.0507,-3.0447,-3.0568,-3.0887,-3.1134,-3.1308,-3.1489,-3.1529,-3.1394,-3.1928,-3.2405,-3.2103,-3.1649,-3.149,-3.1573,-3.1958,-3.2282,-3.2282,-3.2513,-3.2627,-2.331,-2.2539,-2.2139,-2.1689,-2.125,-2.1269,-2.1006,-2.0576,-2.0605,-2.0605,-2.0596,-2.1036,-2.0574,-1.9613,-2.0423,0.0,-2.2909,-2.3017,-2.3414,-2.3904,-2.3389,-2.3414,-2.3929,-2.3929,-2.3653,-2.309,-2.3678,-2.3653,-2.3103,-2.3138,-2.3125,-2.3198,-2.3826,-2.4465,-2.4964,-2.5021,-2.5646,-2.6779,-2.6286,-2.6233,-2.6779,-2.6779,-2.6846,-2.6832,-2.6893,-2.6982,-2.6982,-2.7115,-2.6971,-2.6406,-2.6926,-2.6708,-2.5597,0.0,0.0,0.0,0.0,0.0,0.0,0.0,0.0,0.0,0.0,0.0,0.0,0.0,0.0,0.0,-2.58,0.0,-2.6774,-2.6832,0.0,0.0,0.0,-2.687,-2.6937,-2.7291,-2.7565,-2.7565,0.0,0.0,-2.9265,0.0,-3.0556,-3.0558,-3.1072,-3.1306,-3.0747,-3.0642,-3.0553,-3.048,-3.0539,-3.0613,-3.0451,-3.0437,-3.0437,-3.0437,-3.0511,-3.0309,-2.9842,-3.0098,-3.0108,-2.9862,-3.0438,-3.1008,-3.0438,-3.0892,-3.1514,-3.2622,-3.241,-3.2002,-3.1971,-3.2004,-3.1951,-2.3477,-2.2978,-2.2881,-2.2217,-2.1279,-2.1592,-2.1289,-2.0605,-2.0928,-2.0889,-2.0634,-2.1151,-2.1546,-2.1941,-2.2226,-2.258,-2.3078,-2.3078,-2.3213,-2.3326,-2.314,-2.3153,-2.3339,-2.3339,-2.3263,-2.309,-2.3288,-2.3203,-2.3078,-2.3125,-2.3365,-2.3897,-2.4452,-2.4838,-2.5021,-2.5425,-2.6056,-2.6794,-2.6674,-2.6727,-2.6951,-2.6951,-2.7003,-2.7078,-2.671,-2.6559,-2.6559,-2.6217,-2.5971,-2.5821,-2.5956,-2.5657,-2.4866,-2.497,0.0,0.0,0.0,0.0,0.0,0.0,0.0,0.0,0.0,-2.5448,-2.5106,0.0,-2.4978,0.0,-2.6713,-2.707,-2.7115,-2.6989,0.0,0.0,-2.7393,-2.7479,-2.7864,-2.8046,-2.8094,-2.8094,-2.8656,-2.9149,-2.93,-3.0262,-3.0768,-3.0372,-3.1005,-3.1437,-3.1263,-3.0866,-3.0393,-3.0001,-3.0248,-3.0393,-2.9943,-2.9842,-2.9842,-2.9856,-2.9765,-2.9618,-2.947,-2.9862,-3.0333,-3.0592,-3.088,-3.1209,-3.1421,-3.1261,-3.1052,-3.1406,-3.1381,-3.133,-3.133,-3.1255,-3.0927,-2.3428,-2.2881,-2.3066,-2.2432,-2.1238,-2.1719,-2.1377,-2.0615,-2.1045,-2.0889,-2.0473,-2.0762,-2.155,-2.255,-2.2503,-2.2714,-2.3078,-2.3125,-2.294,-2.2774,-2.2774,-2.2774,-2.2761,-2.2702,-2.2827,-2.3125,-2.3125,-2.3125,-2.3125,-2.3125,-2.3437,-2.4131,-2.4738,-2.5175,-2.5508,-2.6042,-2.6447,-2.6779,-2.6832,-2.6899,-2.6989,-2.6777,-2.6652,-2.6739,-2.6204,-2.5976,-2.5976,-2.5714,-2.548,-2.5196,-2.545,-2.5181,-2.4238,-2.4418,-2.4313,0.0,0.0,0.0,0.0,0.0,0.0,0.0,0.0,0.0,0.0,0.0,-2.526,-2.6564,-2.7243,-2.7659,-2.7864,-2.7795,-2.7845,-2.8027,-2.8061,-2.8094,-2.8304,-2.8543,-2.8748,-2.8638,-2.8996,-2.9278,-2.9548,-3.0195,-3.0637,-3.0539,-3.1006,-3.1134,-3.0638,-3.0243,-2.9855,-2.9333,-2.9508,-2.9726,-2.9488,-2.9501,-2.9613,-2.9792,-2.962,-2.9385,-2.9365,-2.9756,-3.0133,-3.021,-3.0386,-3.0638,-3.0978,-3.0749,-3.0393,-3.0105,-3.0341,-3.0574,-3.0575,-3.0231,-2.9738,-2.3232,-2.2549,-2.293,-2.2337,-2.1225,-2.1598,-2.1328,-2.0664,-2.0997,-2.0984,-2.0592,-2.0498,-2.1307,-2.2679,-2.2229,-2.2408,-2.2965,-2.2977,-2.2723,-2.2221,-2.2209,-2.2209,-2.2209,-2.2209,-2.246,-2.2912,-2.2924,-2.2924,-2.2924,-2.2971,-2.3385,-2.4081,-2.4689,-2.5397,-2.6115,-2.6602,-2.6832,-2.6832,-2.6951,-2.7055,-2.7055,-2.6585,-2.6297,-2.6243,-2.572,-2.5352,-2.5325,-2.5359,-2.5091,-2.4522,-2.5046,-2.4822,-2.3684,-2.4163,-2.4223,0.0,-2.3595,0.0,0.0,0.0,0.0,0.0,0.0,0.0,0.0,-2.542,-2.6208,-2.707,-2.7688,-2.8259,-2.8717,-2.8732,-2.8701,-2.8654,-2.8732,-2.8717,-2.8575,-2.9044,-2.9335,-2.9227,-2.9227,-2.9364,-2.9819,-2.9982,-3.0257,-3.0615,-3.0799,-3.0514,-2.9659,-2.9507,-2.9441,-2.8843,-2.8773,-2.9108,-2.9436,-2.9469,-2.9569,-2.9907,-2.9666,-2.9342,-2.9304,-2.9703,-2.9832,-2.9418,-2.9672,-2.9891,-2.9821,-2.9789,-2.9578,-2.9016,-2.9416,-2.9756,-2.9583,-2.9318,-2.8783,-2.2969,-2.2519,-2.2598,-2.2065,-2.1205,-2.1277,-2.1134,-2.0847,-2.108,-2.18,-2.264,-2.2232,-2.2714,-2.3616,-2.3132,-2.2695,-2.2472,-2.2472,-2.2171,-2.1644,-2.1644,-2.1644,-2.1644,-2.1644,-2.1694,-2.1794,-2.1908,-2.1951,-2.1964,-2.2496,-2.3017,-2.3699,-2.4749,-2.554,-2.6148,0.0,0.0,0.0,-2.713,-2.7233,-2.7299,-2.7232,-2.6956,-2.6504,-2.5911,0.0,-2.4776,-2.4268,-2.3924,-2.3804,-2.3909,0.0,0.0,0.0,0.0,0.0,0.0,0.0,0.0,0.0,0.0,0.0,-2.4928,-2.5526,-2.5894,-2.7411,-2.8216,-2.7793,-2.84,-2.8932,-2.9012,-2.8951,-2.8997,-2.9348,-2.9316,-2.9422,-2.9766,-2.9886,-2.9826,-2.9826,-2.9798,-2.977,-2.9874,-2.9944,-2.9964,-3.0117,-3.0138,-2.987,-2.9312,-2.9647,-2.9816,-2.9301,-2.9128,-2.9377,-2.9968,-2.9653,-2.9368,-2.9438,-2.9321,-2.9186,-2.9218,-2.9557,-2.9919,-2.9694,-2.9814,-2.9708,-2.9113,-2.8984,-2.9059,-2.8864,-2.8945,-2.8848,-2.8255,-2.8632,-2.8682,-2.2578,0.0,-2.1973,-2.1533,0.0,-2.0928,-2.0928,-2.1088,-2.1432,-2.2149,-2.3152,-2.2591,-2.2773,-2.3565,-2.3263,-2.2987,-2.2698,-2.2422,-2.202,-2.1481,-2.1204,-2.1079,-2.1091,-2.1079,-2.1285,-2.1592,-2.1898,-2.2063,-2.2159,-2.2738,-2.3289,-2.3932,-2.451,-2.5293,-2.6273,-2.706,-2.7321,-2.7167,-2.7284,-2.735,-2.7386,-2.7125,-2.6732,-2.6123,0.0,0.0,0.0,0.0,0.0,0.0,0.0,0.0,0.0,0.0,0.0,-2.3595,-2.3595,-2.3595,-2.361,-2.3909,-2.4338,-2.4825,-2.6235,-2.7103,-2.7141,-2.8548,-2.9294,-2.8898,-2.9408,-2.9793,-2.9793,-2.975,-2.975,-2.9957,-2.9984,-3.0027,-3.0189,-3.0205,-3.0146,-3.0103,-3.006,-3.0033,-3.0049,-3.0076,-3.0033,-3.0033,-3.0033,-2.993,-2.9681,-2.9643,-2.9461,-2.8922,-2.9152,-2.9421,-2.9606,-2.9481,-2.939,-2.9517,-2.9327,-2.9243,-2.947,-2.971,-2.9821,-2.9513,-2.9659,-2.9594,-2.8679,-2.889,-2.9199,-2.8665,-2.8755,-2.8608,-2.7711,-2.7972,-2.8282,-2.2148,-2.1738,-2.1387,-2.0977,-2.0576,-2.0576,-2.0864,-2.1322,0.0,0.0,0.0,-2.2474,-2.2555,-2.3065,-2.2977,-2.2927,-2.2949,-2.2309,-2.1769,-2.133,-2.0765,-2.0514,-2.0514,-2.0567,-2.0848,-2.1386,-2.1914,-2.2221,-2.2365,-2.2975,-2.3532,-2.4006,-2.4253,-2.5058,-2.6406,-2.7091,-2.7354,-2.7284,-2.7372,-2.7437,-2.7423,-2.7001,-2.6452,-2.5794,-2.5151,-2.4477,-2.3804,-2.3655,-2.3595,-2.3595,-2.3595,-2.3595,-2.3595,-2.3595,-2.3595,-2.3595,-2.3595,-2.3595,-2.361,-2.4118,-2.482,-2.5617,-2.7508,-2.8527,-2.8339,-2.9302,-2.9941,-2.9941,-3.03,-3.0468,-3.0468,-3.0468,-3.0485,-3.0401,-3.0485,-3.0426,-3.0274,-3.0316,-3.0316,-3.0231,-3.0205,-3.0205,-3.0205,-3.0205,-3.0205,-3.0205,-3.0189,-3.0205,-3.0146,-2.9742,-2.9277,-2.8951,-2.9291,-2.9467,-2.9204,-2.9188,-2.9383,-2.9604,-2.9239,-2.9118,-2.9572,-2.967,-2.9318,-2.8751,-2.9172,-2.8881,-2.8054,-2.8477,-2.899,-2.802,-2.8345,-2.8573,-2.7574,-2.7496,-2.7679,-2.1728,-2.1238,-2.126,-2.0977,-2.0576,-2.0576,-2.1097,-2.1864,-2.2271,-2.2647,-2.3095,-2.3007,-2.3005,-2.31,-2.2648,-2.2422,-2.2359,-2.1368,-2.0853,0.0,-2.02,-1.9924,-1.9924,-1.9924,-2.0026,-2.027,-2.0908,-2.1282,-2.148,-2.2442,-2.3014,-2.3238,-2.4101,-2.522,-2.6464,-2.6692,-2.7006,-2.7494,-2.7575,-2.7575,-2.7575,-2.7485,-2.7111,-2.6467,-2.5809,-2.5166,-2.4462,-2.3909,-2.3595,-2.3595,-2.3595,-2.3595,-2.3595,-2.3595,-2.3595,-2.3595,-2.3595,-2.3595,-2.3595,-2.3684,-2.4661,-2.6635,-2.7458,-2.8225,-2.9149,-2.9914,-3.0401,-3.0384,-3.0468,-3.0468,-3.0468,-3.0468,-3.0468,-3.0485,-3.0468,-3.0485,-3.0426,-3.0401,-3.0401,-3.0359,-3.0274,-3.0189,-3.0248,-3.0248,-3.0231,-3.0189,-3.0231,-3.0248,-3.0205,-3.0103,-3.0017,-2.9957,-3.0,-2.9783,-2.9258,-2.9114,-2.913,-2.9214,-2.8641,-2.8444,-2.909,-2.8739,-2.8282,-2.8038,-2.8143,-2.7794,-2.7032,-2.7039,-2.7362,-2.7124,-2.7355,-2.7427,-2.7623,-2.7476,-2.7038,-2.1631,-2.1221,-2.0977,-2.0752,-2.0624,-2.0539,-2.1084,-2.1898,-2.2049,-2.2462,-2.3042,-2.3125,-2.2962,-2.2673,-2.2422,-2.2146,-2.182,-2.1029,-2.0718,-2.0668,-2.0127,-1.9914,-1.9926,-1.9965,-2.008,-2.0283,-2.1091,-2.1575,-2.1799,-2.2785,-2.329,-2.3334,-2.4194,-2.4941,-2.5525,-2.6243,-2.6722,-2.7036,-2.7445,-2.756,-2.756,-2.756,-2.7245,-2.6602,-2.5944,-2.53,-2.4612,-2.3969,-2.3774,-2.4148,-2.3789,-2.3759,-2.4118,-2.3804,-2.3595,-2.3595,-2.3595,-2.3595,-2.3595,-2.4441,-2.5649,-2.7288,-2.8152,-2.9017,-2.9922,-3.0328,-3.0468,-3.0468,-3.0468,-3.0468,-3.0468,-3.0468,-3.0468,-3.0468,-3.0468,-3.0468,-3.0468,-3.0485,-3.0443,-3.0443,-3.0401,-3.0359,-3.0359,-3.0359,-3.0359,-3.0359,-3.0342,-3.0359,-3.0342,-3.0029,-2.9872,-3.01,-2.9929,-2.9609,-2.9165,-2.8804,-2.8608,-2.8502,-2.824,-2.8158,-2.8452,-2.815,-2.7816,-2.749,-2.7597,-2.7401,-2.6591,-2.7054,-2.7289,-2.7142,-2.7059,-2.7333,-2.7498,-2.7085,-2.6528,-2.1396,-2.1045,-2.0713,-2.0576,-2.0575,-2.0434,-2.0942,-2.1865,-2.1852,-2.2321,-2.3042,-2.3125,-2.2824,-2.2347,-2.2322,-2.2008,-2.1455,-2.0916,-2.0718,-2.0655,-2.0191,-1.999,-1.999,-2.0131,-2.0334,-2.0736,-2.1527,-2.2035,-2.236,-2.3187,-2.3595,-2.3655,-2.4148,-2.4418,-2.4612,-2.563,-2.6213,-2.6393,-2.6871,-2.7325,-2.756,-2.756,-2.732,-2.6811,-2.6183,-2.5525,-2.4866,-2.4193,-2.4014,-2.4343,-2.3894,-2.3849,-2.4313,-2.3894,-2.3595,-2.3595,-2.3595,-2.3595,-2.3668,-2.4958,-2.6172,-2.7227,-2.8216,-2.9098,-2.993,-3.0179,-3.0344,-3.0435,-3.0468,-3.0468,-3.0468,-3.0468,-3.0468,-3.0468,-3.0468,-3.0468,-3.0468,-3.0468,-3.0468,-3.0468,-3.0468,-3.0468,-3.0468,-3.0468,-3.0468,-3.0468,-3.0468,-3.0468,-3.0444,-2.9996,-2.9881,-2.9963,-2.9659,-2.9022,-2.8787,-2.8349,-2.7987,-2.7843,-2.7662,-2.7629,-2.7712,-2.7689,-2.7377,-2.6831,-2.7093,-2.6995,-2.6299,-2.678,-2.7262,-2.6974,-2.6895,-2.7015,-2.6982,-2.6614,-2.6236,-2.0684,-2.0625,-2.0586,-2.0576,-2.0574,-2.0186,-2.0743,-2.1822,-2.1864,-2.2371,-2.3078,-2.3125,-2.2752,-2.2359,-2.2322,-2.2008,-2.1443,-2.0916,-2.0706,-2.063,-2.0075,-1.9862,-1.999,-2.0042,-2.0422,-2.1091,-2.1657,-2.2175,-2.274,-2.3334,-2.3595,-2.3595,-2.367,-2.4014,-2.4567,-2.4716,-2.5121,-2.5689,-2.5764,-2.6363,-2.7485,-2.756,-2.7595,-2.7535,-2.6841,-2.6198,-2.554,-2.4896,-2.4268,-2.3759,-2.367,-2.364,-2.3714,-2.3625,-2.3595,-2.3595,-2.3595,-2.3595,-2.3653,-2.4451,-2.5417,-2.6084,-2.6744,-2.7545,-2.8599,-2.9218,-2.9814,-3.0303,-3.0468,-3.0468,-3.0468,-3.0468,-3.0468,-3.0468,-3.0468,-3.0468,-3.0435,-3.0468,-3.0468,-3.0468,-3.0477,-3.0468,-3.0468,-3.0468,-3.0468,-3.0468,-3.0468,-3.0468,-3.0452,-3.0228,-3.0096,-3.0104,-2.9367,-2.829,-2.7755,-2.7462,-2.7325,-2.7292,-2.6813,-2.6813,-2.7024,-2.6772,-2.6155,-2.6401,-2.62,-2.618,-2.6118,-2.6135,-2.6274,-2.6409,-2.6383,-2.6352,-2.6319,-2.627,-2.6203,-2.081,-2.0576,-2.0576,-2.0497,-2.0391,-2.0554,-2.1029,-2.1665,-2.1922,-2.2433,-2.3015,-2.2786,-2.2523,-2.2322,-2.2322,-2.1845,-2.1058,-2.0819,-2.0529,-2.028,-2.013,-2.0144,-2.0309,-2.0398,-2.0586,-2.097,-2.1657,-2.2175,-2.2498,-2.3231,-2.3595,-2.3595,-2.3595,-2.3744,-2.4029,-2.4418,-2.4731,-2.4985,-2.542,-2.5884,-2.6393,-2.6782,-2.7186,-2.7505,-2.6931,-2.6482,-2.6153,-2.5555,-2.5076,-2.4777,-2.4418,-2.4164,-2.4193,-2.3834,-2.3595,-2.3595,-2.3595,-2.3904,-2.4557,-2.5207,-2.6132,-2.7464,-2.8013,-2.8662,-2.9525,-2.9914,-3.0212,-3.0444,-3.0468,-3.0468,-3.0468,-3.0468,-3.0468,-3.0468,-3.0468,-3.0361,-2.9897,-3.022,-3.0377,-2.998,-3.0261,-3.0468,-3.0468,-3.0468,-3.0468,-3.0468,-3.0468,-3.0435,-3.0477,-2.9831,-2.9301,-2.9069,-2.8025,-2.7528,-2.7611,-2.7114,-2.6783,-2.6601,-2.6435,-2.6419,-2.6485,-2.6416,-2.6115,-2.6099,-2.6079,-2.6043,-2.6129,-2.6096,-2.6115,-2.6115,-2.6115,-2.6203,-2.6203,-2.6203,-2.6203,-2.0518,-2.0215,-2.0088,-2.0017,-2.0098,-2.0579,-2.107,-2.1504,-2.18,-2.2274,-2.279,-2.2322,-2.2083,-2.2083,-2.2083,-2.1468,-2.0539,-2.0655,-2.0482,-2.0041,-2.0131,-2.0283,-2.0511,-2.0612,-2.0785,-2.1166,-2.1752,-2.2267,-2.2543,-2.3172,-2.3595,-2.3595,-2.3595,-2.3595,-2.364,-2.4118,-2.4343,-2.4388,-2.4837,-2.5151,-2.5375,-2.5809,-2.6363,-2.6931,-2.6572,-2.6243,-2.6048,-2.5585,-2.5241,-2.5046,-2.4597,-2.4343,-2.4283,-2.3864,-2.3595,-2.3595,-2.3739,-2.4164,-2.4967,-2.5538,-2.6414,-2.7648,-2.827,-2.8754,-2.9234,-2.9499,-2.9615,-2.9566,-2.9814,-2.998,-3.0452,-3.0468,-3.0468,-3.0468,-3.0377,-3.0029,-2.979,-3.0096,-3.0079,-2.9814,-3.0245,-3.0468,-3.0468,-3.0468,-3.0468,-3.0468,-3.0328,-3.0212,-3.0079,-2.9201,-2.8478,-2.8379,-2.7296,-2.6932,-2.7561,-2.6982,-2.627,-2.6203,-2.6203,-2.6203,-2.6203,-2.6203,-2.6203,-2.6151,-2.6151,-2.6168,-2.6168,-2.6168,-2.6168,-2.6203,-2.6203,-2.6203,-2.6203,-2.6203,-2.6203,-1.9355,-1.9307,-1.8906,-1.9147,-1.964,-1.9703,-2.038,-2.1345,-2.1398,-2.1724,-2.2214,-2.1769,-2.1531,-2.1518,-2.1481,-2.0903,-2.0062,-2.057,-2.0547,-2.008,-2.0144,-2.0296,-2.0524,-2.0524,-2.1019,-2.1813,-2.1988,-2.2589,-2.3406,-2.3551,-2.3595,-2.3595,-2.3595,-2.3595,-2.361,-2.367,-2.3655,-2.3744,-2.3789,-2.4044,-2.4537,-2.4657,-2.5061,-2.5615,-2.5689,-2.5435,-2.4896,-2.4686,-2.4433,-2.3744,-2.3774,-2.3699,-2.367,-2.3625,-2.3595,-2.3681,-2.4036,-2.4291,-2.4519,-2.5218,-2.5762,-2.5864,-2.6529,-2.6535,-2.7031,-2.7566,-2.7864,-2.7582,-2.8362,-2.9118,-3.0129,-3.0245,-3.0328,-3.0311,-2.9806,-2.9814,-3.0294,-2.9847,-2.9847,-3.0145,-3.0261,-3.0261,-3.0352,-3.0468,-3.0361,-3.0228,-2.9864,-2.9466,-2.9367,-2.8787,-2.8357,-2.8196,-2.7649,-2.7035,-2.6501,-2.6352,-2.6253,-2.6203,-2.6203,-2.6203,-2.6203,-2.6203,-2.6203,-2.6203,-2.6203,-2.6203,-2.6203,-2.6203,-2.6203,-2.6203,-2.6203,-2.6203,-2.6203,-2.6203,-2.6203,-1.9277,-1.9238,-1.897,-1.8874,-1.8962,-1.9196,-1.9739,-2.0327,-2.0689,-2.1231,-2.1625,-2.1204,-2.102,-2.0941,-2.0577,-2.0401,-2.0441,-2.0762,-2.0652,-2.0182,-2.0296,-2.0498,-2.0612,-2.0599,-2.0997,-2.1589,-2.1955,-2.2634,-2.3508,-2.3595,-2.3595,-2.3595,-2.3595,-2.3595,-2.3595,-2.3595,-2.3595,-2.3595,-2.3595,-2.3714,-2.3954,-2.3969,-2.4088,-2.4343,-2.5181,-2.551,-2.527,-2.5255,-2.4956,-2.4238,-2.4253,-2.4059,-2.3799,-2.3839,-2.3994,-2.4214,-2.4395,-2.4786,-2.5462,-2.6066,-2.6586,-2.7026,-2.747,-2.7627,-2.7761,-2.7923,-2.8089,-2.8085,-2.8196,-2.8704,-2.8953,-2.9152,-2.9168,-2.9168,-2.9317,-2.9284,-2.9334,-2.9665,-2.9914,-2.935,-2.9152,-2.9135,-2.9268,-2.9168,-2.9152,-2.9135,-2.892,-2.882,-2.8655,-2.8141,-2.7748,-2.7616,-2.7081,-2.6518,-2.6319,-2.622,-2.6203,-2.6203,-2.6203,-2.6203,-2.6203,-2.6203,-2.6203,-2.6203,-2.6203,-2.6203,-2.6203,-2.6203,-2.6203,-2.6203,-2.6203,-2.6203,-2.6203,-2.6203,-2.6203,-1.8467,-1.8428,-1.8291,-1.8208,-1.8162,-1.8649,-1.9133,-1.9597,-2.013,-2.0636,-2.1062,-2.068,-2.0388,-2.0326,-1.9974,-2.0051,-2.0482,-2.0612,-2.0513,-2.0309,-2.0448,-2.0612,-2.0699,-2.0835,-2.118,-2.1698,-2.2267,-2.2965,-2.3508,-2.3595,-2.3595,-2.3595,-2.3595,-2.3595,-2.3595,-2.3595,-2.3595,-2.3595,-2.3595,-2.3595,-2.3653,-2.3653,-2.3696,-2.3859,-2.4597,-2.5062,-2.5002,-2.5062,-2.4927,-2.4477,-2.4387,-2.4307,-2.4097,-2.4271,-2.4517,-2.4728,-2.4792,-2.5171,-2.5917,-2.6363,-2.6733,-2.7301,-2.7628,-2.7848,-2.7831,-2.7794,-2.7811,-2.7773,-2.7736,-2.7736,-2.7699,-2.7715,-2.786,-2.8241,-2.8588,-2.8671,-2.8456,-2.9019,-2.9036,-2.8661,-2.8528,-2.8544,-2.8655,-2.8738,-2.8787,-2.8704,-2.8721,-2.8655,-2.8357,-2.7815,-2.7317,-2.7267,-2.6717,-2.6352,-2.6203,-2.6203,-2.6203,-2.6203,-2.6203,-2.6203,-2.6203,-2.6203,-2.6203,-2.6203,-2.6203,-2.6203,-2.6203,-2.6203,-2.6187,-2.6187,-2.6203,-2.6203,-2.6203,-2.6203,-2.6222,-1.6743,-1.6855,-1.6748,-1.6997,-1.7262,-1.777,-1.86,-1.9413,-1.9568,-1.9989,-2.0536,-2.0075,-1.9899,-1.9836,-1.9836,-1.9888,-2.0105,-2.0271,-2.0361,-2.0461,-2.0612,-2.0699,-2.0699,-2.1131,-2.1636,-2.2128,-2.3098,-2.3551,-2.3595,-2.3595,-2.3595,-2.3595,-2.3595,-2.3595,-2.3595,-2.361,-2.3595,-2.3638,-2.3638,-2.3653,-2.3782,-2.3782,-2.3839,-2.394,-2.4104,-2.4106,-2.3945,-2.4061,-2.4091,-2.4073,-2.4043,-2.4234,-2.4599,-2.4926,-2.5198,-2.5221,-2.5221,-2.5389,-2.5717,-2.584,-2.6109,-2.6421,-2.6374,-2.6543,-2.663,-2.6564,-2.6493,-2.6524,-2.6474,-2.6445,-2.646,-2.6438,-2.6882,-2.8014,-2.7831,-2.776,-2.8042,-2.7765,-2.7616,-2.8146,-2.8246,-2.8605,-2.9085,-2.8936,-2.8771,-2.8804,-2.8853,-2.8655,-2.8075,-2.7479,-2.7317,-2.7118,-2.6651,-2.6236,-2.6203,-2.6203,-2.6203,-2.6203,-2.6203,-2.6203,-2.6203,-2.6203,-2.6203,-2.6203,-2.6203,-2.6203,-2.6347,-2.6347,-2.6382,-2.6399,-2.6329,-2.6329,-2.6417,-2.6486,-2.6347,-1.6665,-1.6689,-1.652,-1.6525,-1.6719,-1.6724,-1.7442,-1.8508,-1.8611,-1.9162,-1.992,-1.9886,-1.9862,-1.9926,-1.9926,-2.0093,-2.036,-2.0398,-2.041,-2.0511,-2.0649,-2.0699,-2.0799,-2.118,-2.1841,-2.2649,-2.3275,-2.3595,-2.3595,-2.3595,-2.3595,-2.3595,-2.3595,-2.3653,-2.3739,-2.3739,-2.3797,-2.3839,-2.3782,-2.3739,-2.3797,-2.3797,-2.3839,-2.3882,-2.4024,-2.4124,-2.4082,-2.404,-2.394,-2.3882,-2.423,-2.4639,-2.5098,-2.5313,-2.5524,-2.5799,-2.5835,-2.598,-2.6332,-2.6383,-2.6383,-2.6486,-2.6485,-2.6468,-2.6434,-2.633,-2.6295,-2.6241,-2.6258,-2.6222,-2.6239,-2.6203,-2.6488,-2.6925,-2.7171,-2.735,-2.7566,-2.745,-2.7417,-2.7516,-2.7197,-2.7048,-2.7197,-2.7313,-2.7462,-2.7446,-2.7412,-2.728,-2.6982,-2.6952,-2.6568,-2.6485,-2.6236,-2.6203,-2.6203,-2.6203,-2.6239,-2.631,-2.6293,-2.6364,-2.6364,-2.6329,-2.6293,-2.6293,-2.6258,-2.6329,-2.6486,-2.6572,-2.6607,-2.6674,-2.6708,-2.6742,-2.6842,-2.6775,-2.664,-1.624,-1.6292,-1.6128,-1.6188,-1.6394,-1.6597,-1.7268,-1.8093,-1.8578,-1.9109,-1.9747,-1.9798,-1.9862,-1.9926,-1.9978,-2.0144,-2.0347,-2.0461,-2.0511,-2.0549,-2.0649,-2.0699,-2.0799,-2.1361,-2.2189,-2.3009,-2.3465,-2.3595,-2.3595,-2.3653,-2.3696,-2.3696,-2.3696,-2.3739,-2.3797,-2.3797,-2.3839,-2.3882,-2.3839,-2.3839,-2.3925,-2.394,-2.3967,-2.4009,-2.4151,-2.4223,-2.4223,-2.4151,-2.4051,-2.4078,-2.4477,-2.4942,-2.5406,-2.5615,-2.5908,-2.621,-2.6315,-2.6436,-2.664,-2.6607,-2.6657,-2.6606,-2.6589,-2.6554,-2.652,-2.6468,-2.64,-2.6347,-2.6364,-2.6345,-2.6345,-2.631,-2.6329,-2.6417,-2.6712,-2.6959,-2.6975,-2.6992,-2.7011,-2.6945,-2.6643,-2.6476,-2.6626,-2.6656,-2.6692,-2.6673,-2.6906,-2.6889,-2.6789,-2.6759,-2.664,-2.6524,-2.6391,-2.6322,-2.6203,-2.6239,-2.631,-2.6364,-2.6434,-2.6589,-2.6691,-2.6708,-2.6708,-2.664,-2.6657,-2.664,-2.6758,-2.6858,-2.6923,-2.6989,-2.7085,-2.7021,-2.7021,-2.6989,-2.6923,-1.5546,-1.5682,-1.573,-1.5992,-1.6374,-1.7379,-1.7972,-1.8309,-1.9162,-1.9643,-1.9798,-1.9811,-1.985,-1.9862,-2.0029,-2.0195,-2.0246,-2.0448,-2.0612,-2.0649,-2.0699,-2.0749,-2.1033,-2.1766,-2.2649,-2.3421,-2.3595,-2.3595,-2.3638,-2.3739,-2.3839,-2.3839,-2.3882,-2.394,-2.3897,-2.3839,-2.3839,-2.3882,-2.3882,-2.3982,-2.4166,-2.4166,-2.4208,-2.4276,-2.4276,-2.4291,-2.425,-2.4234,-2.4302,-2.4426,-2.4784,-2.516,-2.5577,-2.5944,-2.6332,-2.6607,-2.6691,-2.664,-2.6623,-2.664,-2.6606,-2.6623,-2.6554,-2.652,-2.6589,-2.6554,-2.6503,-2.6485,-2.6503,-2.6554,-2.6554,-2.652,-2.6503,-2.6554,-2.6517,-2.6499,-2.6502,-2.6535,-2.6584,-2.6586,-2.6535,-2.6703,-2.7169,-2.7236,-2.727,-2.7353,-2.7668,-2.7534,-2.7317,-2.7033,-2.7284,-2.7069,-2.6636,-2.6605,-2.6556,-2.6607,-2.6708,-2.6858,-2.6825,-2.6875,-2.694,-2.6973,-2.6989,-2.6973,-2.6973,-2.6989,-2.7068,-2.7164,-2.7289,-2.74,-2.74,-2.7276,-2.7276,-2.7338,-2.7321,-1.5546,-1.573,-1.6275,-1.6606,-1.6899,-1.771,-1.8321,-1.8762,-1.9028,-1.9448,-1.9759,-1.9926,-1.9978,-2.0118,-2.0296,-2.0461,-2.0549,-2.0599,-2.0662,-2.0699,-2.0699,-2.1118,-2.1718,-2.2374,-2.2965,-2.3551,-2.3711,-2.3739,-2.3739,-2.3882,-2.3925,-2.3982,-2.3982,-2.4024,-2.4082,-2.4082,-2.4109,-2.4151,-2.4109,-2.4124,-2.4166,-2.4223,-2.4208,-2.4208,-2.4291,-2.4276,-2.4276,-2.4261,-2.4614,-2.5121,-2.5275,-2.5672,-2.621,-2.6385,-2.6505,-2.6657,-2.6708,-2.6708,-2.6674,-2.6674,-2.6657,-2.6606,-2.6572,-2.6537,-2.652,-2.652,-2.652,-2.6485,-2.652,-2.6536,-2.652,-2.652,-2.652,-2.6572,-2.6503,-2.6468,-2.6485,-2.6485,-2.6485,-2.6485,-2.6485,-2.6654,-2.6771,-2.682,-2.682,-2.687,-2.7039,-2.719,-2.7076,-2.7045,-2.7113,-2.7063,-2.6825,-2.6923,-2.6954,-2.7036,-2.7164,-2.7382,-2.7352,-2.7195,-2.7149,-2.7053,-2.7117,-2.7149,-2.7181,-2.7244,-2.7413,-2.7565,-2.7672,-2.7789,-2.773,-2.7672,-2.7818,-2.7904,-2.7847,-1.5536,-1.573,-1.6228,-1.6503,-1.6719,-1.7435,-1.8093,-1.859,-1.8881,-1.9291,-1.9759,-1.9926,-2.0029,-2.0144,-2.0398,-2.0562,-2.0612,-2.0662,-2.0699,-2.0812,-2.1118,-2.1575,-2.2081,-2.2452,-2.292,-2.3551,-2.3711,-2.3696,-2.3739,-2.3882,-2.3982,-2.4024,-2.4067,-2.4151,-2.4166,-2.4223,-2.4208,-2.4234,-2.4223,-2.4208,-2.425,-2.4234,-2.425,-2.425,-2.4276,-2.4302,-2.4302,-2.4302,-2.4614,-2.5059,-2.5137,-2.5351,-2.6087,-2.6193,-2.635,-2.6624,-2.6708,-2.6708,-2.6708,-2.6708,-2.6674,-2.6657,-2.6623,-2.6623,-2.6589,-2.6555,-2.6606,-2.6589,-2.6606,-2.6606,-2.6606,-2.6606,-2.6589,-2.6623,-2.6589,-2.6589,-2.6606,-2.6606,-2.6589,-2.6589,-2.6606,-2.6589,-2.6555,-2.6555,-2.6555,-2.6657,-2.6843,-2.6911,-2.6893,-2.6908,-2.6971,-2.7098,-2.7175,-2.7238,-2.7286,-2.7334,-2.7365,-2.7595,-2.7742,-2.7595,-2.7504,-2.7369,-2.7461,-2.7522,-2.7491,-2.7522,-2.776,-2.7933,-2.8063,-2.8119,-2.8091,-2.8091,-2.8174,-2.8219,-2.8201,-1.5546,-1.573,-1.5914,-1.6077,-1.6332,-1.7034,-1.7875,-1.8255,-1.8869,-1.9396,-1.9811,-1.9978,-2.0093,-2.0042,-2.0398,-2.0511,-2.0562,-2.0649,-2.0699,-2.0934,-2.1396,-2.1941,-2.2081,-2.2406,-2.2905,-2.3551,-2.3638,-2.3696,-2.3782,-2.3967,-2.4024,-2.4094,-2.4234,-2.425,-2.425,-2.4208,-2.4208,-2.4208,-2.4208,-2.425,-2.4276,-2.4261,-2.4276,-2.4317,-2.4426,-2.4492,-2.4492,-2.4533,-2.4704,-2.5059,-2.4639,-2.502,-2.5615,-2.5672,-2.598,-2.6556,-2.6708,-2.6708,-2.6708,-2.6708,-2.6708,-2.6708,-2.6708,-2.6708,-2.6674,-2.6674,-2.6674,-2.6674,-2.6708,-2.6708,-2.6674,-2.6691,-2.6674,-2.6708,-2.6691,-2.6691,-2.6708,-2.6708,-2.6708,-2.6708,-2.6708,-2.6708,-2.6708,-2.6708,-2.6708,-2.6674,-2.6842,-2.7006,-2.7135,-2.7244,-2.7365,-2.7542,-2.7572,-2.7572,-2.7572,-2.7589,-2.7636,-2.7742,-2.7933,-2.7961,-2.8007,-2.7922,-2.7979,-2.7979,-2.7922,-2.7979,-2.8119,-2.83,-2.8371,-2.8371,-2.8273,-2.8327,-2.838,-2.838,-2.8353,-1.5546,-1.573,-1.6343,-1.6673,-1.7,-1.805,-1.8643,-1.8815,-1.9331,-1.9656,-1.9926,-2.008,-2.0246,-2.036,-2.0549,-2.0649,-2.0662,-2.0699,-2.0699,-2.0785,-2.1264,-2.1766,-2.2221,-2.2815,-2.3421,-2.3739,-2.3839,-2.3982,-2.4067,-2.4094,-2.4234,-2.4219,-2.4261,-2.4276,-2.4276,-2.4276,-2.4261,-2.4276,-2.4276,-2.4276,-2.4276,-2.4302,-2.4302,-2.4385,-2.4614,-2.4942,-2.5214,-2.5237,-2.5427,-2.5652,-2.5503,-2.554,-2.6139,-2.6315,-2.647,-2.6624,-2.6708,-2.6708,-2.6708,-2.6708,-2.6708,-2.6708,-2.6708,-2.6708,-2.6708,-2.6708,-2.6708,-2.6708,-2.6708,-2.6708,-2.6708,-2.6708,-2.6708,-2.6708,-2.6708,-2.6708,-2.6708,-2.6708,-2.6708,-2.6708,-2.6708,-2.6708,-2.6708,-2.6742,-2.6742,-2.6758,-2.6956,-2.7181,-2.7382,-2.7595,-2.7754,-2.7936,-2.7964,-2.7964,-2.801,-2.801,-2.8,-2.8,-2.8128,-2.8255,-2.83,-2.83,-2.8255,-2.8273,-2.83,-2.838,-2.838,-2.838,-2.8406,-2.8432,-2.8458,-2.8458,-2.8484,-2.8484,-2.8502,-1.5488,-1.573,-1.6171,-1.6616,-1.7056,-1.782,-1.8494,-1.8987,-1.9291,-1.9617,-1.9914,-2.0118,-2.0246,-2.0347,-2.0599,-2.0699,-2.0749,-2.0934,-2.1166,-2.1444,-2.1908,-2.2374,-2.277,-2.3334,-2.3739,-2.3739,-2.3797,-2.3897,-2.4024,-2.4109,-2.4193,-2.425,-2.4276,-2.4302,-2.4302,-2.4302,-2.4302,-2.4302,-2.4302,-2.4302,-2.4302,-2.4302,-2.4451,-2.4695,-2.4997,-2.5237,-2.5269,-2.5427,-2.5561,-2.5762,-2.5799,-2.5961,-2.6315,-2.6436,-2.6505,-2.6657,-2.6708,-2.6708,-2.6708,-2.6708,-2.6708,-2.6691,-2.6708,-2.6708,-2.6708,-2.6708,-2.6708,-2.6708,-2.6708,-2.6708,-2.6708,-2.6708,-2.6708,-2.6708,-2.6759,-2.6792,-2.6775,-2.6742,-2.6708,-2.6708,-2.6708,-2.6708,-2.6708,-2.6858,-2.6971,-2.7068,-2.7452,-2.7678,-2.784,-2.8037,-2.8165,-2.8299,-2.8326,-2.8352,-2.844,-2.844,-2.8414,-2.8388,-2.8414,-2.844,-2.8458,-2.8458,-2.844,-2.8432,-2.8424,-2.8432,-2.844,-2.844,-2.8484,-2.851,-2.8536,-2.8536,-2.8536,-2.8536,-2.8536,-1.5536,-1.574,-1.5856,-1.6296,-1.6832,-1.7268,-1.7984,-1.8762,-1.9093,-1.9512,-1.985,-2.0131,-2.0283,-2.0385,-2.0599,-2.0699,-2.0785,-2.1033,-2.1313,-2.1636,-2.2235,-2.2694,-2.3143,-2.3508,-2.3782,-2.3653,-2.3739,-2.3839,-2.3925,-2.3967,-2.4151,-2.4208,-2.4276,-2.4302,-2.4302,-2.4302,-2.4302,-2.4302,-2.4302,-2.4343,-2.4343,-2.4343,-2.4508,-2.4815,-2.5253,-2.5368,-2.5422,-2.5594,-2.5815,-2.5726,-2.6068,-2.621,-2.621,-2.621,-2.6315,-2.6691,-2.6708,-2.6742,-2.6742,-2.6725,-2.6691,-2.6725,-2.6691,-2.6725,-2.6725,-2.6742,-2.6742,-2.6742,-2.6775,-2.6742,-2.6742,-2.6742,-2.6742,-2.6742,-2.6842,-2.6893,-2.6842,-2.6775,-2.6742,-2.6775,-2.6891,-2.6939,-2.7004,-2.7132,-2.7241,-2.7426,-2.7851,-2.8156,-2.8255,-2.8378,-2.8448,-2.8492,-2.8474,-2.8474,-2.8562,-2.8587,-2.8587,-2.8562,-2.8587,-2.8587,-2.8587,-2.8562,-2.8536,-2.8484,-2.8502,-2.851,-2.8518,-2.8536,-2.8562,-2.8587,-2.8587,-2.8587,-2.8587,-2.8587,-2.8533,-1.5536,-1.5682,-1.5856,-1.6077,-1.6446,-1.7435,-1.8093,-1.8417,-1.9396,-1.9926,-2.0131,-2.0334,-2.0498,-2.0599,-2.0649,-2.0699,-2.0749,-2.0934,-2.1033,-2.1313,-2.2002,-2.2589,-2.286,-2.3566,-2.3839,-2.394,-2.4024,-2.4109,-2.4135,-2.4261,-2.4234,-2.4276,-2.4276,-2.4302,-2.4302,-2.4302,-2.4302,-2.4302,-2.4302,-2.4343,-2.4426,-2.4467,-2.4426,-2.4695,-2.5237,-2.5556,-2.5775,-2.626,-2.6691,-2.6742,-2.6825,-2.6825,-2.6742,-2.6624,-2.6607,-2.6691,-2.6708,-2.6742,-2.6775,-2.6742,-2.6775,-2.6792,-2.6742,-2.6775,-2.6775,-2.6775,-2.6775,-2.6876,-2.6876,-2.6859,-2.6842,-2.6825,-2.6842,-2.6876,-2.6876,-2.6859,-2.6808,-2.6842,-2.6925,-2.7006,-2.7149,-2.7241,-2.7272,-2.7426,-2.7648,-2.7794,-2.8047,-2.8281,-2.8334,-2.8474,-2.8587,-2.8587,-2.8587,-2.8587,-2.8587,-2.8587,-2.8587,-2.8587,-2.8587,-2.8587,-2.8587,-2.8587,-2.8562,-2.8536,-2.8536,-2.8562,-2.8587,-2.8587,-2.8587,-2.8587,-2.8587,-2.8551,-2.8377,-2.8178,-2.8214,-1.5536,-1.573,-1.5856,-1.6337,-1.7076,-1.7788,-1.8471,-1.9004,-1.9656,-1.9978,-2.0131,-2.0296,-2.0448,-2.0562,-2.0649,-2.0699,-2.0799,-2.1251,-2.1382,-2.1623,-2.2452,-2.295,-2.2965,-2.3711,-2.394,-2.4067,-2.4151,-2.425,-2.425,-2.425,-2.4291,-2.4317,-2.4302,-2.4302,-2.4302,-2.4302,-2.4302,-2.4302,-2.4317,-2.4359,-2.4508,-2.4574,-2.4775,-2.5036,-2.5443,-2.5832,-2.6013,-2.64,-2.6691,-2.6725,-2.6842,-2.6926,-2.6909,-2.6825,-2.6742,-2.6775,-2.6742,-2.6742,-2.6775,-2.6742,-2.6725,-2.6775,-2.6725,-2.6725,-2.6775,-2.6742,-2.6825,-2.6909,-2.6992,-2.6959,-2.6959,-2.6959,-2.6959,-2.6959,-2.6975,-2.694,-2.6973,-2.7166,-2.7261,-2.7293,-2.7382,-2.7426,-2.7457,-2.7648,-2.7992,-2.8201,-2.8352,-2.8404,-2.8438,-2.8551,-2.8662,-2.8662,-2.8662,-2.8662,-2.8662,-2.8662,-2.8637,-2.8637,-2.8612,-2.8612,-2.8612,-2.8612,-2.8612,-2.8587,-2.8587,-2.8612,-2.8587,-2.8587,-2.8587,-2.8522,-2.825,-2.8015,-2.787,-2.7761,-2.7689,-1.5536,-1.574,-1.5856,-1.6576,-1.7523,-1.7822,-1.8447,-1.9334,-1.9631,-1.9862,-2.0029,-2.0246,-2.0398,-2.0562,-2.0662,-2.0699,-2.0749,-2.1479,-2.1609,-2.1846,-2.2725,-2.3319,-2.3523,-2.3897,-2.4166,-2.4151,-2.4177,-2.4276,-2.425,-2.425,-2.4234,-2.4276,-2.4302,-2.4302,-2.4302,-2.4302,-2.4302,-2.4302,-2.4302,-2.4317,-2.4508,-2.4895,-2.5269,-2.5422,-2.5885,-2.6137,-2.621,-2.6556,-2.6725,-2.6759,-2.6876,-2.6992,-2.6942,-2.6859,-2.6859,-2.6909,-2.6825,-2.6775,-2.6791,-2.6775,-2.6808,-2.6842,-2.6758,-2.6758,-2.6825,-2.6875,-2.6892,-2.6909,-2.6975,-2.699,-2.7007,-2.704,-2.699,-2.7023,-2.7038,-2.7103,-2.7149,-2.7276,-2.7504,-2.7565,-2.7607,-2.7736,-2.788,-2.8047,-2.843,-2.8438,-2.8583,-2.8601,-2.8651,-2.8669,-2.8779,-2.8779,-2.8779,-2.8779,-2.8737,-2.8712,-2.8712,-2.8687,-2.8705,-2.8687,-2.8662,-2.8644,-2.8637,-2.8637,-2.8637,-2.8637,-2.8612,-2.8522,-2.8463,-2.8227,-2.7792,-2.7447,-2.7253,-2.7012,-2.6885,-1.5594,-1.5856,-1.5914,-1.6155,-1.668,-1.7168,-1.7686,-1.8448,-1.923,-1.9747,-2.0182,-2.0498,-2.0599,-2.0662,-2.0649,-2.0699,-2.0799,-2.0983,-2.1215,-2.1444,-2.2314,-2.2875,-2.2875,-2.3754,-2.4151,-2.4234,-2.4261,-2.4302,-2.4276,-2.4276,-2.4261,-2.4302,-2.4302,-2.4302,-2.4302,-2.4302,-2.4302,-2.4302,-2.4302,-2.4385,-2.463,-2.5029,-2.5285,-2.546,-2.5795,-2.612,-2.6333,-2.6691,-2.694,-2.7122,-2.7186,-2.725,-2.7201,-2.712,-2.707,-2.7038,-2.699,-2.6925,-2.6973,-2.6957,-2.6957,-2.699,-2.6957,-2.699,-2.7023,-2.7087,-2.7072,-2.6975,-2.7055,-2.7087,-2.707,-2.7103,-2.707,-2.7103,-2.712,-2.712,-2.7152,-2.7565,-2.7754,-2.7992,-2.8084,-2.829,-2.8482,-2.8651,-2.8858,-2.8815,-2.8815,-2.8815,-2.8858,-2.8881,-2.8876,-2.8881,-2.8881,-2.8881,-2.8858,-2.8815,-2.8839,-2.8834,-2.8737,-2.8761,-2.8767,-2.8725,-2.8694,-2.8694,-2.8669,-2.8585,-2.8458,-2.8349,-2.8282,-2.7973,-2.7518,-2.705,-2.6595,-2.6336,-2.5986,-1.5478,-1.5662,-1.5788,-1.6206,-1.667,-1.7379,-1.8104,-1.8786,-1.946,-1.9978,-2.0347,-2.0511,-2.0612,-2.0699,-2.0699,-2.0699,-2.0799,-2.1166,-2.1541,-2.1779,-2.2558,-2.3231,-2.3508,-2.3925,-2.4276,-2.4234,-2.4261,-2.4302,-2.4302,-2.4302,-2.4302,-2.4302,-2.4302,-2.4302,-2.4302,-2.4302,-2.44,-2.4482,-2.4605,-2.471,-2.4871,-2.5123,-2.5317,-2.5339,-2.5626,-2.5957,-2.6279,-2.6505,-2.6791,-2.699,-2.712,-2.7184,-2.7152,-2.7087,-2.7055,-2.7103,-2.7038,-2.7023,-2.7023,-2.704,-2.7023,-2.7023,-2.704,-2.7007,-2.7055,-2.712,-2.7184,-2.7087,-2.7169,-2.7233,-2.7215,-2.7215,-2.7215,-2.7215,-2.7279,-2.7369,-2.7461,-2.7754,-2.8093,-2.8342,-2.8572,-2.8731,-2.8863,-2.891,-2.8998,-2.8998,-2.8998,-2.9021,-2.9044,-2.9067,-2.9044,-2.8998,-2.8998,-2.9021,-2.898,-2.8962,-2.9034,-2.9007,-2.8767,-2.8791,-2.8868,-2.885,-2.8821,-2.8773,-2.8725,-2.8561,-2.8336,-2.8251,-2.8246,-2.7802,-2.7264,-2.6611,-2.5935,-2.526,-2.4965,-1.542,-1.541,-1.573,-1.6263,-1.6967,-1.7601,-1.8387,-1.9194,-1.9641,-2.0093,-2.041,-2.0562,-2.0612,-2.0649,-2.0699,-2.0699,-2.0762,-2.1431,-2.1766,-2.2282,-2.2965,-2.3421,-2.3595,-2.3909,-2.4276,-2.4223,-2.4276,-2.4302,-2.4302,-2.4302,-2.4302,-2.4302,-2.4302,-2.4343,-2.4385,-2.4426,-2.4508,-2.4726,-2.4926,-2.5045,-2.5123,-2.5278,-2.547,-2.5584,-2.5733,-2.5954,-2.6312,-2.6538,-2.6808,-2.694,-2.712,-2.7184,-2.7152,-2.7137,-2.7169,-2.7198,-2.723,-2.723,-2.7215,-2.7152,-2.7089,-2.7089,-2.7072,-2.7105,-2.7169,-2.7166,-2.7213,-2.7293,-2.7373,-2.7421,-2.7407,-2.7404,-2.7448,-2.7478,-2.7509,-2.7701,-2.7869,-2.8129,-2.8342,-2.8547,-2.8808,-2.9048,-2.9112,-2.9134,-2.9152,-2.9152,-2.9175,-2.9218,-2.9178,-2.9178,-2.9112,-2.9044,-2.9044,-2.9044,-2.9048,-2.9052,-2.9166,-2.9191,-2.8966,-2.892,-2.9056,-2.9056,-2.9012,-2.8943,-2.8824,-2.8489,-2.8218,-2.8219,-2.8118,-2.7155,-2.6292,-2.5837,-2.5216,-2.4556,-2.4224,-1.542,-1.542,-1.573,-1.6389,-1.7102,-1.7246,-1.8032,-1.9111,-1.9362,-1.9862,-2.0511,-2.0612,-2.0649,-2.0699,-2.0699,-2.0699,-2.0749,-2.0799,-2.1118,-2.1492,-2.2002,-2.283,-2.329,-2.3867,-2.4302,-2.4276,-2.4302,-2.4302,-2.4302,-2.4343,-2.4302,-2.4302,-2.4343,-2.4426,-2.4508,-2.4589,-2.4751,-2.4966,-2.5162,-2.5294,-2.5371,-2.5508,-2.5791,-2.6173,-2.6349,-2.6607,-2.7154,-2.7072,-2.7072,-2.7137,-2.7233,-2.7296,-2.7296,-2.7296,-2.7341,-2.7386,-2.7448,-2.7448,-2.7448,-2.7373,-2.7264,-2.7299,-2.7282,-2.7327,-2.7404,-2.7434,-2.7509,-2.7582,-2.7612,-2.7642,-2.7672,-2.7701,-2.7771,-2.7829,-2.7869,-2.7992,-2.8192,-2.8428,-2.8646,-2.8808,-2.9012,-2.9225,-2.9347,-2.9347,-2.924,-2.9218,-2.924,-2.9262,-2.9197,-2.9156,-2.9089,-2.9044,-2.9044,-2.9067,-2.9067,-2.9141,-2.9316,-2.9338,-2.9214,-2.9254,-2.9334,-2.9314,-2.9235,-2.9072,-2.8944,-2.8519,-2.8035,-2.7727,-2.7156,-2.6082,-2.5404,-2.5392,-2.5097,-2.4579,-2.4303,-1.5478,-1.5614,-1.5798,-1.6114,-1.6451,-1.6968,-1.7793,-1.875,-1.9233,-1.985,-2.0612,-2.0649,-2.0699,-2.0699,-2.0699,-2.0898,-2.118,-2.1527,-2.1813,-2.2406,-2.3098,-2.3508,-2.3824,-2.3909,-2.4302,-2.4302,-2.4302,-2.4302,-2.4302,-2.4385,-2.4467,-2.4467,-2.4467,-2.4508,-2.463,-2.4871,-2.5029,-2.5162,-2.5371,-2.5524,-2.5733,-2.5807,-2.601,-2.6349,-2.6418,-2.6487,-2.6708,-2.6908,-2.6973,-2.7087,-2.7279,-2.7373,-2.7434,-2.7496,-2.7539,-2.7612,-2.763,-2.763,-2.763,-2.7539,-2.7557,-2.7539,-2.7557,-2.7587,-2.763,-2.7612,-2.7642,-2.7713,-2.7829,-2.7886,-2.7886,-2.7964,-2.8084,-2.8139,-2.8246,-2.8376,-2.8578,-2.8814,-2.8948,-2.9123,-2.9249,-2.9392,-2.9471,-2.951,-2.9409,-2.9323,-2.9323,-2.9326,-2.9286,-2.9267,-2.9228,-2.9249,-2.9251,-2.9316,-2.9336,-2.9398,-2.9495,-2.9495,-2.9476,-2.9551,-2.9588,-2.9514,-2.942,-2.9287,-2.8851,-2.8175,-2.7595,-2.7043,-2.6393,-2.5722,-2.5498,-2.5458,-2.5066,-2.4582,-2.4493,-1.5349,-1.5464,-1.5505,-1.5936,-1.6497,-1.6994,-1.7928,-1.8955,-1.928,-1.9889,-2.0673,-2.0555,-2.0568,-2.067,-2.0575,-2.0864,-2.1355,-2.186,-2.2374,-2.2875,-2.3363,-2.3909,-2.4078,-2.4177,-2.4302,-2.4302,-2.4302,-2.4302,-2.4302,-2.4426,-2.4467,-2.4467,-2.4589,-2.463,-2.4791,-2.5068,-2.5317,-2.541,-2.554,-2.5691,-2.5844,-2.5844,-2.6046,-2.6314,-2.6418,-2.6624,-2.6825,-2.7053,-2.7117,-2.7244,-2.7369,-2.7539,-2.76,-2.7642,-2.773,-2.776,-2.776,-2.7748,-2.7719,-2.763,-2.7689,-2.7642,-2.7672,-2.7719,-2.776,-2.7818,-2.7904,-2.7893,-2.8045,-2.8138,-2.811,-2.8174,-2.8394,-2.8471,-2.8628,-2.8772,-2.8997,-2.923,-2.9312,-2.9431,-2.9511,-2.9569,-2.9589,-2.9645,-2.9608,-2.9531,-2.9493,-2.9513,-2.9494,-2.9494,-2.9514,-2.9514,-2.9533,-2.9606,-2.9695,-2.9695,-2.9658,-2.9658,-2.9676,-2.9777,-2.9794,-2.9666,-2.9469,-2.9231,-2.8655,-2.7818,-2.7125,-2.6531,-2.6096,-2.566,-2.5479,-2.5303,-2.5103,-2.4708,-2.4756,-1.4916,-1.4968,-1.4743,-1.5838,-1.7443,-1.7383,-1.8239,-1.9648,-1.9595,-1.9894,-2.0529,-2.0175,-2.0351,-2.0735,-2.0598,-2.0839,-2.1349,-2.1824,-2.2108,-2.2345,-2.2977,-2.3329,-2.3588,-2.3838,-2.4087,-2.4271,-2.4302,-2.4302,-2.4302,-2.4426,-2.4426,-2.4467,-2.467,-2.4806,-2.5005,-2.5201,-2.541,-2.5578,-2.5578,-2.5654,-2.5728,-2.5749,-2.6046,-2.6418,-2.659,-2.6858,-2.7213,-2.7338,-2.743,-2.7504,-2.7612,-2.7701,-2.7719,-2.7748,-2.7836,-2.7968,-2.7968,-2.8042,-2.8144,-2.7766,-2.7689,-2.776,-2.7818,-2.7847,-2.7996,-2.8136,-2.8228,-2.8183,-2.8388,-2.8396,-2.8388,-2.8422,-2.8688,-2.8879,-2.9038,-2.9148,-2.9373,-2.9472,-2.9531,-2.9608,-2.9664,-2.9719,-2.9755,-2.9771,-2.9787,-2.9751,-2.9715,-2.9696,-2.9712,-2.971,-2.9761,-2.9761,-2.9777,-2.9842,-2.9889,-2.9874,-2.9839,-2.9839,-2.9886,-3.0028,-2.9822,-2.9522,-2.9302,-2.9106,-2.8249,-2.7232,-2.6598,-2.6025,-2.5742,-2.5482,-2.5197,-2.5012,-2.4891,-2.4898,-2.4968,-1.4346,-1.44,-1.4563,-1.5447,-1.6636,-1.6421,-1.7301,-1.8927,-1.9483,-1.9856,-2.007,-2.0043,-2.0404,-2.0793,-2.0946,-2.1015,-2.131,-2.1705,-2.1901,-2.1896,-2.2439,-2.2616,-2.2873,-2.3279,-2.364,-2.3779,-2.3979,-2.421,-2.4302,-2.4384,-2.4664,-2.4791,-2.4808,-2.51,-2.5217,-2.5371,-2.554,-2.5578,-2.5616,-2.5691,-2.5844,-2.601,-2.6314,-2.6774,-2.6956,-2.7213,-2.76,-2.763,-2.7672,-2.776,-2.7836,-2.7911,-2.7911,-2.7922,-2.8053,-2.8126,-2.8126,-2.8182,-2.8209,-2.8025,-2.7957,-2.8025,-2.8063,-2.8091,-2.8219,-2.83,-2.8414,-2.854,-2.8688,-2.8785,-2.903,-2.9185,-2.9373,-2.9412,-2.9511,-2.9531,-2.9626,-2.9645,-2.9683,-2.9717,-2.9787,-2.9962,-3.008,-3.0047,-3.0047,-3.0051,-3.0046,-2.9971,-2.9985,-2.9966,-2.998,-2.9985,-3.0018,-3.0065,-3.0079,-3.0119,-3.0177,-3.0203,-3.0253,-3.0309,-3.0006,-2.941,-2.9085,-2.8839,-2.7721,-2.6639,-2.629,-2.594,-2.5627,-2.5346,-2.5197,-2.5135,-2.5165,-2.5205,-2.5244,-1.3969,-1.4011,-1.4112,-1.4786,-1.572,-1.5742,-1.6688,-1.8236,-1.93,-1.9812,-1.9821,-1.9806,-2.012,-2.0521,-2.057,-2.0767,-2.0876,-2.1341,-2.1525,-2.149,-2.1955,-2.2163,-2.2378,-2.2663,-2.3102,-2.3271,-2.3456,-2.3727,-2.4333,-2.421,-2.4076,-2.4207,-2.4923,-2.5,-2.5109,-2.5185,-2.5486,-2.5578,-2.5616,-2.5637,-2.5824,-2.6026,-2.6349,-2.6791,-2.7103,-2.7369,-2.7672,-2.7806,-2.7836,-2.7911,-2.7968,-2.8071,-2.8099,-2.8136,-2.8219,-2.8219,-2.8246,-2.8291,-2.8273,-2.8352,-2.8326,-2.8378,-2.8362,-2.8327,-2.8388,-2.8518,-2.8633,-2.8766,-2.8979,-2.9151,-2.9355,-2.957,-2.9664,-2.9682,-2.9737,-2.9755,-2.9827,-2.9825,-2.9861,-2.9888,-2.9965,-3.0177,-3.034,-3.0351,-3.0321,-3.0344,-3.0366,-3.0306,-3.0243,-3.0243,-3.0243,-3.0252,-3.0271,-3.0342,-3.0393,-3.0462,-3.0501,-3.0559,-3.0559,-3.0521,-2.9785,-2.9128,-2.8838,-2.8373,-2.7129,-2.6214,-2.6156,-2.5899,-2.5609,-2.5486,-2.5456,-2.5434,-2.5461,-2.5445,-2.5445,-1.3639,-1.3791,-1.3419,-1.3928,-1.4947,-1.5522,-1.6501,-1.7792,-1.9097,-1.9682,-1.9656,-1.9114,-1.9502,-1.9926,-1.9358,-1.9482,-2.0074,-2.0668,-2.0787,-2.0973,-2.1347,-2.1583,-2.1835,-2.2102,-2.2455,-2.274,-2.294,-2.332,-2.4231,-2.3653,-2.3101,-2.3249,-2.4329,-2.45,-2.4569,-2.4869,-2.5314,-2.5513,-2.5637,-2.5696,-2.5844,-2.5881,-2.6349,-2.6774,-2.7085,-2.743,-2.7777,-2.7996,-2.8071,-2.8126,-2.8182,-2.8182,-2.8209,-2.8246,-2.8273,-2.8327,-2.8353,-2.8414,-2.8474,-2.8597,-2.8706,-2.8724,-2.859,-2.8474,-2.8551,-2.8808,-2.8952,-2.9067,-2.9237,-2.926,-2.936,-2.9495,-2.9625,-2.9715,-2.9839,-2.9905,-3.0022,-3.0038,-3.0057,-3.0098,-3.0138,-3.026,-3.0365,-3.0424,-3.0496,-3.0455,-3.0438,-3.0411,-3.0389,-3.0564,-3.0556,-3.0568,-3.0595,-3.0622,-3.0676,-3.0614,-3.0645,-3.0629,-3.0614,-3.0479,-2.9659,-2.8787,-2.8282,-2.7563,-2.6409,-2.5809,-2.5847,-2.5784,-2.5649,-2.5586,-2.555,-2.5562,-2.5537,-2.5557,-2.5551,-1.3116,-1.3194,-1.3182,-1.3625,-1.4348,-1.5292,-1.6252,-1.7265,-1.8182,-1.8584,-1.8558,-1.8755,-1.9168,-1.9737,-1.9871,-1.9725,-1.9823,-2.0048,-2.005,-2.0256,-2.0542,-2.07,-2.0967,-2.1326,-2.1728,-2.2081,-2.235,-2.2674,-2.3205,-2.2859,-2.2741,-2.2806,-2.3661,-2.381,-2.4159,-2.4541,-2.5094,-2.5533,-2.5652,-2.5799,-2.6016,-2.6193,-2.664,-2.6997,-2.7365,-2.7713,-2.7996,-2.8126,-2.8172,-2.8182,-2.8182,-2.8209,-2.8273,-2.83,-2.83,-2.838,-2.8507,-2.8646,-2.8748,-2.8938,-2.9074,-2.9156,-2.9132,-2.9067,-2.9071,-2.9156,-2.9339,-2.9418,-2.9514,-2.9569,-2.9677,-2.9801,-2.9867,-2.9934,-3.0015,-3.0064,-3.0157,-3.0166,-3.0166,-3.0228,-3.0279,-3.0402,-3.0505,-3.0567,-3.0619,-3.0546,-3.0486,-3.0501,-3.0438,-3.055,-3.0735,-3.0725,-3.0739,-3.0739,-3.0691,-3.0626,-3.0678,-3.069,-3.0438,-3.0063,-2.9288,-2.8439,-2.7749,-2.6938,-2.6044,-2.5714,-2.5644,-2.5603,-2.5592,-2.5584,-2.5566,-2.5598,-2.5609,-2.5589,-2.56,-1.3017,-1.3055,-1.3218,-1.3695,-1.4479,-1.5389,-1.6225,-1.6923,-1.7565,-1.7943,-1.8131,-1.8405,-1.8709,-1.8967,-1.9137,-1.91,-1.885,-1.9237,-1.9339,-1.9333,-1.9741,-1.9888,-2.0167,-2.0615,-2.1075,-2.1414,-2.1688,-2.1994,-2.2611,-2.3003,-2.2955,-2.2086,-2.2913,-2.3503,-2.39,-2.4347,-2.4961,-2.5508,-2.5891,-2.6012,-2.6236,-2.6521,-2.6926,-2.7156,-2.7531,-2.7915,-2.8164,-2.8164,-2.8209,-2.8219,-2.8237,-2.8309,-2.8456,-2.8565,-2.8713,-2.879,-2.8911,-2.9005,-2.9132,-2.928,-2.9438,-2.957,-2.9661,-2.9677,-2.9587,-2.9587,-2.9678,-2.9732,-2.9832,-2.9946,-3.006,-3.019,-3.0171,-3.0166,-3.018,-3.0213,-3.0221,-3.0241,-3.0285,-3.0348,-3.0434,-3.0583,-3.0678,-3.0735,-3.0763,-3.0719,-3.069,-3.0657,-3.044,-3.0242,-3.0528,-3.0712,-3.0751,-3.0771,-3.0637,-3.0318,-3.0141,-2.9896,-2.945,-2.9052,-2.857,-2.7946,-2.7126,-2.6504,-2.5897,-2.5673,-2.5544,-2.5568,-2.5556,-2.5537,-2.5528,-2.55,-2.5527,-2.5562,-2.5579,-1.3113,-1.317,-1.3324,-1.3931,-1.4903,-1.5599,-1.6213,-1.6688,-1.7188,-1.7663,-1.7939,-1.8096,-1.8156,-1.8289,-1.8371,-1.833,-1.8381,-1.8683,-1.8969,-1.862,-1.9325,-1.9654,-1.9884,-2.0086,-2.0725,-2.0864,-2.1062,-2.1462,-2.2464,-2.274,-2.2312,-2.1438,-2.2508,-2.326,-2.3621,-2.3865,-2.4461,-2.5292,-2.5828,-2.6128,-2.6121,-2.6402,-2.6782,-2.6743,-2.7203,-2.7747,-2.7992,-2.8138,-2.8219,-2.8273,-2.8344,-2.8482,-2.8748,-2.8983,-2.9175,-2.9258,-2.9299,-2.9379,-2.9476,-2.9624,-2.9748,-2.9902,-3.0045,-3.0075,-2.9992,-2.9931,-2.995,-2.9965,-3.0056,-3.0118,-3.0213,-3.0259,-3.024,-3.0272,-3.0311,-3.035,-3.0381,-3.0402,-3.0423,-3.0472,-3.0527,-3.0672,-3.076,-3.079,-3.0548,-3.0708,-3.0344,-3.025,-3.0019,-2.9628,-2.9918,-3.0286,-3.0346,-3.0193,-2.9844,-2.9549,-2.9361,-2.9042,-2.8598,-2.8101,-2.7667,-2.7089,-2.6459,-2.6002,-2.5619,-2.5563,-2.5477,-2.5468,-2.5454,-2.5445,-2.5415,-2.5415,-2.543,-2.5473,-2.5535,-1.2929,-1.3162,-1.3334,-1.3847,-1.4501,-1.4983,-1.5668,-1.6318,-1.6721,-1.7123,-1.7463,-1.7769,-1.792,-1.7935,-1.8152,-1.8242,-1.8361,-1.8503,-1.8927,-1.9101,-1.9493,-1.9711,-2.001,-2.02,-2.0581,-2.0769,-2.087,-2.1017,-2.1729,-2.1892,-2.1875,-2.1562,-2.2133,-2.2441,-2.3157,-2.33,-2.3894,-2.4923,-2.5217,-2.5801,-2.6097,-2.6336,-2.6619,-2.6932,-2.7449,-2.7573,-2.7781,-2.7978,-2.8166,-2.8309,-2.8533,-2.8772,-2.9071,-2.926,-2.9341,-2.938,-2.9514,-2.9584,-2.9801,-2.9934,-3.0045,-3.0118,-3.024,-3.0253,-3.0253,-3.0207,-3.0194,-3.0207,-3.024,-3.0299,-3.0312,-3.0324,-3.0331,-3.0369,-3.0407,-3.0456,-3.0532,-3.0559,-3.0599,-3.0622,-3.0644,-3.0695,-3.0794,-3.0684,-3.0426,-2.9883,-2.9098,-2.8717,-2.8554,-2.8349,-2.8762,-2.914,-2.9517,-2.9391,-2.9071,-2.8686,-2.8454,-2.8282,-2.7932,-2.738,-2.6784,-2.6319,-2.5861,-2.5681,-2.5423,-2.5406,-2.5388,-2.536,-2.5343,-2.5329,-2.5318,-2.5321,-2.5325,-2.5362,-2.5429,-1.2881,-1.3036,-1.3286,-1.3763,-1.4395,-1.4915,-1.5522,-1.6182,-1.671,-1.7031,-1.7212,-1.7461,-1.7584,-1.7666,-1.8043,-1.8282,-1.8361,-1.8567,-1.8697,-1.9026,-1.9515,-1.9767,-2.003,-2.0357,-2.061,-2.0794,-2.0893,-2.1071,-2.1261,-2.1325,-2.1436,-2.1481,-2.1482,-2.1868,-2.2661,-2.2962,-2.3357,-2.443,-2.4479,-2.4919,-2.5658,-2.5968,-2.595,-2.6381,-2.6843,-2.7147,-2.7584,-2.7834,-2.8228,-2.85,-2.8766,-2.8673,-2.8855,-2.8968,-2.9372,-2.9553,-2.9633,-2.9578,-2.9923,-3.0166,-3.0253,-3.0292,-3.033,-3.033,-3.0367,-3.0323,-3.0369,-3.0369,-3.0375,-3.0419,-3.0463,-3.0475,-3.047,-3.0496,-3.0519,-3.0546,-3.063,-3.0697,-3.074,-3.0767,-3.0752,-3.0682,-3.0741,-3.0702,-3.0376,-2.9737,-2.8816,-2.8262,-2.7887,-2.7225,-2.7634,-2.7931,-2.8265,-2.8534,-2.8388,-2.7926,-2.7468,-2.7316,-2.7171,-2.6574,-2.5976,-2.564,-2.5312,-2.5321,-2.5321,-2.5313,-2.5293,-2.5243,-2.5252,-2.5254,-2.5264,-2.5243,-2.5241,-2.5233,-2.5272,-1.2929,-1.2968,-1.3286,-1.3794,-1.4449,-1.5108,-1.5708,-1.625,-1.6951,-1.7227,-1.7269,-1.731,-1.7282,-1.7461,-1.776,-1.7882,-1.8123,-1.8425,-1.8556,-1.895,-1.9391,-1.9839,-2.0189,-2.0478,-2.0712,-2.0893,-2.1023,-2.1087,-2.1214,-2.1246,-2.1309,-2.134,-2.1609,-2.1974,-2.258,-2.2785,-2.2911,-2.3518,-2.3779,-2.3903,-2.4533,-2.5247,-2.5229,-2.5504,-2.6054,-2.6849,-2.7215,-2.7679,-2.8206,-2.8682,-2.8979,-2.9041,-2.9042,-2.92,-2.9569,-2.9837,-2.9713,-2.9838,-3.0107,-3.0279,-3.0318,-3.0343,-3.0379,-3.0421,-3.0455,-3.0479,-3.0507,-3.0509,-3.0518,-3.0527,-3.0567,-3.0578,-3.0588,-3.0608,-3.0637,-3.0647,-3.0751,-3.0813,-3.0847,-3.0876,-3.0797,-3.0707,-3.0676,-3.0657,-3.0194,-2.9576,-2.8954,-2.8489,-2.7885,-2.6959,-2.6641,-2.6756,-2.689,-2.7142,-2.7322,-2.7099,-2.6529,-2.6357,-2.6165,-2.5638,-2.5262,-2.5239,-2.5228,-2.5261,-2.5261,-2.522,-2.5179,-2.5138,-2.5153,-2.5149,-2.513,-2.5099,-2.5111,-2.5091,-2.5091,-1.291,-1.318,-1.3314,-1.3784,-1.4449,-1.5108,-1.5708,-1.628,-1.7063,-1.7434,-1.7434,-1.7652,-1.7747,-1.7788,-1.8202,-1.8361,-1.8282,-1.8478,-1.8988,-1.9493,-1.9609,-2.0,-2.0444,-2.0679,-2.0893,-2.1023,-2.1183,-2.1277,-2.1277,-2.1309,-2.1402,-2.1603,-2.1559,-2.1746,-2.1927,-2.2135,-2.2405,-2.2954,-2.322,-2.3364,-2.3809,-2.4409,-2.4873,-2.5219,-2.5691,-2.6056,-2.6446,-2.7139,-2.785,-2.853,-2.9037,-2.9288,-2.939,-2.9479,-2.9868,-3.0017,-2.989,-2.9979,-3.0215,-3.0355,-3.0367,-3.0448,-3.0502,-3.0527,-3.0559,-3.0548,-3.0598,-3.0645,-3.0633,-3.06,-3.0614,-3.0628,-3.0619,-3.07,-3.074,-3.0793,-3.0859,-3.0859,-3.0879,-3.085,-3.0785,-3.0716,-3.0674,-3.0481,-3.0085,-2.9378,-2.8511,-2.7956,-2.6932,-2.629,-2.5741,-2.5741,-2.5772,-2.5554,-2.5643,-2.5953,-2.5623,-2.5451,-2.5352,-2.5187,-2.5106,-2.512,-2.5132,-2.5137,-2.5137,-2.512,-2.5069,-2.5006,-2.4981,-2.4974,-2.4961,-2.4942,-2.4955,-2.4968,-2.4994]}]]